Date StartTime U_cm/s V_cm/s W_cm/s Ustd_cm/s Vstd_cm/s Wstd_cm/s Uvar_(cm/s)^2 Vvar_(cm/s)^2 Wvar_(cm/s)^2 KE_(m/s)^2 TurbulentKE_(m/s)^2 HorizWindSpeed_cm/s FrictionSpeec_cm/s DragCoef SpeedOfSound_m/s SonicTemperature_C Pressure_mb 
05/30/2013  00:00:00     -332.337      -95.923       -5.095      189.416      145.645       68.406    35878.586    21212.555     4679.363        9.071        3.089      345.903       79.141        0.052      340.280       14.188      858.869
05/30/2013  00:01:00     -240.461      -59.378       -0.377      196.642      134.926       71.085    38668.184    18205.002     5053.123        6.163        3.096      247.684       61.574        0.062      340.292       14.210      858.856
05/30/2013  00:02:00     -352.209      -56.646      -17.954      212.225      122.784       76.401    45039.287    15075.911     5837.143        9.676        3.298      356.735       92.814        0.068      340.307       14.234      858.833
05/30/2013  00:03:00     -274.131      -75.747       -3.495      164.448      117.625       59.818    27043.288    13835.697     3578.134        6.267        2.223      284.403       63.762        0.050      340.280       14.188      858.830
05/30/2013  00:04:00     -274.999      -33.929       -1.048      201.107       95.420       75.742    40443.898     9105.033     5736.808        6.602        2.764      277.084       93.948        0.115      340.262       14.158      858.839
05/30/2013  00:05:00     -447.337      -29.846      -32.835      219.663      153.174       71.211    48251.941    23462.404     5071.012       13.942        3.839      448.332       78.536        0.031      340.285       14.196      858.832
05/30/2013  00:06:00     -321.822      -74.711       13.123      197.428      150.925       89.550    38977.938    22778.479     8019.267        8.954        3.489      330.380       84.664        0.066      340.264       14.161      858.846
05/30/2013  00:07:00     -266.815      -79.373        1.207      177.649      177.606       80.011    31559.241    31543.829     6401.720        7.349        3.475      278.371       84.569        0.092      340.263       14.160      858.875
05/30/2013  00:08:00     -305.477      -26.789      -12.530      186.004       95.572       76.712    34597.335     9133.942     5884.795        7.190        2.481      306.650       96.650        0.099      340.264       14.163      858.855
05/30/2013  00:09:00     -282.219     -141.292      -10.379      140.283      120.192       68.738    19679.424    14446.176     4724.942        6.928        1.943      315.612       68.977        0.048      340.242       14.123      858.858
05/30/2013  00:10:00     -589.968     -105.704      -45.932      191.784      171.899       81.843    36781.241    29549.321     6698.265       21.717        3.651      599.363       87.417        0.021      340.268       14.168      858.843
05/30/2013  00:11:00     -199.174      -88.816        2.071      143.847      128.043       63.119    20692.029    16394.990     3983.958        4.431        2.054      218.080       69.187        0.101      340.233       14.109      858.871
05/30/2013  00:12:00     -382.644      -55.055      -17.278      163.128      127.577       54.671    26610.602    16275.808     2988.874        9.780        2.294      386.585       52.750        0.019      340.224       14.095      858.914
05/30/2013  00:13:00     -215.241      -45.506       -2.103      150.514      114.847       61.973    22654.452    13189.737     3840.649        4.404        1.984      219.999       58.486        0.071      340.239       14.120      858.926
05/30/2013  00:14:00     -153.161      -15.632       -4.346      104.055       86.589       44.121    10827.492     7497.593     1946.673        2.199        1.014      153.957       47.978        0.097      340.189       14.037      858.960
05/30/2013  00:15:00     -336.221      -76.801      -10.836      184.416      105.204       64.015    34009.442    11067.846     4097.915        8.411        2.459      344.881       67.116        0.038      340.261       14.155      858.967
05/30/2013  00:16:00     -349.353      -42.002      -29.675      150.653      133.380       66.692    22696.339    17790.176     4447.779        8.481        2.247      351.869       76.575        0.047      340.244       14.128      858.990
05/30/2013  00:17:00     -325.217      -37.833      -24.248      148.512      129.767       57.286    22055.699    16839.461     3281.667        7.497        2.109      327.410       36.480        0.012      340.225       14.095      859.013
05/30/2013  00:18:00     -155.480      -66.891      -13.245      106.467      129.976       56.354    11335.317    16893.720     3175.806        3.011        1.570      169.259       42.485        0.063      340.202       14.057      859.007
05/30/2013  00:19:00     -155.755      -62.152       -4.151       93.162       76.374       47.331     8679.080     5833.031     2240.197        2.244        0.838      167.698       52.527        0.098      340.200       14.055      859.006
05/30/2013  00:20:00     -241.940      -43.690      -19.319      107.078       78.817       42.572    11465.680     6212.046     1812.336        4.015        0.975      245.853       45.290        0.034      340.209       14.069      859.025
05/30/2013  00:21:00     -249.178      -56.174      -15.059      132.269       67.354       48.468    17495.099     4536.596     2349.152        4.492        1.219      255.432       52.691        0.043      340.193       14.040      859.045
05/30/2013  00:22:00     -247.204      -92.108       -9.975      109.548       70.470       40.716    12000.657     4966.017     1657.799        4.416        0.931      263.807       35.187        0.018      340.183       14.023      859.046
05/30/2013  00:23:00     -296.348      -52.660      -15.388      113.459      104.541       50.395    12872.946    10928.840     2539.640        5.858        1.317      300.990       33.763        0.013      340.179       14.018      859.032
05/30/2013  00:24:00     -423.686      -33.362      -35.245      148.447      111.955       64.949    22036.600    12533.946     4218.401       11.032        1.939      424.997       56.070        0.017      340.201       14.055      859.008
05/30/2013  00:25:00     -308.767      -37.844      -19.772      124.233      117.713       57.991    15433.860    13856.292     3362.965        6.490        1.633      311.078       60.044        0.037      340.186       14.029      859.012
05/30/2013  00:26:00     -206.545       -1.464       -7.316       93.305      100.817       45.799     8705.732    10163.977     2097.526        3.184        1.048      206.550       34.123        0.027      340.171       14.006      859.019
05/30/2013  00:27:00     -147.159      -52.276        1.322       94.534       67.367       40.179     8936.676     4538.295     1614.371        1.974        0.754      156.168       43.792        0.079      340.123       13.925      859.015
05/30/2013  00:28:00     -262.865       34.949      -22.381       82.305       81.129       41.791     6774.185     6581.838     1746.512        4.296        0.755      265.178       35.998        0.018      340.114       13.907      859.027
05/30/2013  00:29:00     -368.481      -11.427      -48.480       78.954       71.011       53.983     6233.741     5042.513     2914.205        7.622        0.710      368.658       44.227        0.014      340.141       13.954      859.023
05/30/2013  00:30:00     -243.015      -32.157      -16.000      195.615       91.380       66.634    38265.062     8350.334     4440.104        5.569        2.553      245.133       94.448        0.148      340.161       13.986      859.032
05/30/2013  00:31:00     -196.236      -22.314      -15.086      125.686       68.048       42.515    15796.892     4630.555     1807.511        3.073        1.112      197.501       60.939        0.095      340.133       13.941      859.048
05/30/2013  00:32:00     -318.611      -32.011      -31.457       73.017       77.903       47.104     5331.464     6068.854     2218.758        5.857        0.681      320.215       42.581        0.018      340.108       13.896      859.070
05/30/2013  00:33:00     -456.161      -82.279      -44.873      116.325      123.858       64.293    13531.562    15340.860     4133.537       12.493        1.650      463.522       54.026        0.014      340.115       13.908      859.063
05/30/2013  00:34:00     -414.696      -46.130      -43.369      132.444      111.005       66.722    17541.299    12322.203     4451.798       10.514        1.716      417.253       64.834        0.024      340.112       13.905      859.057
05/30/2013  00:35:00     -330.177      -31.715      -24.397       83.334      117.497       44.861     6944.493    13805.443     2012.532        6.669        1.138      331.696       26.473        0.006      340.079       13.848      859.046
05/30/2013  00:36:00     -260.860      -30.787      -11.791      125.767       82.613       56.999    15817.262     6824.912     3248.935        4.751        1.295      262.671       64.007        0.059      340.043       13.788      859.025
05/30/2013  00:37:00     -282.286      -83.538      -17.450      107.037       76.130       47.661    11456.854     5795.708     2271.538        5.324        0.976      294.387       46.137        0.025      340.054       13.806      859.024
05/30/2013  00:38:00     -232.655      -86.828       -4.596      148.826      100.180       55.850    22149.063    10036.122     3119.240        4.849        1.765      248.330       67.831        0.075      340.054       13.807      859.017
05/30/2013  00:39:00     -289.694      -63.876      -25.589       96.601      107.126       49.498     9331.827    11475.985     2450.024        5.595        1.163      296.652       46.691        0.025      340.038       13.777      859.006
05/30/2013  00:40:00     -248.935        1.951      -24.044       85.390      104.132       39.367     7291.421    10843.390     1549.790        4.111        0.984      248.943       30.040        0.015      340.019       13.747      858.993
05/30/2013  00:41:00     -184.000      -70.240       -9.309       84.620       81.340       51.174     7160.571     6616.183     2618.785        2.763        0.820      196.951       19.734        0.010      340.018       13.748      858.992
05/30/2013  00:42:00     -209.066      -29.640       -8.938      148.370       88.109       46.206    22013.734     7763.238     2134.956        3.828        1.596      211.157       57.201        0.073      340.041       13.786      858.998
05/30/2013  00:43:00     -217.321      -65.201      -13.712       71.575       95.699       46.026     5122.985     9158.306     2118.391        3.403        0.820      226.891       33.266        0.021      340.035       13.774      858.990
05/30/2013  00:44:00     -144.724      -21.420      -12.162       79.673       50.191       38.749     6347.777     2519.114     1501.512        1.596        0.518      146.301       30.959        0.045      340.014       13.741      859.004
05/30/2013  00:45:00     -113.121      -11.510        7.807       94.466       92.794       46.473     8923.777     8610.786     2159.780        1.634        0.985      113.705       58.737        0.267      339.966       13.660      859.010
05/30/2013  00:46:00     -121.759        9.191      -27.816       95.728       99.926       51.056     9163.908     9985.212     2606.681        1.872        1.088      122.105       38.359        0.099      339.991       13.702      859.023
05/30/2013  00:47:00      -88.623       83.591      -10.296       59.110       99.809       32.614     3494.024     9961.817     1063.698        1.473        0.726      121.825       37.372        0.094      339.916       13.576      859.034
05/30/2013  00:48:00     -107.612      143.985      -15.354       75.605       66.787       42.011     5716.077     4460.472     1764.888        2.224        0.597      179.756       43.707        0.059      339.850       13.466      859.042
05/30/2013  00:49:00     -145.546       72.889      -25.569       66.597       58.153       45.610     4435.105     3381.791     2080.277        1.852        0.495      162.778       25.767        0.025      339.884       13.521      859.055
05/30/2013  00:50:00     -116.753       79.765      -23.627       55.607       91.390       33.330     3092.129     8352.214     1110.880        1.655        0.628      141.399       18.745        0.018      339.857       13.476      859.058
05/30/2013  00:51:00      -72.341       82.140      -10.264       81.020       46.315       36.246     6564.192     2145.044     1313.737        1.105        0.501      109.454       37.592        0.118      339.823       13.421      859.052
05/30/2013  00:52:00      -59.511       80.120       -0.500       65.488       70.994       39.744     4288.708     5040.186     1579.619        1.043        0.545       99.803       35.752        0.128      339.805       13.390      859.046
05/30/2013  00:53:00      -77.612      103.608      -15.252       65.842       69.680       40.166     4335.191     4855.236     1613.309        1.390        0.540      129.454       34.711        0.072      339.837       13.444      859.033
05/30/2013  00:54:00      -53.073       47.434        4.159       37.920       82.246       37.469     1437.947     6764.399     1403.928        0.734        0.480       71.181       30.357        0.182      339.817       13.410      859.004
05/30/2013  00:55:00     -124.298      103.058      -26.323       76.837       63.410       38.433     5903.946     4020.768     1477.118        1.908        0.570      161.465       44.700        0.077      339.855       13.473      858.988
05/30/2013  00:56:00      -96.006       62.103       -2.239       70.166       67.699       36.211     4923.242     4583.107     1311.210        1.195        0.541      114.341       38.345        0.112      339.886       13.526      858.994
05/30/2013  00:57:00     -123.601      132.118      -31.548       60.031       83.134       40.112     3603.726     6911.271     1608.935        2.292        0.606      180.921       48.136        0.071      339.902       13.551      859.008
05/30/2013  00:58:00     -129.249      144.150      -18.401       65.753       70.320       40.514     4323.442     4944.946     1641.364        2.436        0.545      193.609       45.205        0.055      339.867       13.493      859.011
05/30/2013  00:59:00      -18.735       93.002       -2.158       37.856       57.348       31.341     1433.051     3288.790      982.233        0.735        0.285       94.871       27.260        0.083      339.828       13.430      858.983
05/30/2013  01:00:00      -37.303      197.426      -12.949       77.813       80.026       55.382     6054.843     6404.221     3067.129        2.803        0.776      200.919       38.477        0.037      339.826       13.423      858.972
05/30/2013  01:01:00      -82.881       85.302      -13.641      123.881       50.136       48.462    15346.527     2513.630     2348.556        1.727        1.010      118.936       52.580        0.195      339.951       13.637      858.954
05/30/2013  01:02:00     -194.600       96.314      -26.947       79.391       66.562       42.949     6302.872     4430.438     1844.595        3.022        0.629      217.131       40.630        0.035      339.919       13.579      858.979
05/30/2013  01:03:00      -33.367       33.137       -1.719       58.753       72.432       29.172     3451.931     5246.365      851.009        0.588        0.477       47.026       37.973        0.652      339.903       13.554      858.979
05/30/2013  01:04:00      -62.425      114.560      -14.129       54.767       62.439       33.992     2999.466     3898.576     1155.472        1.264        0.403      130.464       35.822        0.075      339.860       13.483      858.992
05/30/2013  01:05:00      -89.019      102.896      -22.928       40.993       44.043       26.095     1680.422     1939.796      680.972        1.167        0.215      136.059       22.600        0.028      339.828       13.428      859.003
05/30/2013  01:06:00     -152.180      114.624      -45.228       26.557       55.071       24.623      705.293     3032.783      606.311        2.134        0.217      190.519       18.306        0.009      339.845       13.455      859.019
05/30/2013  01:07:00     -107.576      104.085      -21.884       42.596       63.531       25.872     1814.436     4036.197      669.365        1.470        0.326      149.688       30.574        0.042      339.779       13.347      859.032
05/30/2013  01:08:00     -128.946       46.387      -14.851       46.450       32.637       20.534     2157.629     1065.194      421.652        1.132        0.182      137.036       17.784        0.017      339.792       13.368      859.038
05/30/2013  01:09:00      -50.671       53.345       -3.451       45.281       24.917       24.173     2050.369      620.835      584.346        0.434        0.163       73.575       25.644        0.121      339.744       13.288      859.033
05/30/2013  01:10:00      -45.315       58.975       -3.389       29.676       33.182       20.680      880.687     1101.057      427.663        0.398        0.120       74.374       12.198        0.027      339.729       13.263      859.030
05/30/2013  01:11:00      -59.063      109.311      -15.042       40.614       43.278       22.924     1649.517     1872.962      525.508        0.986        0.202      124.247       26.305        0.045      339.684       13.187      859.013
05/30/2013  01:12:00      -23.535       71.141       -9.294       41.263       44.477       20.907     1702.671     1978.186      437.102        0.491        0.206       74.933       21.151        0.080      339.702       13.217      858.995
05/30/2013  01:13:00       -8.421       67.103        8.790       48.278       72.894       35.099     2330.801     5313.494     1231.941        0.676        0.444       67.629       27.974        0.171      339.752       13.300      859.008
05/30/2013  01:14:00      -87.820       27.799      -26.930       27.494       47.895       17.140      755.946     2293.946      293.780        0.628        0.167       92.115        6.308        0.005      339.720       13.247      859.037
05/30/2013  01:15:00      -21.987       22.691      -13.232       27.716       30.040       15.217      768.151      902.379      231.562        0.154        0.095       31.596       14.831        0.220      339.734       13.272      859.046
05/30/2013  01:16:00      -56.961       -0.505       -7.613       42.205       26.314       23.749     1781.290      692.425      563.998        0.317        0.152       56.963       19.845        0.121      339.786       13.358      859.075
05/30/2013  01:17:00      -75.914        8.207       -9.113       32.538       29.807       16.737     1058.740      888.458      280.135        0.407        0.111       76.356       13.990        0.034      339.875       13.507      859.102
05/30/2013  01:18:00     -158.502       20.115      -29.165       59.049       43.242       30.537     3486.730     1869.872      932.511        1.633        0.314      159.773       29.221        0.033      339.622       13.080      859.120
05/30/2013  01:19:00      -16.949       32.724       10.042       48.658       27.047       20.276     2367.627      731.541      411.107        0.248        0.176       36.853       24.712        0.450      339.494       12.866      859.112
05/30/2013  01:20:00      -71.359       55.400      -17.451       34.455       40.255       17.690     1187.140     1620.486      312.942        0.579        0.156       90.340       21.541        0.057      339.595       13.036      859.099
05/30/2013  01:21:00       50.960       43.491        2.351       25.727       28.267       23.883      661.864      799.003      570.385        0.326        0.102       66.996       10.938        0.027      339.447       12.787      859.088
05/30/2013  01:22:00      -16.795       71.661       -2.974       53.862       34.974       22.391     2901.144     1223.186      501.343        0.503        0.231       73.603       27.724        0.142      339.515       12.902      859.108
05/30/2013  01:23:00      -87.367       19.330       -9.407       28.721       28.194       17.852      824.894      794.911      318.690        0.502        0.097       89.480       13.297        0.022      339.627       13.090      859.161
05/30/2013  01:24:00      -67.677        2.672       -6.319       28.195       33.950       18.512      794.955     1152.631      342.685        0.346        0.115       67.729       14.021        0.043      339.508       12.889      859.189
05/30/2013  01:25:00      -72.167       -2.036       -8.715       25.919       36.863       13.335      671.781     1358.869      177.832        0.375        0.110       72.195        8.192        0.013      339.581       13.012      859.181
05/30/2013  01:26:00      -88.119      -36.250       -2.231       21.602       24.100       12.923      466.651      580.806      166.993        0.515        0.061       95.284       12.059        0.016      339.622       13.083      859.198
05/30/2013  01:27:00      -93.247      -61.279        3.606       27.650       30.458       17.616      764.524      927.678      310.339        0.723        0.100      111.580       15.747        0.020      339.631       13.097      859.230
05/30/2013  01:28:00     -111.047       -7.224       -9.597       45.938       31.046       15.952     2110.257      963.851      254.473        0.790        0.166      111.282       14.982        0.018      339.479       12.841      859.236
05/30/2013  01:29:00      -20.178       27.372       -7.767       19.702       23.646       16.583      388.155      559.138      274.990        0.122        0.061       34.005       14.715        0.187      339.366       12.650      859.218
05/30/2013  01:30:00     -110.905      -46.696       -6.578       37.772       26.801       15.811     1426.708      718.299      249.992        0.846        0.120      120.335        5.688        0.002      339.400       12.708      859.223
05/30/2013  01:31:00      -61.148      -18.825       -2.852       32.462       24.924       20.246     1053.810      621.188      409.894        0.309        0.104       63.980       16.709        0.068      339.277       12.499      859.230
05/30/2013  01:32:00      -82.217       -8.190       -5.103       62.814       21.536       18.260     3945.560      463.812      333.442        0.580        0.237       82.623       28.135        0.116      339.297       12.532      859.242
05/30/2013  01:33:00     -114.646      -25.954       -5.870       25.606       27.986       19.684      655.657      783.202      387.477        0.784        0.091      117.547       15.305        0.017      339.338       12.604      859.254
05/30/2013  01:34:00      -60.218      -21.283       -1.398       45.648       15.918       11.278     2083.720      253.392      127.184        0.327        0.123       63.869       14.182        0.049      339.335       12.597      859.252
05/30/2013  01:35:00        3.170      -58.816      -13.884       26.628       29.731        9.389      709.027      883.935       88.154        0.267        0.084       58.902       10.875        0.034      339.400       12.707      859.226
05/30/2013  01:36:00      -19.795      -45.949       -2.617       36.179       19.305       16.640     1308.940      372.690      276.887        0.223        0.098       50.032        8.904        0.032      339.382       12.675      859.224
05/30/2013  01:37:00      -29.864      -11.208        2.844       17.758       17.200       12.393      315.341      295.850      153.576        0.090        0.038       31.897       11.001        0.119      339.312       12.558      859.222
05/30/2013  01:38:00      -35.075       -2.821        1.390       29.583        9.195        9.039      875.180       84.557       81.708        0.114        0.052       35.188       13.109        0.139      339.235       12.431      859.225
05/30/2013  01:39:00      -50.175      -27.556        2.459       32.852       24.590       21.367     1079.247      604.675      456.569        0.271        0.107       57.245       20.777        0.132      339.208       12.384      859.240
05/30/2013  01:40:00      -23.645      -17.087        3.312       16.902       14.714       13.043      285.672      216.500      170.118        0.077        0.034       29.173       10.425        0.128      339.143       12.274      859.250
05/30/2013  01:41:00      -57.814       -0.489       -3.454       20.200       19.197       12.049      408.042      368.506      145.170        0.214        0.046       57.816       12.315        0.045      339.137       12.265      859.235
05/30/2013  01:42:00      -56.287        2.646       -8.123       17.489       11.526       10.526      305.874      132.840      110.787        0.190        0.027       56.349        5.741        0.010      339.080       12.167      859.212
05/30/2013  01:43:00      -23.295       -7.941       -1.518       23.256        9.943        9.163      540.831       98.863       83.952        0.067        0.036       24.611        6.791        0.076      338.995       12.025      859.174
05/30/2013  01:44:00      -59.101      -17.137       -6.069        9.597       13.201        8.500       92.103      174.260       72.243        0.208        0.017       61.536        5.721        0.009      339.058       12.130      859.153
05/30/2013  01:45:00      -50.165       -3.029       -4.633       14.259       10.877        7.635      203.326      118.310       58.289        0.146        0.019       50.257        5.268        0.011      338.998       12.029      859.153
05/30/2013  01:46:00      -41.532        2.544       -9.671        9.040        6.043        5.111       81.720       36.518       26.122        0.098        0.007       41.610        2.807        0.005      339.009       12.048      859.147
05/30/2013  01:47:00      -39.445      -12.227      -12.016        8.809        9.570        8.555       77.591       91.589       73.196        0.105        0.012       41.297        5.607        0.018      339.101       12.202      859.132
05/30/2013  01:48:00      -42.955       -7.167       -5.350       12.344       10.309        5.955      152.374      106.278       35.460        0.111        0.015       43.549        3.866        0.008      339.100       12.202      859.137
05/30/2013  01:49:00      -42.049       11.905       -5.251       10.408       10.967        9.294      108.335      120.270       86.386        0.113        0.016       43.702        6.223        0.020      339.136       12.262      859.145
05/30/2013  01:50:00      -62.602       27.241       -9.283       25.090       16.708        9.979      629.490      279.164       99.579        0.288        0.050       68.272        8.327        0.015      339.159       12.300      859.159
05/30/2013  01:51:00      -64.379       31.580      -11.318       14.813       14.726       11.303      219.438      216.848      127.769        0.292        0.028       71.707        9.650        0.018      338.987       12.013      859.180
05/30/2013  01:52:00      -41.717       37.485      -11.487       16.797       21.468       10.595      282.147      460.886      112.259        0.207        0.043       56.084       10.801        0.037      338.967       11.977      859.181
05/30/2013  01:53:00      -23.485       35.345       -7.733       19.457       18.587        7.698      378.588      345.466       59.264        0.132        0.039       42.436        6.045        0.020      339.098       12.200      859.165
05/30/2013  01:54:00       12.526       58.891       -9.758       16.346       19.796        9.119      267.200      391.888       83.155        0.223        0.037       60.208        8.377        0.019      339.031       12.084      859.144
05/30/2013  01:55:00       28.750       46.115       -4.995       17.009       19.089       12.860      289.309      364.392      165.377        0.190        0.041       54.343       10.954        0.041      339.061       12.137      859.137
05/30/2013  01:56:00        0.994       58.432       -6.097       16.487       42.139       21.739      271.822     1775.727      472.570        0.299        0.126       58.441       24.947        0.182      338.976       11.993      859.147
05/30/2013  01:57:00       -1.930       -9.025        0.444       18.073       14.300       13.181      326.643      204.477      173.745        0.040        0.035        9.230        6.880        0.556      338.969       11.983      859.159
05/30/2013  01:58:00        6.370       14.220       24.046       14.797       28.718       15.051      218.948      824.701      226.527        0.105        0.064       15.582       14.080        0.817      338.908       11.880      859.157
05/30/2013  01:59:00      -13.254       30.692       35.202        8.315       16.674       12.889       69.145      278.030      166.116        0.143        0.026       33.431        8.035        0.058      338.828       11.744      859.160
05/30/2013  02:00:00        1.229       -9.864       10.944        7.649       23.247       11.871       58.502      540.407      140.922        0.048        0.037        9.940       14.183        2.036      338.851       11.784      859.173
05/30/2013  02:01:00       -6.953      -21.670       13.822       13.963       18.951       17.234      194.955      359.124      297.023        0.078        0.043       22.758       14.645        0.414      339.030       12.085      859.164
05/30/2013  02:02:00        7.299       13.913        2.365       12.197       10.544       10.199      148.766      111.167      104.011        0.031        0.018       15.711        7.233        0.212      338.990       12.017      859.148
05/30/2013  02:03:00       -1.600       29.857        0.589       13.355       13.714       15.894      178.353      188.066      252.605        0.076        0.031       29.899        8.142        0.074      338.994       12.023      859.156
05/30/2013  02:04:00       -0.779       58.129       -9.705       11.370       20.387       12.641      129.276      415.622      159.805        0.209        0.035       58.134       13.843        0.057      338.969       11.982      859.165
05/30/2013  02:05:00      -21.788      124.097      -16.837       32.662       50.576       22.050     1066.797     2557.963      486.181        1.013        0.206      125.995       17.365        0.019      339.105       12.209      859.144
05/30/2013  02:06:00      -76.023       -1.370      -19.503       36.978       45.349       19.929     1367.383     2056.570      397.185        0.499        0.191       76.035       25.067        0.109      339.037       12.096      859.136
05/30/2013  02:07:00      -40.711      -13.017       -9.849       19.311       35.526       10.815      372.898     1262.086      116.969        0.184        0.088       42.741        3.813        0.008      339.028       12.080      859.141
05/30/2013  02:08:00      -24.880        5.511        1.558       23.202       17.703       17.663      538.326      313.396      311.999        0.091        0.058       25.483       15.571        0.373      339.043       12.105      859.120
05/30/2013  02:09:00      -36.584        2.677        4.258       46.923       18.533       17.626     2201.758      343.459      310.669        0.211        0.143       36.682       18.342        0.250      338.984       12.006      859.118
05/30/2013  02:10:00      -75.376       82.248      -19.934       48.518       37.605       29.221     2354.008     1414.134      853.853        0.873        0.231      111.562       25.111        0.051      339.066       12.144      859.118
05/30/2013  02:11:00      -28.620      106.571       -6.387       38.366       50.249       25.090     1471.971     2524.929      629.491        0.842        0.231      110.347       16.946        0.024      339.048       12.114      859.125
05/30/2013  02:12:00      -42.356       51.120        8.058       38.392       39.419       24.576     1473.965     1553.827      603.985        0.405        0.182       66.387       23.432        0.125      339.027       12.080      859.127
05/30/2013  02:13:00      -21.127      117.444       -4.699       39.878       67.081       40.494     1590.229     4499.834     1639.760        1.099        0.386      119.329       39.246        0.108      339.079       12.167      859.133
05/30/2013  02:14:00       18.098       43.761       12.071       27.476       36.282       24.571      754.938     1316.399      603.749        0.253        0.134       47.356       22.770        0.231      338.930       11.917      859.098
05/30/2013  02:15:00       54.496       43.279       18.422       48.660       33.267       23.548     2367.795     1106.660      554.522        0.460        0.201       69.591       17.338        0.062      338.894       11.854      859.048
05/30/2013  02:16:00       71.974       54.642       41.195       63.934       61.637       43.544     4087.528     3799.077     1896.056        0.982        0.489       90.366       43.661        0.233      338.940       11.932      859.028
05/30/2013  02:17:00       65.613       44.964       33.554       74.133       30.574       21.827     5495.710      934.762      476.411        0.718        0.345       79.541       29.426        0.137      338.938       11.931      859.026
05/30/2013  02:18:00       48.751       59.598       17.578       39.840       36.813       44.710     1587.243     1355.181     1999.013        0.559        0.247       76.998       36.362        0.223      338.838       11.761      859.040
05/30/2013  02:19:00       23.903       81.021      -12.060       48.689       44.094       16.614     2370.586     1944.253      276.039        0.594        0.230       84.474       19.765        0.055      338.812       11.718      859.045
05/30/2013  02:20:00      -17.750       65.618       -4.178       30.498       26.771       23.791      930.137      716.691      565.997        0.343        0.111       67.976       16.320        0.058      338.868       11.813      859.049
05/30/2013  02:21:00      -40.480      122.879      -14.830       42.440       60.899       28.689     1801.142     3708.698      823.068        1.164        0.317      129.375       22.207        0.029      339.096       12.194      859.052
05/30/2013  02:22:00      -31.358       79.576      -13.008       43.824       43.458       27.994     1920.500     1888.596      783.653        0.604        0.230       85.532       23.308        0.074      339.106       12.211      859.043
05/30/2013  02:23:00      -17.738       90.141      -16.406       44.404       53.784       20.631     1971.679     2892.719      425.641        0.700        0.265       91.870       14.430        0.025      339.141       12.271      859.035
05/30/2013  02:24:00       -3.431       18.655       -9.683       25.270       26.963       19.461      638.571      727.000      378.733        0.110        0.087       18.968       19.267        1.032      339.097       12.196      859.048
05/30/2013  02:25:00       29.848       30.804       31.083       36.087       28.670       26.255     1302.288      821.970      689.316        0.281        0.141       42.893       16.171        0.142      338.988       12.014      859.034
05/30/2013  02:26:00        6.898       19.681       36.304       26.370       33.062       18.850      695.355     1093.093      355.339        0.195        0.107       20.855       13.798        0.438      338.943       11.940      859.024
05/30/2013  02:27:00       -5.790       56.974      -16.685       29.880       70.851       25.020      892.813     5019.884      625.991        0.505        0.327       57.267       30.622        0.286      339.044       12.109      859.044
05/30/2013  02:28:00      -17.719       58.465      -10.759       43.120       45.652       30.174     1859.373     2084.061      910.476        0.435        0.243       61.091       29.657        0.236      339.109       12.216      859.059
05/30/2013  02:29:00       19.515        7.371        1.311       26.434       14.928       22.755      698.740      222.835      517.796        0.094        0.072       20.860       18.010        0.745      338.977       11.995      859.040
05/30/2013  02:30:00      -31.621      -20.258      -12.614       20.341       38.675       12.258      413.764     1495.718      150.261        0.181        0.103       37.553       13.696        0.133      339.116       12.230      859.026
05/30/2013  02:31:00        0.782      -13.610        4.375       13.673       14.723       18.583      186.957      216.755      345.318        0.048        0.037       13.633        9.716        0.508      338.847       11.777      859.034
05/30/2013  02:32:00       35.633      -32.473       -5.762       19.796       27.173       15.193      391.896      738.391      230.829        0.186        0.068       48.210       12.274        0.065      338.967       11.978      859.068
05/30/2013  02:33:00       28.786      -54.287        3.053       22.341       31.421       19.995      499.142      987.294      399.809        0.284        0.094       61.446       16.319        0.071      339.015       12.059      859.071
05/30/2013  02:34:00       -1.825      -11.471        4.225       13.842       23.061       17.517      191.608      531.793      306.853        0.059        0.052       11.615       10.765        0.859      338.873       11.821      859.080
05/30/2013  02:35:00       43.883       22.958        6.663       28.364       28.788       11.040      804.538      828.725      121.878        0.213        0.088       49.525        7.712        0.024      338.896       11.859      859.070
05/30/2013  02:36:00       73.298       57.712        8.225       14.757       15.246       17.048      217.764      232.447      290.625        0.476        0.037       93.291       11.595        0.015      339.051       12.120      859.041
05/30/2013  02:37:00       64.364       47.204        2.422       14.818       13.738       10.432      219.570      188.741      108.820        0.345        0.026       79.818        7.948        0.010      339.022       12.072      859.034
05/30/2013  02:38:00       73.272       34.981        2.246       22.161       18.342       15.545      491.115      336.427      241.636        0.383        0.053       81.194        6.002        0.005      338.941       11.934      859.024
05/30/2013  02:39:00       71.595       40.795        1.202       39.098       22.499       22.384     1528.687      506.223      501.024        0.466        0.127       82.402       16.155        0.038      338.960       11.966      859.013
05/30/2013  02:40:00       23.068       32.880       -7.465       23.052       16.445       14.228      531.392      270.448      202.425        0.134        0.050       40.165       15.587        0.151      338.972       11.987      859.023
05/30/2013  02:41:00       28.543       48.471        3.535       42.143       23.288       23.172     1776.073      542.318      536.957        0.302        0.143       56.251       17.861        0.101      338.979       11.999      859.040
05/30/2013  02:42:00       14.517       29.223        1.539       21.584       25.513       18.022      465.871      650.918      324.789        0.125        0.072       32.630       17.749        0.296      338.833       11.752      859.034
05/30/2013  02:43:00       46.253       26.189       -7.212       14.813       11.680        8.817      219.422      136.415       77.746        0.166        0.022       53.153        6.409        0.015      338.963       11.972      859.025
05/30/2013  02:44:00       25.450       18.665       -5.360       18.881       10.519        7.999      356.490      110.649       63.977        0.078        0.027       31.561        8.283        0.069      338.953       11.955      859.037
05/30/2013  02:45:00       28.883       17.638        3.223        9.941        5.821        9.721       98.830       33.884       94.490        0.069        0.011       33.843        4.315        0.016      338.896       11.856      859.054
05/30/2013  02:46:00       43.737       20.630        6.010       10.653        9.760       14.236      113.497       95.253      202.653        0.139        0.021       48.358        6.484        0.018      338.901       11.868      859.076
05/30/2013  02:47:00       50.879       13.388        3.209        9.761        8.829        8.370       95.268       77.954       70.051        0.151        0.012       52.611        5.683        0.012      338.865       11.803      859.084
05/30/2013  02:48:00       40.302       26.602       22.042       13.498       17.679       20.101      182.198      312.533      404.057        0.186        0.045       48.290       15.948        0.109      338.729       11.579      859.071
05/30/2013  02:49:00       11.808       36.518       36.328       22.848       20.747       21.722      522.024      430.442      471.833        0.211        0.071       38.379       18.280        0.227      338.776       11.657      859.054
05/30/2013  02:50:00       -2.323       47.486       75.897       21.946       28.388       23.339      481.614      805.905      544.711        0.493        0.092       47.543       21.432        0.203      338.773       11.651      859.038
05/30/2013  02:51:00        9.534       49.738       63.638       25.225       23.649       14.888      636.276      559.299      221.651        0.402        0.071       50.644       13.051        0.066      338.775       11.656      859.033
05/30/2013  02:52:00       32.506       68.918       59.681       28.706       22.140       22.425      824.042      490.197      502.862        0.559        0.091       76.199       13.688        0.032      338.772       11.650      859.030
05/30/2013  02:53:00       73.893       49.289       40.150       42.682       28.866       39.964     1821.782      833.263     1597.084        0.688        0.213       88.823       28.520        0.103      338.941       11.935      859.032
05/30/2013  02:54:00       30.150       19.224       29.276       40.791       19.593       16.292     1663.883      383.884      265.418        0.222        0.116       35.758       15.163        0.180      338.906       11.876      859.060
05/30/2013  02:55:00       15.501       25.123       15.220       24.419       19.563       14.602      596.286      382.706      213.213        0.115        0.060       29.520       13.861        0.220      338.930       11.916      859.109
05/30/2013  02:56:00       47.647       46.601       18.486       14.156       16.337       14.795      200.388      266.899      218.891        0.273        0.034       66.647        9.833        0.022      338.905       11.874      859.139
05/30/2013  02:57:00       71.982       54.963        7.665       44.326       26.466       22.761     1964.799      700.465      518.072        0.572        0.159       90.567       13.437        0.022      338.708       11.543      859.148
05/30/2013  02:58:00       14.303      123.170       -4.964       33.478       91.984       24.924     1120.789     8461.141      621.215        1.280        0.510      123.998       32.889        0.070      338.787       11.675      859.146
05/30/2013  02:59:00       20.829      177.942      -16.621       30.705       61.834       28.109      942.811     3823.462      790.101        1.896        0.278      179.157       28.147        0.025      338.974       11.989      859.147
05/30/2013  03:00:00        5.843      116.473       -8.424       30.092       67.431       31.832      905.503     4546.926     1013.289        1.007        0.323      116.619       33.623        0.083      338.906       11.875      859.155
05/30/2013  03:01:00       -5.888      209.954      -18.552       39.119       51.998       32.588     1530.268     2703.824     1061.990        2.488        0.265      210.037       29.779        0.020      338.895       11.854      859.167
05/30/2013  03:02:00       27.728      114.203      -12.809       38.303       53.153       33.005     1467.155     2825.191     1089.342        0.968        0.269      117.521       28.803        0.060      338.768       11.643      859.162
05/30/2013  03:03:00      -30.687      210.931      -27.317       50.332       49.374       24.256     2533.264     2437.770      588.332        2.587        0.278      213.152       10.360        0.002      338.843       11.769      859.162
05/30/2013  03:04:00      -37.195      138.017      -10.618       50.176       29.032       25.021     2517.622      842.860      626.047        1.227        0.199      142.941       18.838        0.017      338.713       11.552      859.157
05/30/2013  03:05:00       -8.335      118.502      -15.566       42.981       88.949       27.889     1847.348     7911.900      777.776        1.244        0.527      118.795       40.001        0.113      338.732       11.583      859.152
05/30/2013  03:06:00       37.074       88.960       -0.953       43.076       62.771       36.459     1855.501     3940.178     1329.225        0.821        0.356       96.376       31.173        0.105      338.701       11.532      859.140
05/30/2013  03:07:00       95.616       63.136       -0.444       24.320       30.554       23.331      591.453      933.559      544.343        0.760        0.103      114.580       17.576        0.024      338.686       11.505      859.101
05/30/2013  03:08:00       48.580       66.518        5.363       45.496       36.933       29.574     2069.889     1364.075      874.611        0.556        0.215       82.369       24.782        0.091      338.644       11.436      859.102
05/30/2013  03:09:00       14.980      145.953      -18.731       35.580       57.340       31.311     1265.969     3287.918      980.360        1.370        0.277      146.720       28.648        0.038      338.616       11.387      859.120
05/30/2013  03:10:00      -12.725      228.965      -34.521       44.728       51.402       21.934     2000.611     2642.169      481.095        2.945        0.256      229.318       17.498        0.006      338.656       11.452      859.141
05/30/2013  03:11:00       18.519      261.546      -38.777       35.395       52.435       20.338     1252.823     2749.451      413.648        3.733        0.221      262.200       18.862        0.005      338.697       11.519      859.149
05/30/2013  03:12:00       10.178      276.761      -38.329       58.844       67.571       38.628     3462.627     4565.828     1492.109        4.384        0.476      276.948       41.642        0.023      338.754       11.616      859.155
05/30/2013  03:13:00        9.835      147.872       -5.329       46.467       76.840       41.659     2159.221     5904.386     1735.502        1.589        0.490      148.199       39.847        0.072      338.722       11.565      859.176
05/30/2013  03:14:00      -11.032      146.622      -13.191       37.034       52.314       30.259     1371.540     2736.729      915.606        1.341        0.251      147.036       27.353        0.035      338.687       11.507      859.197
05/30/2013  03:15:00      -60.417      125.605      -12.846       39.144       37.536       17.993     1532.259     1408.962      323.733        1.143        0.163      139.380       17.114        0.015      338.940       11.933      859.208
05/30/2013  03:16:00      -56.252       42.990       -6.858       36.068       50.172       19.563     1300.934     2517.247      382.727        0.463        0.210       70.798       12.632        0.032      338.879       11.831      859.212
05/30/2013  03:17:00       35.625       48.780        4.379       43.058       59.929       35.342     1853.982     3591.494     1249.087        0.518        0.335       60.404       40.514        0.450      338.746       11.607      859.213
05/30/2013  03:18:00      -16.600      168.585      -13.877       56.542       57.094       31.812     3196.965     3259.781     1012.031        1.818        0.373      169.400       20.644        0.015      338.615       11.385      859.215
05/30/2013  03:19:00      -71.901      221.482      -28.611       48.815       64.537       36.545     2382.952     4165.049     1335.542        3.146        0.394      232.861       30.743        0.017      338.588       11.338      859.215
05/30/2013  03:20:00      -75.754      161.575      -27.611       46.235       66.952       36.037     2137.658     4482.588     1298.656        2.026        0.396      178.452       38.434        0.046      338.615       11.385      859.226
05/30/2013  03:21:00     -142.996       64.411      -17.977       47.633       45.100       30.329     2268.950     2033.979      919.820        1.507        0.261      156.833       21.672        0.019      338.560       11.294      859.250
05/30/2013  03:22:00     -114.334        2.949      -13.063       33.946       26.488       16.414     1152.316      701.629      269.421        0.769        0.106      114.372        4.150        0.001      338.530       11.244      859.254
05/30/2013  03:23:00      -16.818       14.461        4.371       18.366       23.687       14.458      337.325      561.057      209.023        0.081        0.055       22.181       15.240        0.472      338.514       11.219      859.239
05/30/2013  03:24:00      -21.664        1.037        4.235       13.262       15.997       18.058      175.870      255.912      326.102        0.062        0.038       21.688        9.542        0.194      338.741       11.597      859.233
05/30/2013  03:25:00      -10.028       36.475       12.294       14.621       29.570       19.951      213.785      874.413      398.023        0.153        0.074       37.829       16.455        0.189      338.581       11.329      859.216
05/30/2013  03:26:00      -89.450       89.018      -19.663       40.691       33.393       23.945     1655.724     1115.069      573.385        0.983        0.167      126.197       21.385        0.029      338.674       11.486      859.224
05/30/2013  03:27:00      -90.631       79.126      -18.102       33.056       37.560       24.520     1092.693     1410.729      601.229        0.895        0.155      120.312       25.934        0.046      338.691       11.517      859.216
05/30/2013  03:28:00      -75.679       37.240      -15.547       41.454       35.368       14.929     1718.421     1250.870      222.864        0.527        0.160       84.346        5.279        0.004      338.705       11.538      859.223
05/30/2013  03:29:00     -118.704       27.116      -15.309       39.578       27.341       20.360     1566.411      747.556      414.535        0.889        0.136      121.762       10.812        0.008      338.697       11.525      859.239
05/30/2013  03:30:00      -65.265        0.931       -2.903       35.911       25.631       24.891     1289.601      656.924      619.576        0.342        0.128       65.272       21.830        0.112      338.621       11.396      859.257
05/30/2013  03:31:00     -114.260       43.130      -17.208       31.024       34.656       26.096      962.462     1201.046      681.004        0.903        0.142      122.130       15.853        0.017      338.691       11.513      859.268
05/30/2013  03:32:00      -75.164       36.868      -14.318       44.133       51.627       20.535     1947.695     2665.344      421.686        0.612        0.252       83.719       12.338        0.022      338.698       11.526      859.280
05/30/2013  03:33:00      -93.269       24.302      -19.222       41.133       39.397       19.797     1691.908     1552.107      391.906        0.665        0.182       96.383       16.211        0.028      338.675       11.487      859.309
05/30/2013  03:34:00     -139.888       31.208      -15.362       28.988       27.418       20.235      840.281      751.739      409.448        1.139        0.100      143.326       14.897        0.011      338.531       11.247      859.340
05/30/2013  03:35:00      -94.234        9.686      -11.524       25.004       21.776       18.402      625.200      474.206      338.635        0.527        0.072       94.730       16.806        0.031      338.456       11.120      859.357
05/30/2013  03:36:00      -29.434       34.614       -8.023       27.640       27.178       16.243      763.953      738.667      263.823        0.195        0.088       45.437       10.077        0.049      338.491       11.177      859.357
05/30/2013  03:37:00      -41.553       61.951       -4.464       41.187       52.020       26.071     1696.377     2706.089      679.706        0.533        0.254       74.596       30.635        0.169      338.537       11.255      859.360
05/30/2013  03:38:00      -32.973      109.038       -1.075       20.382       60.580       26.302      415.438     3669.915      691.780        0.888        0.239      113.914       28.185        0.061      338.593       11.349      859.379
05/30/2013  03:39:00      -66.273       55.356      -15.898       26.576       29.909       25.081      706.296      894.521      629.049        0.497        0.111       86.350       19.469        0.051      338.615       11.388      859.400
05/30/2013  03:40:00      -57.261        0.652       -5.730       32.375       37.991       21.173     1048.128     1443.281      448.297        0.313        0.147       57.264        6.924        0.015      338.609       11.376      859.412
05/30/2013  03:41:00      -28.529       13.092      -12.123       23.360       48.765       22.206      545.708     2378.032      493.128        0.227        0.171       31.390       21.529        0.470      338.609       11.375      859.383
05/30/2013  03:42:00      -50.807       16.227       -4.001       26.577       24.489       12.846      706.339      599.725      165.026        0.217        0.074       53.335       10.322        0.037      338.584       11.335      859.372
05/30/2013  03:43:00      -75.795      -23.113       -7.027       50.338       44.976       27.036     2533.897     2022.869      730.955        0.581        0.264       79.241       31.061        0.154      338.510       11.212      859.371
05/30/2013  03:44:00      -43.466       -8.966       -3.472       45.111       26.001       17.013     2034.971      676.074      289.429        0.249        0.150       44.381       13.176        0.088      338.510       11.211      859.384
05/30/2013  03:45:00        9.417      -15.944       17.099       22.808       34.229       17.125      520.191     1171.616      293.271        0.131        0.099       18.517       20.630        1.241      338.469       11.140      859.380
05/30/2013  03:46:00       24.046       67.610      -10.171       35.174       25.098       21.922     1237.195      629.919      480.570        0.380        0.117       71.759       16.565        0.053      338.639       11.429      859.370
05/30/2013  03:47:00      -16.519       88.030      -12.713       36.788       58.663       29.398     1353.323     3441.349      864.253        0.692        0.283       89.566       37.496        0.175      338.576       11.321      859.380
05/30/2013  03:48:00     -102.305       -0.378      -10.001       36.324       41.049       22.385     1319.440     1685.042      501.092        0.704        0.175      102.306       11.699        0.013      338.525       11.238      859.408
05/30/2013  03:49:00      -58.675      -49.877       -0.512       48.910       30.861       17.203     2392.233      952.372      295.939        0.479        0.182       77.010        9.476        0.015      338.452       11.113      859.410
05/30/2013  03:50:00      -40.665        4.704        0.644       15.674       16.422       14.493      245.676      269.683      210.053        0.120        0.036       40.937        6.145        0.023      338.430       11.076      859.394
05/30/2013  03:51:00       -5.794        1.121        7.450       22.853       10.265        8.054      522.264      105.361       64.871        0.039        0.035        5.902        7.030        1.419      338.413       11.049      859.415
05/30/2013  03:52:00       -8.505       38.474       -1.767       33.952       19.769       18.792     1152.731      390.797      353.142        0.173        0.095       39.402       14.240        0.131      338.459       11.126      859.421
05/30/2013  03:53:00      -10.633       16.087        3.049       11.024        9.455        8.359      121.539       89.397       69.878        0.033        0.014       19.284        3.579        0.034      338.449       11.107      859.440
05/30/2013  03:54:00        2.483        8.288        5.904        9.635        8.470        9.861       92.824       71.749       97.248        0.019        0.013        8.652        9.206        1.132      338.400       11.025      859.463
05/30/2013  03:55:00      -71.813      -45.155        3.890       37.075       29.023       21.111     1374.560      842.336      445.685        0.494        0.133       84.830       12.413        0.021      338.366       10.968      859.493
05/30/2013  03:56:00     -123.790      -74.786       -8.234       40.615       24.030       19.075     1649.553      577.431      363.855        1.179        0.130      144.626       14.179        0.010      338.264       10.798      859.514
05/30/2013  03:57:00       -1.190     -104.218       15.761       45.170       35.380       32.204     2040.332     1251.757     1037.099        0.772        0.216      104.225       27.118        0.068      338.543       11.266      859.518
05/30/2013  03:58:00       16.987      -21.091       43.752       28.171       25.025       20.118      793.601      626.266      404.723        0.224        0.091       27.081       12.074        0.199      338.620       11.394      859.500
05/30/2013  03:59:00      -40.514       -0.469       16.861       32.274       22.146       18.984     1041.596      490.439      360.382        0.191        0.095       40.517       21.126        0.272      338.487       11.173      859.487
05/30/2013  04:00:00      -56.997       -0.422       -1.429       14.921       22.686       16.827      222.630      514.635      283.143        0.214        0.051       56.999        2.595        0.002      338.483       11.165      859.494
05/30/2013  04:01:00      -68.380      -15.895       -4.407       21.040       28.114       12.619      442.682      790.420      159.251        0.317        0.070       70.204        7.989        0.013      338.291       10.843      859.488
05/30/2013  04:02:00       -6.396      -42.266       -4.190       34.616       13.254        9.953     1198.235      175.682       99.064        0.166        0.074       42.747        6.818        0.025      338.395       11.019      859.462
05/30/2013  04:03:00       -0.940      -21.734       -1.926       18.865       16.370       13.132      355.887      267.966      172.449        0.064        0.040       21.754       12.631        0.337      338.468       11.142      859.440
05/30/2013  04:04:00      -27.819      -17.579        4.829       34.397       20.193       13.154     1183.173      407.746      173.040        0.143        0.088       32.908       15.522        0.222      338.357       10.954      859.429
05/30/2013  04:05:00      -28.337      -11.181        4.511       44.420       16.722       12.038     1973.162      279.614      144.925        0.167        0.120       30.463       19.209        0.398      338.339       10.923      859.448
05/30/2013  04:06:00      -50.136      -13.366        0.665       26.189       22.421       14.266      685.873      502.691      203.513        0.204        0.070       51.887       10.960        0.045      338.191       10.676      859.470
05/30/2013  04:07:00      -40.091       -4.364       -3.701       21.320       15.391       11.049      454.524      236.874      122.081        0.123        0.041       40.328        8.845        0.048      338.092       10.510      859.474
05/30/2013  04:08:00      -12.201      -44.418       -2.808       16.980       20.064       10.564      288.324      402.563      111.593        0.147        0.040       46.063        9.852        0.046      338.437       11.088      859.474
05/30/2013  04:09:00      -25.345      -30.090       -0.694       11.113       13.783       10.812      123.491      189.974      116.895        0.099        0.022       39.342        6.955        0.031      338.580       11.327      859.495
05/30/2013  04:10:00      -67.192      -23.527       -5.400       32.947       12.915       10.577     1085.487      166.803      111.873        0.323        0.068       71.192       12.078        0.029      338.294       10.849      859.518
05/30/2013  04:11:00      -91.838      -54.021       -8.984       46.875       25.344       20.783     2197.251      642.329      431.950        0.735        0.164      106.548       12.348        0.013      338.150       10.606      859.522
05/30/2013  04:12:00      -51.077      -57.068        1.663       44.644       36.574       18.040     1993.059     1337.646      325.426        0.476        0.183       76.587       15.013        0.038      338.083       10.493      859.513
05/30/2013  04:13:00      -80.474      -69.605       -1.170       28.856       30.159       17.254      832.644      909.576      297.685        0.668        0.102      106.400       14.543        0.019      338.175       10.646      859.496
05/30/2013  04:14:00      -99.369      -56.255       -6.371       32.898       19.451       16.400     1082.270      378.349      268.947        0.740        0.086      114.187       15.931        0.019      338.239       10.756      859.477
05/30/2013  04:15:00      -51.408      -31.545        1.036       25.330       15.572       12.981      641.622      242.477      168.506        0.235        0.053       60.315       15.093        0.063      338.122       10.560      859.462
05/30/2013  04:16:00      -44.361      -34.422        1.074       19.645       14.346       13.741      385.938      205.819      188.816        0.197        0.039       56.149       10.592        0.036      338.264       10.798      859.451
05/30/2013  04:17:00      -58.243      -51.765       -1.616       17.810       17.457       11.223      317.199      304.760      125.966        0.341        0.037       77.923       10.530        0.018      338.278       10.821      859.450
05/30/2013  04:18:00      -55.881      -49.274       -3.034       22.942       14.437        9.877      526.352      208.415       97.562        0.320        0.042       74.503        7.832        0.011      338.301       10.861      859.444
05/30/2013  04:19:00      -62.746      -13.184       -3.738       29.053       19.676       14.315      844.056      387.146      204.933        0.278        0.072       64.116       15.352        0.057      338.157       10.618      859.436
05/30/2013  04:20:00     -100.603        0.033      -10.650       19.797       16.467        7.816      391.924      271.163       61.084        0.548        0.036      100.603        4.127        0.002      338.079       10.487      859.429
05/30/2013  04:21:00      -82.201      -25.918       -6.940       22.637       17.700       11.139      512.453      313.296      124.083        0.421        0.047       86.190       10.924        0.016      338.062       10.458      859.430
05/30/2013  04:22:00      -75.236      -40.222       -2.862       23.730       12.108       10.762      563.099      146.597      115.816        0.406        0.041       85.313       12.907        0.023      338.098       10.519      859.437
05/30/2013  04:23:00       -9.786      -19.262        7.307       19.767       17.080       12.400      390.730      291.714      153.762        0.068        0.042       21.606        8.172        0.143      338.087       10.502      859.443
05/30/2013  04:24:00      -34.694      -21.877        9.052       40.374       17.941       12.654     1630.020      321.890      160.116        0.194        0.106       41.015       16.441        0.161      338.118       10.552      859.458
05/30/2013  04:25:00      -51.288      -17.233        3.586       21.828       16.623       14.944      476.453      276.328      223.315        0.196        0.049       54.106       11.996        0.049      338.018       10.385      859.475
05/30/2013  04:26:00      -97.484      -20.676       -9.656       36.798       25.142       14.642     1354.107      632.120      214.393        0.611        0.110       99.653       17.397        0.030      337.758        9.947      859.489
05/30/2013  04:27:00      -74.694       -8.810        1.574       35.724       30.071       17.748     1276.182      904.252      314.979        0.408        0.125       75.212       19.067        0.064      337.551        9.601      859.507
05/30/2013  04:28:00      -65.368      -17.528        3.340       38.188       23.303       19.849     1458.309      543.015      393.999        0.349        0.120       67.677       19.692        0.085      337.489        9.497      859.515
05/30/2013  04:29:00      -82.326      -32.786       -2.141       33.205       23.848       17.014     1102.567      568.736      289.472        0.491        0.098       88.614       14.285        0.026      337.556        9.609      859.520
05/30/2013  04:30:00     -103.359      -40.104      -10.525       26.376       14.005       13.502      695.718      196.147      182.305        0.674        0.054      110.867        4.951        0.002      337.656        9.778      859.525
05/30/2013  04:31:00     -102.457      -55.031       -2.384       23.213       22.690       15.365      538.848      514.815      236.098        0.741        0.064      116.301       13.406        0.013      337.681        9.820      859.539
05/30/2013  04:32:00      -83.741      -67.899       -4.901       20.982       14.519       13.099      440.261      210.811      171.574        0.623        0.041      107.810        4.314        0.002      337.741        9.920      859.538
05/30/2013  04:33:00      -34.071      -47.325       -1.308       31.853       27.145       13.583     1014.594      736.860      184.506        0.267        0.097       58.314       11.895        0.042      337.840       10.087      859.533
05/30/2013  04:34:00      -88.544     -106.263        4.090       35.853       29.568       29.576     1285.447      874.262      874.767        1.109        0.152      138.318       25.199        0.033      338.025       10.397      859.529
05/30/2013  04:35:00      -71.009      -68.837       -0.985       36.729       35.677       24.206     1349.042     1272.871      585.937        0.649        0.160       98.898       15.025        0.023      337.961       10.289      859.534
05/30/2013  04:36:00      -69.177      -68.846       -3.903       44.977       30.847       23.569     2022.924      951.545      555.501        0.653        0.176       97.598       18.688        0.037      337.984       10.328      859.556
05/30/2013  04:37:00      -98.506      -69.574        1.045       55.757       40.385       25.678     3108.883     1630.961      659.349        0.997        0.270      120.598       24.022        0.040      337.928       10.235      859.595
05/30/2013  04:38:00     -104.283      -89.551        3.332       53.723       49.249       31.987     2886.208     2425.498     1023.167        1.262        0.317      137.457       33.982        0.061      337.865       10.129      859.619
05/30/2013  04:39:00      -73.736      -74.278        1.860       32.209       22.735       24.025     1037.425      516.893      577.181        0.654        0.107      104.663       18.946        0.033      337.839       10.085      859.636
05/30/2013  04:40:00      -73.177      -34.243       -2.740       42.872       21.656       18.921     1837.970      468.994      358.007        0.460        0.133       80.792       17.593        0.047      337.804       10.025      859.649
05/30/2013  04:41:00      -47.759      -32.956        0.096       41.259       22.482       17.694     1702.323      505.447      313.069        0.294        0.126       58.026        9.865        0.029      337.685        9.826      859.658
05/30/2013  04:42:00      -31.758      -30.930        6.997       47.175       19.056       16.143     2225.434      363.137      260.587        0.243        0.142       44.331       20.363        0.211      337.669        9.799      859.675
05/30/2013  04:43:00      -70.170     -100.703       -4.173       34.943       45.845       20.876     1220.980     2101.771      435.797        0.942        0.188      122.740       19.324        0.025      337.818       10.048      859.684
05/30/2013  04:44:00      -42.911      -84.904       -1.844       31.167       36.711       17.884      971.387     1347.713      319.822        0.585        0.132       95.131       16.528        0.030      337.814       10.041      859.687
05/30/2013  04:45:00      -14.065      -29.235       14.454       27.345       24.430       17.265      747.744      596.826      298.091        0.145        0.082       32.442       14.267        0.193      337.790       10.004      859.701
05/30/2013  04:46:00       18.140      -38.593       15.247       33.994       39.007       27.689     1155.585     1521.575      766.699        0.275        0.172       42.644       30.400        0.508      337.839       10.085      859.706
05/30/2013  04:47:00        3.096       -4.456       11.734       13.074       13.140        8.640      170.923      172.665       74.642        0.029        0.021        5.426        5.957        1.205      337.723        9.890      859.706
05/30/2013  04:48:00       -5.261        2.094       11.122       21.045       11.142        7.200      442.889      124.140       51.833        0.039        0.031        5.663        9.021        2.538      337.666        9.794      859.708
05/30/2013  04:49:00      -71.091        8.663       -2.190       24.046       16.270       11.884      578.221      264.728      141.237        0.306        0.049       71.617        9.114        0.016      337.578        9.646      859.711
05/30/2013  04:50:00      -85.774       -8.872       -8.281       17.331       18.517       12.554      300.375      342.867      157.591        0.415        0.040       86.231        3.739        0.002      337.447        9.427      859.724
05/30/2013  04:51:00      -67.485      -15.854       -4.399       23.395       22.391       13.509      547.311      501.343      182.505        0.303        0.062       69.323       10.395        0.022      337.323        9.219      859.718
05/30/2013  04:52:00      -78.731      -17.138       -3.840       29.545       15.183       20.908      872.885      230.538      437.152        0.402        0.077       80.575       21.370        0.070      337.348        9.262      859.703
05/30/2013  04:53:00      -95.953      -28.241       -5.425       25.857       22.184       16.625      668.605      492.144      276.390        0.574        0.072      100.022       12.703        0.016      337.333        9.235      859.690
05/30/2013  04:54:00     -105.278      -19.025       -4.231       28.570       23.437       18.061      816.269      549.272      326.207        0.658        0.085      106.983       16.084        0.023      337.266        9.123      859.705
05/30/2013  04:55:00     -106.844      -35.843        1.471       26.409       35.166       18.283      697.415     1236.667      334.251        0.749        0.113      112.696       13.984        0.015      337.176        8.974      859.721
05/30/2013  04:56:00     -107.322      -26.842       -7.762       35.892       34.446       20.359     1288.207     1186.518      414.498        0.759        0.144      110.627       17.004        0.024      337.076        8.805      859.738
05/30/2013  04:57:00      -92.210      -31.216       -1.825       38.115       28.894       20.295     1452.766      834.867      411.900        0.609        0.135       97.350       20.682        0.045      337.071        8.797      859.754
05/30/2013  04:58:00      -95.707      -28.331       -4.740       42.604       26.492       20.248     1815.130      701.826      409.996        0.646        0.146       99.812       18.329        0.034      337.155        8.937      859.778
05/30/2013  04:59:00     -120.769      -32.092       -2.103       46.975       26.332       17.294     2206.624      693.395      299.070        0.941        0.160      124.960       15.906        0.016      337.215        9.039      859.799
05/30/2013  05:00:00     -105.671      -37.794       -7.937       33.776       25.105       15.575     1140.809      630.282      242.587        0.734        0.101      112.226       11.677        0.011      337.215        9.038      859.824
05/30/2013  05:01:00      -89.216      -28.508       -4.184       24.483       19.665       15.106      599.411      386.708      228.198        0.500        0.061       93.660        8.841        0.009      337.260        9.114      859.845
05/30/2013  05:02:00      -85.236      -24.736        1.926       31.559       20.932       18.246      995.951      438.165      332.913        0.482        0.088       88.753       17.488        0.039      337.236        9.075      859.870
05/30/2013  05:03:00     -118.154      -34.444       -5.920       27.512       20.781       12.876      756.893      431.834      165.782        0.827        0.068      123.072       10.959        0.008      337.314        9.204      859.878
05/30/2013  05:04:00     -118.675      -55.992       -4.681       23.480       18.695       14.089      551.318      349.489      198.502        0.917        0.055      131.221       12.367        0.009      337.360        9.281      859.870
05/30/2013  05:05:00      -89.969      -65.977        2.964       27.262       30.103       21.267      743.228      906.221      452.304        0.728        0.105      111.568       16.712        0.022      337.448        9.430      859.860
05/30/2013  05:06:00      -64.436      -41.985        6.270       32.503       28.258       18.640     1056.413      798.502      347.445        0.408        0.110       76.907       14.692        0.036      337.471        9.468      859.867
05/30/2013  05:07:00      -37.931      -39.948        6.269       33.007       25.903       18.545     1089.442      670.954      343.928        0.259        0.105       55.087       17.457        0.100      337.524        9.556      859.855
05/30/2013  05:08:00      -69.675      -78.369        5.444       36.864       37.480       23.354     1358.949     1404.725      545.402        0.717        0.165      104.863       23.700        0.051      337.648        9.764      859.842
05/30/2013  05:09:00      -70.157      -75.175        1.392       32.803       33.065       19.080     1076.062     1093.299      364.047        0.655        0.127      102.826       16.549        0.026      337.828       10.066      859.835
05/30/2013  05:10:00      -67.641      -59.658       -4.536       41.063       29.152       19.769     1686.167      849.868      390.820        0.554        0.146       90.191       21.078        0.055      337.906       10.197      859.841
05/30/2013  05:11:00      -43.643      -46.988        8.682       28.951       25.328       16.350      838.145      641.490      267.309        0.297        0.087       64.130        9.608        0.022      337.793       10.008      859.845
05/30/2013  05:12:00      -54.339      -38.246       -1.536       24.308       18.829       13.951      590.888      354.515      194.620        0.278        0.057       66.449        7.198        0.012      337.803       10.022      859.850
05/30/2013  05:13:00      -34.117      -62.083       -1.640       49.738       24.926       16.909     2473.837      621.295      285.931        0.420        0.169       70.840       10.466        0.022      337.671        9.802      859.865
05/30/2013  05:14:00        4.819      -72.673        0.977       31.050       23.398       22.121      964.074      547.478      489.339        0.365        0.100       72.832       16.318        0.050      337.863       10.125      859.881
05/30/2013  05:15:00       14.323      -50.245        6.144       32.078       34.547       18.589     1028.987     1193.526      345.537        0.267        0.128       52.247       21.106        0.163      337.910       10.204      859.901
05/30/2013  05:16:00       22.979       35.745       27.739       20.254       18.975       13.758      410.207      360.035      189.279        0.177        0.048       42.494        8.121        0.037      337.506        9.526      859.929
05/30/2013  05:17:00       83.434       34.196        6.996       53.584       25.118       26.873     2871.197      630.892      722.175        0.620        0.211       90.170       22.819        0.064      337.210        9.030      859.950
05/30/2013  05:18:00       12.418       57.941       -9.735       25.807       16.097        8.538      666.000      259.112       72.898        0.230        0.050       59.257        6.499        0.012      337.117        8.874      859.936
05/30/2013  05:19:00      -33.388       37.434       -6.823       14.704       19.020        6.633      216.221      361.757       43.999        0.159        0.031       50.160        4.214        0.007      337.340        9.247      859.907
05/30/2013  05:20:00      -73.312      -17.027       -7.496       31.188       19.972       11.854      972.682      398.864      140.527        0.362        0.076       75.263       12.467        0.027      337.421        9.384      859.892
05/30/2013  05:21:00      -93.652        1.936      -10.730       14.845       14.101       12.655      220.372      198.838      160.143        0.473        0.029       93.672        8.286        0.008      337.438        9.414      859.907
05/30/2013  05:22:00      -91.607        6.516       -9.684       20.819       14.592       13.821      433.444      212.936      191.018        0.468        0.042       91.839       11.770        0.016      337.111        8.864      859.934
05/30/2013  05:23:00      -82.657      -14.735       -8.516       18.410        9.298        9.403      338.942       86.457       88.412        0.382        0.026       83.960       10.306        0.015      337.279        9.146      859.937
05/30/2013  05:24:00      -72.972      -32.883       -7.226       17.725        8.947        6.382      314.191       80.041       40.730        0.345        0.022       80.039        6.016        0.006      337.417        9.377      859.932
05/30/2013  05:25:00      -98.250      -41.894       -6.369       12.645       12.201        8.611      159.884      148.858       74.158        0.592        0.019      106.809        8.293        0.006      337.376        9.309      859.936
05/30/2013  05:26:00      -89.798      -29.333       -5.797       24.205       12.220       14.353      585.896      149.335      206.019        0.495        0.047       94.468       14.350        0.023      337.318        9.212      859.941
05/30/2013  05:27:00      -70.184       -3.170       -3.893       16.176       15.294       12.273      261.650      233.916      150.638        0.280        0.032       70.256        7.384        0.011      337.356        9.276      859.940
05/30/2013  05:28:00      -84.363      -14.441      -10.346       32.528       16.898       15.306     1058.091      285.529      234.286        0.451        0.079       85.590       12.846        0.023      337.213        9.037      859.944
05/30/2013  05:29:00     -116.099       -7.873      -14.093       22.855       31.029       13.662      522.349      962.789      186.661        0.771        0.084      116.365       12.508        0.012      337.164        8.951      859.951
05/30/2013  05:30:00      -74.245      -19.283       -2.250       13.703       18.212        9.708      187.766      331.659       94.247        0.325        0.031       76.708        5.435        0.005      337.206        9.024      859.964
05/30/2013  05:31:00      -45.860      -32.825       -5.331       12.584       13.964        7.469      158.350      195.006       55.784        0.181        0.020       56.397        6.047        0.011      337.157        8.942      859.973
05/30/2013  05:32:00      -70.646      -47.705       -7.207       17.320       12.555        8.852      299.992      157.636       78.355        0.393        0.027       85.245        8.059        0.009      337.287        9.159      859.991
05/30/2013  05:33:00      -47.642      -36.686       -1.496       23.332       19.718       15.748      544.394      388.810      248.015        0.240        0.059       60.130       14.176        0.056      337.286        9.158      860.017
05/30/2013  05:34:00      -67.999      -20.466       -4.006       11.519       13.670        7.007      132.691      186.875       49.092        0.271        0.018       71.013        5.919        0.007      337.336        9.241      860.039
05/30/2013  05:35:00      -46.431      -13.766       -7.016       12.384       12.730        8.964      153.356      162.052       80.348        0.140        0.020       48.429        6.409        0.018      337.333        9.234      860.055
05/30/2013  05:36:00      -18.532      -17.093        6.310       26.133       15.800       13.780      682.927      249.645      189.876        0.090        0.056       25.211       13.859        0.302      337.295        9.172      860.073
05/30/2013  05:37:00      -82.993      -33.189       -5.473       12.486       13.131       10.027      155.903      172.433      100.537        0.422        0.021       89.384        6.615        0.005      337.281        9.150      860.075
05/30/2013  05:38:00     -100.768      -31.822       -3.134       32.740       25.130       17.533     1071.898      631.536      307.396        0.659        0.101      105.673       18.611        0.031      337.155        8.937      860.071
05/30/2013  05:39:00      -60.110       10.247       -7.752       37.536       28.764       16.096     1408.962      827.346      259.096        0.314        0.125       60.978       12.218        0.040      336.881        8.480      860.070
05/30/2013  05:40:00      -59.361       -8.339      -10.335       22.043       30.840       15.506      485.873      951.095      240.447        0.269        0.084       59.943       10.597        0.031      336.870        8.462      860.078
05/30/2013  05:41:00      -40.578      -28.142        0.589       34.956       24.726       14.177     1221.956      611.371      200.990        0.224        0.102       49.382       18.021        0.133      337.012        8.698      860.085
05/30/2013  05:42:00      -14.625      -34.194       13.336       26.599       22.022       15.569      707.489      484.950      242.404        0.150        0.072       37.190       15.166        0.166      337.220        9.048      860.078
05/30/2013  05:43:00      -14.633      -25.893        7.559       24.187       13.807       11.386      584.999      190.620      129.636        0.092        0.045       29.742        9.164        0.095      337.261        9.116      860.067
05/30/2013  05:44:00      -20.754      -11.792        2.712       22.147       17.336       10.882      490.469      300.531      118.427        0.074        0.045       23.870        8.798        0.136      337.270        9.132      860.049
05/30/2013  05:45:00        9.431       -6.735        7.433       18.432       23.785       14.046      339.740      565.748      197.280        0.065        0.055       11.589       10.899        0.885      337.268        9.128      860.032
05/30/2013  05:46:00        6.726       39.677       14.094       18.447       10.953       15.458      340.278      119.965      238.935        0.126        0.035       40.243        7.310        0.033      337.241        9.083      860.021
05/30/2013  05:47:00      -27.766       41.031       -1.212       15.585       11.843       14.359      242.900      140.257      206.185        0.152        0.029       49.543        8.726        0.031      337.237        9.076      860.031
05/30/2013  05:48:00      -61.529        5.027        0.565       50.980       24.659       14.155     2598.978      608.082      200.377        0.361        0.170       61.734       23.160        0.141      337.110        8.862      860.047
05/30/2013  05:49:00     -110.891      -38.691       -3.566       40.388       24.885       20.885     1631.176      619.260      436.181        0.825        0.134      117.447       15.069        0.016      336.979        8.643      860.059
05/30/2013  05:50:00      -65.582      -26.330      -10.850       12.531       21.589       12.904      157.022      466.080      166.518        0.295        0.039       70.670        9.851        0.019      337.029        8.726      860.068
05/30/2013  05:51:00      -33.793      -44.884      -11.464       22.332       30.004       15.257      498.728      900.216      232.788        0.246        0.082       56.183        8.587        0.023      337.121        8.881      860.065
05/30/2013  05:52:00      -32.764      -25.019        5.765       35.560       25.839       18.911     1264.526      667.669      357.632        0.201        0.114       41.224       13.381        0.105      337.152        8.933      860.045
05/30/2013  05:53:00      -42.422      -63.253       -4.763       28.343       21.190       14.430      803.313      449.031      208.237        0.364        0.073       76.161        9.488        0.016      337.199        9.012      860.040
05/30/2013  05:54:00      -65.842      -82.229        3.726       50.974       43.668       24.033     2598.344     1906.921      577.593        0.810        0.254      105.341       24.184        0.053      337.126        8.888      860.032
05/30/2013  05:55:00      -78.672     -102.539        0.126       55.150       41.985       33.660     3041.517     1762.721     1132.981        1.132        0.297      129.243       24.851        0.037      337.142        8.915      860.023
05/30/2013  05:56:00      -48.783      -78.957        4.140       32.380       53.816       24.912     1048.450     2896.118      620.610        0.660        0.228       92.812       22.827        0.060      337.134        8.903      860.015
05/30/2013  05:57:00      -45.516      -79.660        0.265       36.552       30.904       20.109     1336.024      955.035      404.379        0.556        0.135       91.747       18.447        0.040      337.243        9.086      860.015
05/30/2013  05:58:00      -94.771      -44.957       -6.465       32.722       39.836       18.359     1070.725     1586.942      337.038        0.702        0.150      104.894       15.173        0.021      337.200        9.014      860.033
05/30/2013  05:59:00      -40.906      -22.157        4.662       25.575       28.605       16.897      654.066      818.233      285.496        0.197        0.088       46.521       15.042        0.105      337.139        8.912      860.069
05/30/2013  06:00:00      -86.552      -18.064       -2.847       38.252       29.751       21.550     1463.217      885.124      464.412        0.532        0.141       88.417       18.879        0.046      336.996        8.670      860.097
05/30/2013  06:01:00     -110.245      -20.169       -6.370       38.759       27.772       19.188     1502.223      771.309      368.162        0.762        0.132      112.074       18.892        0.028      336.971        8.629      860.124
05/30/2013  06:02:00     -102.448      -21.926       -1.010       39.596       28.596       19.358     1567.813      817.739      374.729        0.687        0.138      104.769       13.544        0.017      336.954        8.601      860.138
05/30/2013  06:03:00     -140.899      -59.576       -1.385       20.948       27.105       16.701      438.808      734.704      278.916        1.243        0.073      152.976        8.600        0.003      336.978        8.642      860.152
05/30/2013  06:04:00      -89.035      -79.139        1.375       35.833       28.405       23.360     1284.016      806.869      545.671        0.841        0.132      119.122       21.410        0.032      337.069        8.793      860.175
05/30/2013  06:05:00      -71.793      -81.274       -5.727       39.096       22.996       17.338     1528.533      528.836      300.611        0.707        0.118      108.442       10.331        0.009      337.108        8.858      860.185
05/30/2013  06:06:00     -100.737      -70.054       -2.856       49.843       39.046       27.398     2484.358     1524.604      750.630        0.991        0.238      122.701       25.798        0.044      337.098        8.843      860.201
05/30/2013  06:07:00     -100.289      -86.212       -8.679       38.460       27.050       22.296     1479.187      731.705      497.112        1.014        0.135      132.251       16.488        0.016      337.136        8.905      860.215
05/30/2013  06:08:00      -83.510      -77.084       -1.191       32.643       32.753       22.099     1065.550     1072.779      488.370        0.777        0.131      113.648       22.203        0.038      337.168        8.960      860.231
05/30/2013  06:09:00      -96.760      -73.040       -9.205       22.116       14.433       14.086      489.121      208.304      198.410        0.784        0.045      121.232       11.997        0.010      337.244        9.087      860.256
05/30/2013  06:10:00      -91.193      -64.016       -0.761       23.500       22.958       19.072      552.249      527.089      363.742        0.693        0.072      111.419       17.292        0.024      337.186        8.989      860.282
05/30/2013  06:11:00      -83.529      -61.171       -4.365       26.395       17.046       18.073      696.694      290.572      326.618        0.603        0.066      103.533       11.677        0.013      337.253        9.102      860.334
05/30/2013  06:12:00      -74.067      -51.077       -6.704       33.679       16.361       15.397     1134.274      267.668      237.056        0.489        0.082       89.971        7.804        0.008      337.245        9.088      860.379
05/30/2013  06:13:00      -31.126      -37.493        4.170       35.244       19.086       16.917     1242.116      364.279      286.184        0.214        0.095       48.730       17.677        0.132      337.307        9.193      860.399
05/30/2013  06:14:00      -82.575      -44.405        0.104       27.982       18.565       14.092      783.018      344.673      198.598        0.506        0.066       93.757       11.821        0.016      337.320        9.214      860.426
05/30/2013  06:15:00      -51.562      -23.556        1.277       36.287       24.524       17.309     1316.779      601.420      299.611        0.272        0.111       56.688       14.976        0.070      337.325        9.222      860.448
05/30/2013  06:16:00      -43.109      -62.373       -0.542       45.174       31.038       24.020     2040.668      963.335      576.959        0.466        0.179       75.821       27.693        0.133      337.365        9.290      860.463
05/30/2013  06:17:00      -81.386      -88.726      -11.446       35.750       30.447       20.562     1278.077      927.024      422.784        0.863        0.131      120.400       22.083        0.034      337.351        9.264      860.474
05/30/2013  06:18:00      -93.817      -99.691      -12.666       23.561       23.755       14.532      555.115      564.298      211.180        1.012        0.067      136.894       13.856        0.010      337.398        9.344      860.479
05/30/2013  06:19:00      -96.868      -66.478      -11.669       17.063       20.000       10.404      291.159      400.019      108.236        0.737        0.040      117.485        8.483        0.005      337.398        9.344      860.469
05/30/2013  06:20:00      -39.471      -42.109       -0.803       28.875       17.045       13.234      833.760      290.517      175.138        0.232        0.065       57.716        8.605        0.022      337.413        9.371      860.466
05/30/2013  06:21:00      -58.154      -33.212       -9.136       19.529       16.977       10.411      381.374      288.203      108.386        0.267        0.039       66.970        9.773        0.021      337.464        9.455      860.445
05/30/2013  06:22:00      -39.201      -35.196       -1.562       21.609       18.187       14.000      466.948      330.761      196.011        0.189        0.050       52.683       10.374        0.039      337.477        9.478      860.426
05/30/2013  06:23:00      -44.530      -10.275        0.459       14.171       12.756        9.507      200.807      162.720       90.374        0.127        0.023       45.700        8.239        0.033      337.477        9.478      860.403
05/30/2013  06:24:00      -27.673       -6.784        1.879       14.708       12.029        9.266      216.317      144.688       85.860        0.063        0.022       28.492        9.010        0.100      337.456        9.442      860.382
05/30/2013  06:25:00      -47.949      -13.882        2.759       21.578       17.053       11.625      465.619      290.821      135.145        0.170        0.045       49.918        9.743        0.038      337.439        9.414      860.381
05/30/2013  06:26:00      -52.647        2.260        1.443       16.334       16.703        9.815      266.795      278.980       96.339        0.171        0.032       52.696        6.544        0.015      337.393        9.335      860.377
05/30/2013  06:27:00      -23.261       11.972        5.195       13.498       11.104       13.224      182.207      123.305      174.871        0.060        0.024       26.161        6.062        0.054      337.654        9.774      860.384
05/30/2013  06:28:00      -30.368       -1.815       -3.513       10.087        9.661       10.779      101.742       93.343      116.191        0.062        0.016       30.422        9.064        0.089      337.604        9.690      860.378
05/30/2013  06:29:00      -39.273      -11.864        4.594       16.984       16.992       10.359      288.445      288.712      107.305        0.119        0.034       41.026        6.921        0.028      337.563        9.621      860.391
05/30/2013  06:30:00      -24.215      -31.293       -0.576        9.832       13.446        6.926       96.660      180.794       47.973        0.095        0.016       39.568        5.006        0.016      337.610        9.701      860.401
05/30/2013  06:31:00      -12.883        4.123       14.834       13.221       11.295       11.834      174.793      127.573      140.050        0.042        0.022       13.526        8.055        0.355      337.886       10.164      860.417
05/30/2013  06:32:00       -8.360      -21.634        6.340        9.112       12.191        9.168       83.031      148.623       84.055        0.045        0.016       23.193        6.750        0.085      337.782        9.988      860.433
05/30/2013  06:33:00      -16.031       -1.328       10.111       13.716        6.099       11.493      188.130       37.200      132.086        0.036        0.018       16.086       11.073        0.474      338.197       10.684      860.462
05/30/2013  06:34:00      -13.976        0.409        6.535        6.724        8.292       11.034       45.212       68.759      121.750        0.024        0.012       13.982        7.500        0.288      337.995       10.348      860.492
05/30/2013  06:35:00      -14.580        3.734        5.251        6.765        9.138        8.617       45.765       83.502       74.253        0.023        0.010       15.051        5.116        0.116      337.951       10.272      860.519
05/30/2013  06:36:00      -20.670        4.906        2.106       10.827        7.169        6.385      117.218       51.391       40.768        0.033        0.010       21.244        2.925        0.019      337.864       10.126      860.520
05/30/2013  06:37:00        6.243       12.037       10.433       14.622       10.566       14.423      213.797      111.640      208.030        0.041        0.027       13.560       11.512        0.721      338.210       10.707      860.524
05/30/2013  06:38:00       16.213       23.853       19.231       22.685       12.862       13.433      514.606      165.425      180.444        0.103        0.043       28.841        8.102        0.079      337.971       10.306      860.523
05/30/2013  06:39:00       43.128       30.803        6.160       17.393       22.388       14.772      302.519      501.210      218.203        0.193        0.051       52.998       13.624        0.066      337.879       10.151      860.518
05/30/2013  06:40:00       38.039       27.316        7.235       15.721       14.668       14.999      247.142      215.163      224.970        0.147        0.034       46.831        6.839        0.021      337.910       10.202      860.517
05/30/2013  06:41:00       33.068       32.427       12.919       25.770       23.362       13.455      664.113      545.771      181.037        0.185        0.070       46.314       10.994        0.056      338.111       10.540      860.532
05/30/2013  06:42:00       56.622       24.738        4.388       18.190       15.211       19.425      330.888      231.382      377.319        0.239        0.047       61.790       12.463        0.041      338.053       10.443      860.565
05/30/2013  06:43:00        4.617        9.655       15.696       15.541       22.384       18.011      241.538      501.066      324.404        0.071        0.053       10.702        9.715        0.824      338.393       11.013      860.577
05/30/2013  06:44:00       24.921       28.105       22.549       18.535       14.717       15.812      343.528      216.577      250.021        0.136        0.041       37.562       14.272        0.144      338.094       10.513      860.602
05/30/2013  06:45:00       21.133       24.976        5.941       19.655       15.766       14.500      386.301      248.560      210.241        0.098        0.042       32.717        9.728        0.088      338.050       10.439      860.614
05/30/2013  06:46:00        4.748       24.113        6.608       14.480       13.950       10.257      209.678      194.598      105.209        0.058        0.025       24.576        6.608        0.072      338.288       10.836      860.633
05/30/2013  06:47:00       28.054        7.689       14.329       17.592       15.645       15.865      309.489      244.775      251.700        0.093        0.040       29.088        8.851        0.093      338.194       10.680      860.645
05/30/2013  06:48:00       19.441       39.282       35.108       19.852       17.894       16.571      394.084      320.202      274.601        0.207        0.049       43.830       11.380        0.067      338.194       10.679      860.649
05/30/2013  06:49:00        8.916       28.547       33.522       20.472       23.237       17.932      419.115      539.955      321.555        0.165        0.064       29.907       17.111        0.327      338.463       11.132      860.654
05/30/2013  06:50:00       -5.036        6.324       47.954       13.615       38.484       18.444      185.356     1481.017      340.184        0.219        0.100        8.084       20.168        6.223      338.706       11.541      860.674
05/30/2013  06:51:00        4.994      -45.660       28.857       18.689       31.668       19.569      349.264     1002.846      382.941        0.234        0.087       45.932       12.331        0.072      338.503       11.199      860.689
05/30/2013  06:52:00       -3.349      -16.594       27.826       15.297       22.015       18.739      233.995      484.679      351.149        0.107        0.053       16.928       11.566        0.467      338.693       11.518      860.694
05/30/2013  06:53:00       -8.209      -43.605       21.609       28.075       33.370       23.947      788.225     1113.575      573.462        0.246        0.124       44.371       15.088        0.116      338.415       11.051      860.683
05/30/2013  06:54:00       -8.163      -52.434       17.887       19.997       38.725       23.841      399.899     1499.641      568.402        0.280        0.123       53.066       23.848        0.202      338.461       11.128      860.678
05/30/2013  06:55:00      -18.630       -4.562       10.852       14.927       19.898       14.149      222.827      395.927      200.199        0.065        0.041       19.180       10.831        0.319      338.542       11.266      860.671
05/30/2013  06:56:00      -19.428        8.579        1.610       15.342       16.884       15.357      235.375      285.063      235.851        0.060        0.038       21.238        9.282        0.191      338.391       11.012      860.680
05/30/2013  06:57:00      -16.115       21.982        9.020       17.158       25.286       23.418      294.398      639.384      548.401        0.115        0.074       27.256       13.881        0.259      338.600       11.362      860.684
05/30/2013  06:58:00        6.346        3.130        8.904       10.330       10.962       12.104      106.719      120.171      146.503        0.025        0.019        7.076        7.567        1.144      338.600       11.361      860.700
05/30/2013  06:59:00       -2.230        4.184       24.008       11.591       10.136       11.163      134.360      102.743      124.615        0.048        0.018        4.742        6.010        1.607      339.249       12.453      860.715
05/30/2013  07:00:00        1.587       17.638       14.424       17.597       18.102       18.417      309.660      327.693      339.195        0.075        0.049       17.709        7.552        0.182      338.794       11.689      860.731
05/30/2013  07:01:00        0.513        6.503       27.275        9.263       11.256        7.095       85.802      126.701       50.344        0.052        0.013        6.523        2.720        0.174      339.067       12.145      860.742
05/30/2013  07:02:00       -5.757        0.066       23.216       18.489        8.842        7.259      341.831       78.184       52.699        0.052        0.024        5.757        6.253        1.180      339.092       12.189      860.735
05/30/2013  07:03:00      -22.271        2.155        7.518       20.935       14.717       15.843      438.291      216.580      251.009        0.073        0.045       22.375       15.164        0.459      338.694       11.520      860.733
05/30/2013  07:04:00      -15.325       20.086       10.408       28.217       33.389       19.171      796.208     1114.812      367.537        0.151        0.114       25.264       17.656        0.488      338.554       11.285      860.734
05/30/2013  07:05:00       -2.817       15.931       56.686       12.223       21.151       12.100      149.410      447.385      146.419        0.211        0.037       16.178        9.646        0.356      339.053       12.123      860.741
05/30/2013  07:06:00      -10.921        5.173       40.247       11.667       16.618       16.515      136.127      276.157      272.734        0.123        0.034       12.084       11.271        0.870      339.214       12.393      860.758
05/30/2013  07:07:00       -0.538       18.268       43.523       11.471       20.350        8.693      131.583      414.105       75.577        0.142        0.031       18.276        9.609        0.276      339.153       12.291      860.777
05/30/2013  07:08:00        4.839       42.999       42.538       15.649       23.846       20.584      244.906      568.655      423.704        0.246        0.062       43.271       14.175        0.107      338.750       11.613      860.793
05/30/2013  07:09:00       -0.710       -0.009       31.730       16.000       47.784       19.141      255.984     2283.280      366.383        0.196        0.145        0.710       20.864      862.782      338.996       12.028      860.806
05/30/2013  07:10:00       31.179      -30.670       18.898       27.096       54.623       22.370      734.217     2983.699      500.438        0.324        0.211       43.735       25.735        0.346      338.681       11.499      860.802
05/30/2013  07:11:00        8.980       42.799       53.677       27.082       28.362       21.804      733.455      804.402      475.394        0.340        0.101       43.731       18.644        0.182      338.824       11.739      860.791
05/30/2013  07:12:00       40.909       23.006       46.715       41.440       27.647       26.479     1717.302      764.365      701.130        0.378        0.159       46.934       18.210        0.151      338.711       11.549      860.792
05/30/2013  07:13:00       41.299       28.304       39.571       42.200       31.562       24.406     1780.800      996.146      595.677        0.372        0.169       50.068       19.358        0.149      338.709       11.546      860.786
05/30/2013  07:14:00       56.386       54.018       20.036       26.575       20.668       22.261      706.209      427.152      495.571        0.406        0.081       78.085       10.740        0.019      338.643       11.434      860.803
05/30/2013  07:15:00       -2.383        1.742       45.851       16.047       30.897       17.201      257.519      954.618      295.861        0.181        0.075        2.951       15.881       28.954      339.339       12.605      860.834
05/30/2013  07:16:00        7.552      -13.379       38.351       22.723       41.975       21.160      516.348     1761.930      447.748        0.222        0.136       15.364        9.348        0.370      339.007       12.045      860.850
05/30/2013  07:17:00        7.975      -24.534       17.568       26.892       36.850       28.752      723.197     1357.942      826.687        0.194        0.145       25.798       16.507        0.409      338.869       11.814      860.859
05/30/2013  07:18:00       19.775       11.990       12.033       39.285       24.781       23.309     1543.341      614.107      543.287        0.169        0.135       23.126       13.134        0.323      338.806       11.708      860.870
05/30/2013  07:19:00      -13.088      -10.579       38.146       18.436       31.103       23.385      339.899      967.396      546.866        0.180        0.093       16.829       17.526        1.085      339.049       12.117      860.868
05/30/2013  07:20:00       -2.251       16.369       56.593       15.376       29.806       16.812      236.413      888.371      282.631        0.244        0.070       16.523       16.759        1.029      339.204       12.376      860.864
05/30/2013  07:21:00       17.279        6.643       45.075       19.041       25.043       20.207      362.549      627.136      408.337        0.189        0.070       18.512       15.246        0.678      339.021       12.068      860.872
05/30/2013  07:22:00       16.087       24.622       20.153       22.064       22.812       29.953      486.814      520.373      897.153        0.159        0.095       29.411       20.695        0.495      338.883       11.839      860.864
05/30/2013  07:23:00      -14.345        8.485       13.790       17.480       14.765       20.397      305.533      217.993      416.046        0.070        0.047       16.666       18.837        1.277      339.142       12.272      860.852
05/30/2013  07:24:00      -20.492       24.141        2.576       25.968       26.879       15.916      674.357      722.494      253.326        0.133        0.083       31.666        9.756        0.095      338.990       12.017      860.835
05/30/2013  07:25:00      -43.436      -46.670        1.684       30.532       43.512       25.635      932.219     1893.298      657.150        0.377        0.174       63.755       22.572        0.125      338.691       11.514      860.808
05/30/2013  07:26:00      -18.766        4.559       19.190       31.028       20.583       19.659      962.754      423.666      386.468        0.126        0.089       19.312       22.199        1.321      339.398       12.706      860.790
05/30/2013  07:27:00      -17.141        1.843        4.937       20.543       16.121       16.122      422.007      259.902      259.925        0.063        0.047       17.240       10.459        0.368      339.098       12.199      860.792
05/30/2013  07:28:00      -18.002        3.741       13.363       24.255       26.303       23.338      588.304      691.865      544.664        0.117        0.091       18.387       19.499        1.125      339.353       12.630      860.786
05/30/2013  07:29:00      -47.889        9.478       12.317       27.054       25.149       16.840      731.907      632.451      283.595        0.209        0.082       48.818       14.874        0.093      338.788       11.677      860.771
05/30/2013  07:30:00        5.293       59.536       38.947       35.236       35.718       28.629     1241.606     1275.752      819.620        0.421        0.167       59.771       23.274        0.152      339.080       12.171      860.748
05/30/2013  07:31:00      -17.387        7.440       34.514       20.274       17.065       23.570      411.045      291.203      555.556        0.140        0.063       18.912       13.266        0.492      339.444       12.783      860.730
05/30/2013  07:32:00      -25.514      -16.222       -1.115       18.861       17.551       16.650      355.729      308.044      277.218        0.093        0.047       30.234       13.208        0.191      338.906       11.876      860.732
05/30/2013  07:33:00       -4.296        7.620       29.307       30.859       18.278       21.674      952.278      334.077      469.742        0.135        0.088        8.747       16.208        3.433      339.416       12.735      860.738
05/30/2013  07:34:00        0.080        7.417       56.406       19.826       34.049       22.643      393.080     1159.338      512.699        0.265        0.103        7.417       11.901        2.574      339.637       13.108      860.767
05/30/2013  07:35:00        7.195       38.291       67.902       25.946       42.839       20.323      673.173     1835.182      413.011        0.452        0.146       38.961       22.923        0.346      339.154       12.293      860.790
05/30/2013  07:36:00        3.992       20.139       45.619       21.433       43.957       20.002      459.360     1932.231      400.078        0.265        0.140       20.531       20.327        0.980      339.239       12.438      860.802
05/30/2013  07:37:00      -21.258       -2.166       21.212       25.699       24.631       24.868      660.454      606.672      618.406        0.140        0.094       21.368       23.400        1.199      339.360       12.641      860.818
05/30/2013  07:38:00      -37.691      -48.644        7.227       35.366       62.319       27.861     1250.761     3883.646      776.237        0.487        0.296       61.538       33.729        0.300      339.231       12.426      860.816
05/30/2013  07:39:00      -32.251      -88.276       -5.875       23.589       28.755       15.147      556.439      826.839      229.427        0.524        0.081       93.983       10.245        0.012      338.577       11.323      860.818
05/30/2013  07:40:00      -36.059      -11.268       13.153       26.502       28.034       19.594      702.344      785.906      383.920        0.174        0.094       37.778       21.792        0.333      338.824       11.739      860.819
05/30/2013  07:41:00      -21.145       15.572        5.588       11.031       14.979       15.799      121.677      224.382      249.621        0.066        0.030       26.260        8.909        0.115      339.024       12.075      860.815
05/30/2013  07:42:00      -39.372        4.338       -3.566        7.974       11.987        7.501       63.580      143.681       56.267        0.092        0.013       39.610        5.209        0.017      338.634       11.420      860.817
05/30/2013  07:43:00      -44.728      -24.079        2.697       28.507       24.433       14.442      812.661      596.966      208.561        0.210        0.081       50.798       13.054        0.066      338.866       11.809      860.817
05/30/2013  07:44:00      -39.185      -16.150       -1.073       24.187       21.394       12.512      585.025      457.682      156.557        0.150        0.060       42.382        9.335        0.049      338.821       11.733      860.815
05/30/2013  07:45:00      -50.611      -12.964        4.895       31.946       29.033       19.845     1020.571      842.902      393.817        0.250        0.113       52.245       20.013        0.147      339.084       12.176      860.819
05/30/2013  07:46:00      -83.827      -37.161        0.623       33.234       30.545       18.362     1104.480      932.999      337.162        0.539        0.119       91.694       18.755        0.042      338.805       11.705      860.808
05/30/2013  07:47:00      -62.853      -63.290       -0.968       17.604       25.055       16.002      309.899      627.771      256.078        0.458        0.060       89.197        6.774        0.006      338.773       11.653      860.799
05/30/2013  07:48:00      -42.462       -5.753        3.863       19.582       16.706       13.127      383.438      279.084      172.307        0.134        0.042       42.850       10.397        0.059      338.966       11.979      860.794
05/30/2013  07:49:00      -17.668       13.111       33.248       19.086       22.020       16.867      364.270      484.884      284.508        0.136        0.057       22.001        5.761        0.069      339.836       13.444      860.780
05/30/2013  07:50:00      -25.419       -4.355       15.580       25.346       14.070       19.289      642.417      197.977      372.051        0.106        0.061       25.789       12.114        0.221      339.279       12.504      860.759
05/30/2013  07:51:00      -63.920      -12.933        5.788       30.813       35.974       24.669      949.443     1294.120      608.545        0.357        0.143       65.216       19.415        0.089      338.980       12.001      860.745
05/30/2013  07:52:00      -35.282      -76.485       -0.803       26.697       44.861       29.546      712.747     2012.534      872.981        0.535        0.180       84.231       26.927        0.102      339.013       12.056      860.743
05/30/2013  07:53:00      -14.898      -12.000        0.595       27.447       24.940       19.226      753.354      621.993      369.658        0.106        0.087       19.130       17.380        0.825      339.178       12.332      860.747
05/30/2013  07:54:00      -23.505      -18.005       -7.815       21.190       24.692       21.536      449.012      609.674      463.794        0.123        0.076       29.608        6.088        0.042      339.033       12.089      860.750
05/30/2013  07:55:00      -18.375        6.585       16.483       21.430       23.172       19.106      459.228      536.919      365.051        0.101        0.068       19.519       16.538        0.718      339.522       12.915      860.748
05/30/2013  07:56:00      -70.756      -32.963       -0.364       38.069       27.560       18.122     1449.267      759.539      328.420        0.431        0.127       78.058       20.334        0.068      339.087       12.180      860.748
05/30/2013  07:57:00      -32.609        1.542        8.409       19.897       12.539       16.380      395.896      157.225      268.291        0.098        0.041       32.645       15.571        0.227      339.211       12.389      860.738
05/30/2013  07:58:00      -26.726       38.637       12.508       35.118       30.001       23.067     1233.291      900.069      532.091        0.251        0.133       46.980       18.118        0.149      339.309       12.554      860.709
05/30/2013  07:59:00        0.222       22.005       48.404       20.991       47.700       37.241      440.613     2275.247     1386.912        0.346        0.205       22.006       18.126        0.678      339.939       13.617      860.700
05/30/2013  08:00:00        1.602       64.841       95.431       35.402       48.551       27.689     1253.306     2357.233      766.671        0.884        0.219       64.861       27.532        0.180      339.773       13.338      860.701
05/30/2013  08:01:00       17.702       44.359       86.099       41.215       44.579       25.505     1698.636     1987.311      650.502        0.701        0.217       47.760       16.767        0.123      339.719       13.245      860.721
05/30/2013  08:02:00       25.288       36.342       62.454       42.204       60.361       35.811     1781.205     3643.485     1282.447        0.628        0.335       44.275       38.536        0.758      339.589       13.026      860.725
05/30/2013  08:03:00       44.602       -6.435       44.291       48.317       46.321       42.710     2334.521     2145.651     1824.168        0.515        0.315       45.064       39.378        0.764      339.722       13.251      860.738
05/30/2013  08:04:00       30.392       25.649       41.447       40.195       27.857       29.041     1615.616      776.001      843.390        0.327        0.162       39.768       13.994        0.124      339.749       13.297      860.725
05/30/2013  08:05:00       13.463       61.413       64.811       25.700       30.364       25.348      660.515      921.967      642.542        0.519        0.111       62.871       18.511        0.087      339.559       12.976      860.730
05/30/2013  08:06:00       -4.845       -0.697       23.439       14.857       31.598       18.649      220.743      998.414      347.783        0.107        0.078        4.894        8.876        3.289      339.759       13.312      860.736
05/30/2013  08:07:00       -7.242      -29.300        4.884       23.970       24.317       17.713      574.549      591.297      313.738        0.121        0.074       30.182       10.110        0.112      339.769       13.331      860.749
05/30/2013  08:08:00      -60.630      -66.348      -19.259       29.867       30.482       19.484      892.042      929.125      379.626        0.532        0.110       89.878       13.330        0.022      339.275       12.495      860.769
05/30/2013  08:09:00      -82.121      -43.048      -10.214       23.038       42.211       12.593      530.728     1781.769      158.587        0.559        0.124       92.720       16.881        0.033      339.070       12.151      860.774
05/30/2013  08:10:00      -63.666       52.719       -8.978       45.179       26.867       22.533     2041.104      721.824      507.759        0.509        0.164       82.660       12.082        0.021      339.309       12.555      860.759
05/30/2013  08:11:00      -11.186       16.913       21.137       21.465       34.253       19.715      460.748     1173.243      388.694        0.144        0.101       20.277       14.426        0.506      340.024       13.760      860.748
05/30/2013  08:12:00      -44.371      -15.172        1.861       28.826       17.568       16.884      830.926      308.643      285.069        0.181        0.071       46.893       16.172        0.119      339.568       12.992      860.745
05/30/2013  08:13:00      -30.921      -30.112        6.220       24.549       41.192       20.552      602.675     1696.750      422.400        0.231        0.136       43.161       20.905        0.235      339.767       13.328      860.753
05/30/2013  08:14:00      -10.565        9.843       32.635       13.582       13.401       13.535      184.480      179.586      183.188        0.091        0.027       14.440        7.555        0.274      340.839       15.137      860.753
05/30/2013  08:15:00        7.836      -11.917       24.818       42.907       49.900       48.150     1840.970     2489.989     2318.439        0.373        0.332       14.262       34.796        5.952      340.090       13.873      860.745
05/30/2013  08:16:00       12.373      -34.058       49.867       36.312       98.358       46.170     1318.575     9674.309     2131.710        0.846        0.656       36.236       51.765        2.041      339.959       13.650      860.744
05/30/2013  08:17:00       46.366      -75.570        6.349       43.927       43.835       39.732     1929.620     1921.464     1578.636        0.666        0.271       88.660       31.232        0.124      339.600       13.046      860.740
05/30/2013  08:18:00       39.231      -99.532       -5.531       35.679       37.094       35.981     1272.968     1375.944     1294.666        0.771        0.197      106.985       28.390        0.070      339.588       13.024      860.728
05/30/2013  08:19:00       30.871      -97.574      -23.189       44.847       45.642       35.427     2011.249     2083.231     1255.103        0.818        0.267      102.342       26.388        0.066      339.651       13.130      860.700
05/30/2013  08:20:00       -4.544      -12.714       38.367       20.385       42.654       27.743      415.546     1819.336      769.656        0.233        0.150       13.502       24.277        3.233      340.252       14.145      860.653
05/30/2013  08:21:00      -32.685      -68.981        2.190       56.245       62.396       41.483     3163.460     3893.272     1720.817        0.730        0.439       76.332       35.670        0.218      339.814       13.406      860.634
05/30/2013  08:22:00      -55.245      -46.704       10.465       39.720       33.915       25.650     1577.670     1150.194      657.940        0.436        0.169       72.341       11.339        0.025      339.656       13.139      860.618
05/30/2013  08:23:00      -94.504      -98.876       -3.384       33.838       27.306       19.951     1145.010      745.619      398.050        1.050        0.114      136.775       18.205        0.018      339.372       12.661      860.617
05/30/2013  08:24:00     -122.807      -57.251      -13.667       43.604       26.623       16.423     1901.335      708.773      269.717        1.071        0.144      135.496       16.590        0.015      339.382       12.678      860.599
05/30/2013  08:25:00      -50.200        3.007       15.959       48.915       19.847       22.104     2392.647      393.890      488.568        0.303        0.164       50.290       26.813        0.284      339.938       13.616      860.578
05/30/2013  08:26:00      -44.132      -66.089        3.591       28.400       40.016       26.130      806.569     1601.307      682.765        0.471        0.155       79.469       26.109        0.108      339.476       12.836      860.570
05/30/2013  08:27:00       -3.609      -43.418       11.142       19.909       28.264       20.409      396.383      798.854      416.524        0.182        0.081       43.568       16.082        0.136      339.817       13.410      860.559
05/30/2013  08:28:00      -19.151      -17.909       -0.593       21.255       22.250       14.981      451.787      495.060      224.417        0.093        0.059       26.220        7.240        0.076      339.799       13.381      860.573
05/30/2013  08:29:00      -32.810       24.026       25.731       20.200       26.746       30.881      408.058      715.347      953.658        0.220        0.104       40.667       22.217        0.298      340.180       14.025      860.559
05/30/2013  08:30:00       11.114        2.320       49.604       30.946       49.607       29.685      957.670     2460.882      881.174        0.344        0.215       11.354       30.111        7.034      340.613       14.754      860.556
05/30/2013  08:31:00       36.106      -25.943       35.738       40.610       70.049       40.783     1649.164     4906.905     1663.221        0.574        0.411       44.459       43.006        0.936      340.408       14.409      860.530
05/30/2013  08:32:00       67.958       31.165       31.104       49.644       31.810       29.837     2464.569     1011.881      890.249        0.546        0.218       74.763       23.039        0.095      340.176       14.016      860.515
05/30/2013  08:33:00        0.466       21.961       60.130       26.553       36.684       30.377      705.069     1345.744      922.783        0.354        0.149       21.965       19.250        0.768      340.430       14.446      860.492
05/30/2013  08:34:00       -1.444      -74.111       -4.519       22.073       46.310       25.669      487.233     2144.596      658.894        0.440        0.165       74.125       25.720        0.120      340.045       13.796      860.471
05/30/2013  08:35:00       -1.140      -77.456        1.326       22.581       36.369       22.405      509.883     1322.694      501.979        0.417        0.117       77.465       16.236        0.044      339.982       13.688      860.459
05/30/2013  08:36:00      -68.494       -9.200       10.422       62.304       43.503       27.506     3881.782     1892.519      756.568        0.571        0.327       69.109       30.756        0.198      339.958       13.649      860.443
05/30/2013  08:37:00      -42.743       13.275        2.657       21.233       23.557       18.936      450.830      554.915      358.587        0.169        0.068       44.757       12.006        0.072      340.152       13.978      860.434
05/30/2013  08:38:00      -19.635       -7.466       -1.905       24.863       16.793       11.958      618.190      282.020      142.993        0.074        0.052       21.007        9.310        0.196      339.774       13.338      860.434
05/30/2013  08:39:00      -25.580      -26.081       13.004       21.583       27.806       16.023      465.832      773.200      256.728        0.150        0.075       36.532       14.156        0.150      340.219       14.092      860.435
05/30/2013  08:40:00       -4.544      -31.862        7.831       19.554       38.066       31.375      382.351     1449.023      984.370        0.196        0.141       32.185       30.625        0.905      340.507       14.579      860.426
05/30/2013  08:41:00       39.662      -76.035        2.477       56.549       83.944       47.935     3197.742     7046.637     2297.764        0.995        0.627       85.757       54.037        0.397      340.788       15.051      860.406
05/30/2013  08:42:00       76.653      -53.885       21.705       55.227       65.785       47.231     3050.028     4327.614     2230.743        0.943        0.480       93.698       40.620        0.188      340.415       14.420      860.395
05/30/2013  08:43:00       52.223       50.947       30.708       36.364       31.324       33.808     1322.312      981.209     1142.978        0.486        0.172       72.958       26.313        0.130      339.963       13.657      860.375
05/30/2013  08:44:00       21.432       18.034       30.985       30.525       55.880       45.529      931.747     3122.575     2072.849        0.393        0.306       28.009       42.123        2.262      340.423       14.434      860.374
05/30/2013  08:45:00       43.999      -62.871       23.601       45.153       92.164       48.438     2038.770     8494.174     2346.227        0.966        0.644       76.738       57.133        0.554      340.265       14.165      860.367
05/30/2013  08:46:00       28.653      -10.825       17.720       39.311       55.729       44.581     1545.335     3105.679     1987.467        0.394        0.332       30.630       24.628        0.647      340.212       14.077      860.347
05/30/2013  08:47:00       33.753       21.484       32.827       36.435       35.852       26.253     1327.521     1285.346      689.201        0.299        0.165       40.010       17.489        0.191      340.525       14.607      860.311
05/30/2013  08:48:00       13.755        8.361       65.494       34.074       68.621       40.682     1161.012     4708.888     1654.998        0.604        0.376       16.097       40.207        6.239      340.714       14.926      860.287
05/30/2013  08:49:00        4.837      -83.841      -16.203       52.034       47.322       35.471     2707.534     2239.404     1258.216        0.676        0.310       83.981       15.832        0.036      340.290       14.209      860.289
05/30/2013  08:50:00      -17.484       12.195       16.587       21.083       19.124       26.834      444.474      365.745      720.039        0.113        0.077       21.317       18.077        0.719      340.786       15.049      860.304
05/30/2013  08:51:00      -31.624       -6.770       18.855       51.970       37.898       27.036     2700.865     1436.276      730.961        0.313        0.243       32.341       27.204        0.708      340.614       14.758      860.310
05/30/2013  08:52:00       -2.639       29.261       38.381       48.957       50.276       35.339     2396.808     2527.675     1248.869        0.425        0.309       29.379       26.587        0.819      340.739       14.967      860.311
05/30/2013  08:53:00        3.753       47.526       70.196       25.485       55.858       42.399      649.497     3120.067     1797.636        0.638        0.278       47.673       35.904        0.567      340.919       15.272      860.317
05/30/2013  08:54:00        1.469       31.407       71.946       31.351       53.538       24.211      982.869     2866.348      586.157        0.530        0.222       31.441       29.927        0.906      340.706       14.911      860.309
05/30/2013  08:55:00      -38.718      -15.014       17.971       27.267       26.502       26.939      743.470      702.376      725.684        0.211        0.109       41.527       23.883        0.331      340.537       14.627      860.295
05/30/2013  08:56:00      -66.326        5.030        1.601       35.130       41.802       32.040     1234.102     1747.397     1026.567        0.422        0.200       66.516       31.731        0.228      340.247       14.138      860.280
05/30/2013  08:57:00        2.259       35.623       57.699       21.521       34.112       19.900      463.140     1163.622      396.009        0.331        0.101       35.694        8.162        0.052      340.972       15.364      860.271
05/30/2013  08:58:00       13.052       31.643       58.586       33.792       41.950       26.385     1141.881     1759.776      696.172        0.410        0.180       34.229       23.388        0.467      341.040       15.477      860.274
05/30/2013  08:59:00       51.197       47.007       54.940       60.048       56.597       63.154     3605.741     3203.197     3988.396        0.932        0.540       69.504       59.663        0.737      340.675       14.860      860.293
05/30/2013  09:00:00       68.041      -29.974       49.388       70.814      104.430       62.339     5014.624    10905.658     3886.126        1.388        0.990       74.351       77.905        1.098      340.815       15.096      860.292
05/30/2013  09:01:00       61.817       44.134       67.182       75.313       68.477       53.265     5672.081     4689.078     2837.168        1.174        0.660       75.955       53.690        0.500      340.596       14.725      860.286
05/30/2013  09:02:00       60.143      -43.124       18.805       69.367       58.745       34.872     4811.759     3450.996     1216.046        0.765        0.474       74.006       32.091        0.188      340.360       14.326      860.251
05/30/2013  09:03:00       18.278      -48.644       11.876       46.654       66.089       34.134     2176.631     4367.694     1165.122        0.527        0.385       51.965       34.182        0.433      340.891       15.225      860.238
05/30/2013  09:04:00       25.311       24.949       68.489       50.895       89.039       44.133     2590.336     7927.869     1947.704        0.921        0.623       35.540       50.343        2.006      340.742       14.973      860.222
05/30/2013  09:05:00       28.720      -24.976       60.088       58.441      104.347       66.362     3415.301    10888.218     4403.975        1.188        0.935       38.061       75.824        3.969      341.019       15.441      860.230
05/30/2013  09:06:00       19.692       70.216      101.627       54.531       66.868       47.648     2973.582     4471.339     2270.351        1.268        0.486       72.925       43.011        0.348      340.829       15.121      860.244
05/30/2013  09:07:00       42.407      -23.587       36.498       50.213       97.258       55.462     2521.374     9459.033     3075.991        0.937        0.753       48.525       69.940        2.077      340.959       15.341      860.246
05/30/2013  09:08:00       -4.776      -16.119       59.759       45.577       58.754       27.273     2077.230     3451.995      743.815        0.506        0.314       16.811       29.980        3.180      341.190       15.732      860.245
05/30/2013  09:09:00       -3.933       51.503       49.059       28.120       47.599       40.217      790.741     2265.669     1617.431        0.487        0.234       51.653       17.458        0.114      340.922       15.278      860.227
05/30/2013  09:10:00       60.618       71.151       88.019       45.892       38.100       31.851     2106.065     1451.648     1014.512        1.053        0.229       93.472       12.510        0.018      340.589       14.715      860.237
05/30/2013  09:11:00       79.614       62.398       30.483       23.482       32.157       26.440      551.417     1034.095      699.050        0.672        0.114      101.153       10.559        0.011      340.626       14.776      860.216
05/30/2013  09:12:00      120.570       79.970        9.060       45.011       38.066       35.147     2025.975     1449.009     1235.300        1.286        0.236      144.680       17.908        0.015      340.505       14.572      860.206
05/30/2013  09:13:00       95.213      137.828      113.953       79.876       57.153       58.962     6380.153     3266.414     3476.473        2.708        0.656      167.518       49.498        0.087      340.659       14.829      860.192
05/30/2013  09:14:00      103.273      127.194      132.537       92.278       73.166       53.017     8515.311     5353.193     2810.845        3.054        0.834      163.840       39.461        0.058      340.506       14.570      860.179
05/30/2013  09:15:00       86.678       69.471       65.879       51.292       56.375       43.201     2630.895     3178.149     1866.290        1.218        0.384      111.082       26.355        0.056      340.475       14.520      860.192
05/30/2013  09:16:00      116.618       79.630       41.038       74.511       53.827       53.812     5551.942     2897.299     2895.724        1.648        0.567      141.211       37.481        0.070      340.736       14.962      860.186
05/30/2013  09:17:00       88.655       38.069       41.713       78.667       71.134       40.522     6188.482     5060.111     1642.029        1.197        0.645       96.483       10.943        0.013      341.188       15.727      860.190
05/30/2013  09:18:00      144.223       73.404       32.169       72.418       55.904       65.476     5244.402     3125.227     4287.141        1.994        0.633      161.828       26.576        0.027      340.654       14.824      860.215
05/30/2013  09:19:00       53.606      -11.820       55.097       76.548      137.084       64.600     5859.666    18791.976     4173.203        1.743        1.441       54.894       64.047        1.361      340.964       15.348      860.243
05/30/2013  09:20:00       55.753       60.702      102.185       68.344       86.610       65.419     4670.959     7501.336     4279.646        1.684        0.823       82.420       72.456        0.773      340.618       14.762      860.244
05/30/2013  09:21:00       48.382       32.942       67.424       54.146       40.469       36.930     2931.801     1637.738     1363.849        0.695        0.297       58.532       34.141        0.340      340.993       15.397      860.246
05/30/2013  09:22:00       41.793      -35.064       44.004       53.890       58.878       54.478     2904.079     3466.651     2967.861        0.712        0.467       54.554       49.398        0.820      341.207       15.759      860.261
05/30/2013  09:23:00       33.166      -49.600       -8.417       43.861       54.634       25.063     1923.804     2984.908      628.152        0.458        0.277       59.667       17.924        0.090      340.612       14.752      860.275
05/30/2013  09:24:00       33.538       58.041        9.280       42.060       36.015       48.467     1769.072     1297.107     2349.013        0.500        0.271       67.034       27.134        0.164      340.712       14.923      860.285
05/30/2013  09:25:00       63.425       79.068       55.519       59.414       52.131       47.450     3529.984     2717.606     2251.461        1.093        0.425      101.363       37.748        0.139      341.115       15.604      860.289
05/30/2013  09:26:00       89.082       99.482       52.412       83.826       46.552       50.391     7026.879     2167.076     2539.300        1.615        0.587      133.538       52.043        0.152      340.922       15.276      860.284
05/30/2013  09:27:00       -1.438       40.051       59.662       37.876       49.662       42.440     1434.609     2466.286     1801.165        0.543        0.285       40.076       28.464        0.504      341.562       16.361      860.301
05/30/2013  09:28:00        3.727       -6.852        7.052       35.359       40.042       32.726     1250.229     1603.340     1070.984        0.202        0.196        7.800       11.227        2.072      340.955       15.334      860.312
05/30/2013  09:29:00        6.400        3.750        7.541       28.669       38.957       22.754      821.899     1517.658      517.762        0.148        0.143        7.418       13.740        3.431      341.098       15.575      860.314
05/30/2013  09:30:00      -12.288       45.890      -11.522       23.092       35.584       26.499      533.228     1266.246      702.190        0.245        0.125       47.507       24.077        0.257      341.172       15.702      860.295
05/30/2013  09:31:00       58.884      -27.812       33.473       82.526       88.997       53.314     6810.544     7920.493     2842.365        1.146        0.879       65.122       68.694        1.113      341.286       15.894      860.285
05/30/2013  09:32:00       75.745      -27.844       31.406       71.153       85.016       61.386     5062.766     7227.701     3768.243        1.178        0.803       80.701       69.342        0.738      341.168       15.693      860.274
05/30/2013  09:33:00        5.962       52.312       46.484       31.736       59.223       32.109     1007.194     3507.348     1031.000        0.524        0.277       52.651       20.693        0.154      341.398       16.085      860.266
05/30/2013  09:34:00      -24.527      -21.027       15.556       61.660       60.647       48.758     3801.936     3678.105     2377.306        0.557        0.493       32.307       37.457        1.344      340.756       14.997      860.222
05/30/2013  09:35:00      -15.738       27.119       28.441       49.922       57.742       32.612     2492.233     3334.129     1063.573        0.434        0.344       31.355       37.208        1.408      340.974       15.365      860.205
05/30/2013  09:36:00       46.701       71.303      107.503       63.306       63.212       39.428     4007.634     3995.769     1554.558        1.419        0.478       85.235       41.273        0.234      341.225       15.788      860.174
05/30/2013  09:37:00       76.355      -88.018        6.406       65.399      128.361       62.004     4277.055    16476.435     3844.459        1.910        1.230      116.522       72.049        0.382      341.206       15.756      860.169
05/30/2013  09:38:00       42.455       88.633      116.442       63.975       61.517       51.542     4092.801     3784.280     2656.545        1.687        0.527       98.276       35.168        0.128      341.314       15.941      860.157
05/30/2013  09:39:00       35.677       78.818      112.369       63.769       66.990       47.865     4066.472     4487.698     2291.074        1.548        0.542       86.517       48.732        0.317      341.297       15.912      860.155
05/30/2013  09:40:00       28.132       15.910       69.522       60.337       76.962       51.426     3640.577     5923.081     2644.650        0.904        0.610       32.319       46.106        2.035      341.314       15.940      860.141
05/30/2013  09:41:00       37.952       64.541       83.540       58.337       81.776       56.315     3403.250     6687.310     3171.384        1.292        0.663       74.873       62.456        0.696      341.500       16.256      860.148
05/30/2013  09:42:00       55.885      -47.218       26.212       63.771       85.005       70.431     4066.756     7225.818     4960.583        1.114        0.813       73.162       64.021        0.766      341.525       16.299      860.135
05/30/2013  09:43:00       71.050     -134.782      -22.154       65.962       86.035       49.034     4351.002     7402.026     2404.340        1.893        0.708      152.362       44.283        0.084      341.238       15.811      860.148
05/30/2013  09:44:00       13.886       26.544       74.439       37.038       59.798       41.767     1371.794     3575.770     1744.512        0.656        0.335       29.957       40.845        1.859      341.632       16.481      860.144
05/30/2013  09:45:00       52.526      -40.028       28.864       46.682       71.364       57.090     2179.167     5092.808     3259.261        0.786        0.527       66.040       50.408        0.583      341.339       15.984      860.143
05/30/2013  09:46:00       24.936      -13.985       25.977       37.706       57.849       40.180     1421.747     3346.459     1614.458        0.394        0.319       28.590       40.168        1.974      341.346       15.996      860.135
05/30/2013  09:47:00       34.567       49.219       -4.958       45.612       24.381       31.636     2080.493      594.437     1000.822        0.366        0.184       60.145       31.952        0.282      340.573       14.686      860.124
05/30/2013  09:48:00      -40.997        4.723      -10.990       14.908        9.755       21.974      222.261       95.152      482.877        0.131        0.040       41.268       14.449        0.123      340.649       14.814      860.095
05/30/2013  09:49:00       -5.492       36.196       13.887       13.550       38.438       27.592      183.593     1477.462      761.306        0.198        0.121       36.610       22.607        0.381      341.471       16.207      860.079
05/30/2013  09:50:00      -26.475        2.445       -8.507       17.159       31.367       21.952      294.433      983.912      481.883        0.127        0.088       26.588       13.114        0.243      340.966       15.352      860.059
05/30/2013  09:51:00        2.418       14.715        7.925       36.782       38.889       29.495     1352.936     1512.367      869.965        0.201        0.187       14.913       25.267        2.871      341.407       16.101      860.047
05/30/2013  09:52:00      -21.139        7.778       20.625       26.826       15.943       16.725      719.659      254.186      279.729        0.109        0.063       22.525       15.754        0.489      341.641       16.497      860.029
05/30/2013  09:53:00      -49.190      -30.998       -2.422       31.110       50.697       26.638      967.849     2570.165      709.609        0.382        0.212       58.142       29.966        0.266      341.272       15.870      860.009
05/30/2013  09:54:00      -34.087      -24.555        6.879       33.744       45.744       22.573     1138.632     2092.555      509.519        0.278        0.187       42.011       11.194        0.071      341.272       15.868      859.987
05/30/2013  09:55:00       16.895       36.151       56.010       37.707       55.622       41.923     1421.812     3093.831     1757.542        0.550        0.314       39.904       38.215        0.917      341.897       16.932      859.979
05/30/2013  09:56:00      134.076       95.242       70.549      116.303       66.197       54.712    13526.275     4382.003     2993.366        2.646        1.045      164.461       34.151        0.043      341.311       15.935      859.976
05/30/2013  09:57:00      137.014       95.891       92.104       88.645       86.287       53.943     7857.864     7445.465     2909.806        2.733        0.911      167.236       49.078        0.086      341.056       15.502      859.986
05/30/2013  09:58:00      112.212       89.540       39.591       59.223       35.136       55.103     3507.373     1234.529     3036.343        1.498        0.389      143.558       47.093        0.108      341.518       16.285      860.001
05/30/2013  09:59:00      105.147       74.143       25.647       47.538       42.916       38.352     2259.884     1841.803     1470.864        1.139        0.279      128.658       15.833        0.015      341.481       16.224      860.002
05/30/2013  10:00:00       33.320       59.612       56.798       40.493       35.314       31.736     1639.673     1247.071     1007.177        0.589        0.195       68.292       17.314        0.064      341.275       15.874      859.996
05/30/2013  10:01:00       -5.411        9.616       38.775       24.145       21.883       17.138      582.971      478.871      293.715        0.149        0.068       11.034       15.309        1.925      342.308       17.628      859.983
05/30/2013  10:02:00      -52.743      -40.013       12.350       47.360       65.347       28.424     2243.013     4270.174      807.904        0.593        0.366       66.203       30.682        0.215      341.660       16.530      859.963
05/30/2013  10:03:00      -34.749      -31.665       12.342       35.232       42.188       26.176     1241.296     1779.832      685.193        0.303        0.185       47.012       27.315        0.338      341.711       16.616      859.955
05/30/2013  10:04:00      -17.538      -23.904       21.125       40.925       39.858       19.942     1674.816     1588.678      397.693        0.249        0.183       29.648       21.029        0.503      341.906       16.945      859.944
05/30/2013  10:05:00        9.948       29.419       75.414       70.615       87.867       82.940     4986.409     7720.585     6878.978        1.312        0.979       31.056       78.517        6.392      341.895       16.925      859.931
05/30/2013  10:06:00       46.564      -71.157        7.367       62.640      104.063       56.120     3923.808    10829.059     3149.475        1.259        0.895       85.038       56.309        0.438      341.587       16.403      859.917
05/30/2013  10:07:00      -45.295       16.775       21.759       37.006       29.263       40.236     1369.457      856.309     1618.940        0.332        0.192       48.301       24.050        0.248      341.635       16.486      859.907
05/30/2013  10:08:00       26.976      -43.993       18.577       45.404       75.454       47.667     2061.494     5693.359     2272.148        0.652        0.501       51.605       52.192        1.023      341.929       16.986      859.901
05/30/2013  10:09:00       42.104        3.989       13.952       60.111       40.459       35.621     3613.317     1636.935     1268.839        0.425        0.326       42.292       33.378        0.623      341.656       16.520      859.900
05/30/2013  10:10:00       20.801        0.225        4.898       31.540       50.336       28.259      994.784     2533.669      798.573        0.239        0.216       20.802       16.511        0.630      341.967       17.049      859.909
05/30/2013  10:11:00       13.451      -21.029        4.102       30.770       45.039       23.352      946.786     2028.509      545.311        0.208        0.176       24.962       18.287        0.537      341.725       16.637      859.923
05/30/2013  10:12:00      -25.191       -8.417       12.285       31.489       23.179       18.491      991.557      537.253      341.907        0.136        0.094       26.560        8.998        0.115      341.785       16.741      859.935
05/30/2013  10:13:00      -15.953       28.577       12.760       20.126       57.413       23.289      405.037     3296.271      542.363        0.274        0.212       32.728       22.242        0.462      342.090       17.259      859.930
05/30/2013  10:14:00       -3.652       84.358        6.260       36.637       59.272       35.298     1342.250     3513.123     1245.946        0.663        0.305       84.437       32.431        0.148      342.270       17.562      859.926
05/30/2013  10:15:00       24.392       13.504       16.555       26.781       27.192       22.543      717.237      739.415      508.183        0.151        0.098       27.880        9.236        0.110      342.072       17.228      859.940
05/30/2013  10:16:00       53.225       63.136        2.628       43.450       35.623       36.094     1887.901     1268.999     1302.797        0.564        0.223       82.578       28.763        0.121      341.951       17.021      859.939
05/30/2013  10:17:00       45.404       15.760       -5.812       30.532       45.367       36.100      932.180     2058.207     1303.241        0.332        0.215       48.061       24.129        0.252      341.827       16.812      859.941
05/30/2013  10:18:00       41.401       47.092       25.783       48.518       66.032       34.431     2354.001     4360.239     1185.479        0.625        0.395       62.703       21.595        0.119      341.784       16.737      859.915
05/30/2013  10:19:00       19.791      -45.540       28.905       47.329       71.282       44.705     2240.047     5081.140     1998.495        0.631        0.466       49.655       37.184        0.561      341.798       16.763      859.921
05/30/2013  10:20:00       -2.849      -11.589       12.320       46.414       56.931       28.327     2154.220     3241.163      802.426        0.324        0.310       11.934       16.993        2.027      341.957       17.033      859.920
05/30/2013  10:21:00       31.790      -76.030       10.439       52.962       66.153       35.797     2804.973     4376.278     1281.450        0.768        0.423       82.408       33.647        0.167      341.946       17.015      859.931
05/30/2013  10:22:00       72.213       61.892       36.763       58.330       34.519       32.253     3402.444     1191.574     1040.266        0.801        0.282       95.107       19.595        0.042      342.358       17.713      859.911
05/30/2013  10:23:00      102.864       78.450       39.479       72.998       54.519       43.970     5328.759     2972.367     1933.352        1.426        0.512      129.365       39.813        0.095      341.717       16.624      859.887
05/30/2013  10:24:00       49.733       -2.206       26.134       55.883       40.483       56.565     3122.950     1638.914     3199.654        0.556        0.398       49.782       36.670        0.543      341.998       17.101      859.873
05/30/2013  10:25:00       -3.672      -11.442       35.261       31.275       44.804       29.872      978.144     2007.399      892.360        0.263        0.194       12.017       32.164        7.164      342.066       17.217      859.861
05/30/2013  10:26:00       88.898      114.570      110.230       75.552       55.916       53.492     5708.102     3126.607     2861.343        2.244        0.585      145.014       41.720        0.083      341.826       16.807      859.869
05/30/2013  10:27:00      155.312       88.770       48.928       55.862       43.705       50.252     3120.552     1910.094     2525.215        2.097        0.378      178.891       35.649        0.040      341.332       15.969      859.867
05/30/2013  10:28:00      136.482      107.280       69.092       61.305       60.125       62.344     3758.308     3614.998     3886.819        2.308        0.563      173.598       36.602        0.044      341.626       16.468      859.865
05/30/2013  10:29:00      121.550       93.922       64.180       62.040       44.521       58.183     3848.924     1982.142     3385.218        1.846        0.461      153.609       33.667        0.048      341.633       16.480      859.848
05/30/2013  10:30:00       72.759       62.851       71.941       74.779       61.089       46.466     5591.972     3731.816     2159.076        1.295        0.574       96.147       38.681        0.162      341.849       16.846      859.824
05/30/2013  10:31:00       68.649      -64.436       48.392       58.242      105.095       61.329     3392.125    11045.050     3761.197        1.470        0.910       94.153       69.152        0.539      341.969       17.050      859.811
05/30/2013  10:32:00       87.670       88.970       61.820       81.503       43.795       39.885     6642.696     1918.008     1590.822        1.479        0.508      124.907       35.529        0.081      341.849       16.847      859.819
05/30/2013  10:33:00      131.341       95.767       19.841       44.748       40.414       42.112     2002.380     1633.313     1773.449        1.611        0.270      162.548       22.795        0.020      341.572       16.377      859.816
05/30/2013  10:34:00       81.637       67.463       23.521       53.699       28.191       37.112     2883.616      794.715     1377.283        0.841        0.253      105.904       24.754        0.055      341.664       16.533      859.819
05/30/2013  10:35:00      -28.202      -10.148        8.036       43.921       40.990       24.243     1929.049     1680.143      587.738        0.258        0.210       29.972       12.969        0.187      341.926       16.978      859.834
05/30/2013  10:36:00        8.925       37.887       46.920       55.255       46.655       33.193     3053.119     2176.694     1101.784        0.502        0.317       38.924       25.859        0.441      342.500       17.953      859.829
05/30/2013  10:37:00       13.132       20.128       87.216       55.604      118.140       61.138     3091.794    13957.070     3737.916        1.448        1.039       24.033       79.425       10.922      342.019       17.135      859.827
05/30/2013  10:38:00      -28.625      -75.494      -17.005       67.389       54.336       21.380     4541.232     2952.447      457.096        0.738        0.398       80.738       33.247        0.170      341.277       15.879      859.857
05/30/2013  10:39:00      -45.243       26.428        8.686       20.007       24.986       28.819      400.292      624.318      830.508        0.234        0.093       52.396        8.887        0.029      341.807       16.778      859.841
05/30/2013  10:40:00      -45.222      -40.826        3.788       41.954       35.933       23.017     1760.151     1291.199      529.802        0.365        0.179       60.924       21.660        0.126      341.655       16.519      859.828
05/30/2013  10:41:00       -0.194      -40.776        1.085       37.554       31.941       31.900     1410.294     1020.197     1017.585        0.256        0.172       40.777       23.924        0.344      341.949       17.018      859.816
05/30/2013  10:42:00      -14.496      -17.384        8.311       36.933       45.472       38.199     1364.040     2067.693     1459.144        0.274        0.245       22.635       31.050        1.882      342.347       17.695      859.794
05/30/2013  10:43:00       30.429      -83.625      -13.474       56.446       55.960       53.163     3186.166     3131.549     2826.266        0.862        0.457       88.989       37.588        0.178      341.922       16.972      859.801
05/30/2013  10:44:00      -28.837      -20.887       14.235       33.474       36.584       23.973     1120.504     1338.417      574.692        0.225        0.152       35.607       10.167        0.082      342.307       17.627      859.805
05/30/2013  10:45:00      -24.578       -4.399        8.562       24.412       26.417       18.309      595.923      697.835      335.216        0.116        0.081       24.969       10.552        0.179      342.168       17.391      859.811
05/30/2013  10:46:00      -46.979        4.090       -4.673       32.963       20.771       18.263     1086.563      431.441      333.547        0.205        0.093       47.157       10.074        0.046      342.029       17.153      859.813
05/30/2013  10:47:00       22.275       21.154       36.069       47.835       45.409       19.870     2288.165     2061.948      394.826        0.349        0.237       30.719       13.096        0.182      343.504       19.666      859.802
05/30/2013  10:48:00      150.422       96.761       16.269       66.680       48.868       49.722     4446.209     2388.063     2472.272        2.078        0.465      178.855       31.585        0.031      342.088       17.252      859.785
05/30/2013  10:49:00      194.718      131.198        4.180       64.218       51.169       53.309     4123.994     2618.270     2841.882        3.236        0.479      234.794       35.903        0.023      341.815       16.786      859.779
05/30/2013  10:50:00      153.302      117.794       14.817       51.441       45.777       42.359     2646.189     2095.489     1794.314        2.207        0.327      193.331       20.182        0.011      341.843       16.837      859.789
05/30/2013  10:51:00       75.346       95.864       -9.082       51.156       40.909       41.113     2616.942     1673.535     1690.283        1.046        0.299      121.930       18.999        0.024      342.057       17.199      859.780
05/30/2013  10:52:00       63.599       90.567       -1.757       43.244       47.658       41.356     1870.020     2271.272     1710.325        0.905        0.293      110.667       19.142        0.030      341.971       17.055      859.768
05/30/2013  10:53:00       26.053      -66.492        4.734       30.664       76.134       31.507      940.277     5796.416      992.677        0.642        0.386       71.414       25.678        0.129      341.754       16.687      859.754
05/30/2013  10:54:00       26.138      -41.020       22.227       34.108       52.897       25.997     1163.333     2798.122      675.862        0.375        0.232       48.640       34.824        0.513      342.208       17.458      859.735
05/30/2013  10:55:00        8.700       62.785       17.130       36.804       50.698       35.961     1354.543     2570.308     1293.210        0.476        0.261       63.385       35.678        0.317      342.536       18.015      859.724
05/30/2013  10:56:00      -10.162       33.524       11.411       48.674       33.420       32.901     2369.198     1116.916     1082.506        0.296        0.228       35.031       22.652        0.418      342.639       18.191      859.720
05/30/2013  10:57:00      -22.795       18.676       23.616       27.907       27.316       24.178      778.824      746.148      584.572        0.177        0.105       29.469       13.997        0.226      342.816       18.491      859.716
05/30/2013  10:58:00        7.060        0.224       26.130       17.266       32.186       23.791      298.129     1035.932      566.029        0.132        0.095        7.064       17.873        6.402      343.059       18.904      859.711
05/30/2013  10:59:00        3.411      -50.169        4.808       27.276       33.690       24.385      743.978     1135.038      594.631        0.251        0.124       50.285       11.056        0.048      342.657       18.220      859.725
05/30/2013  11:00:00       57.372     -164.096       -1.079       57.536       82.252       45.248     3310.375     6765.387     2047.402        2.117        0.606      173.836       33.264        0.037      342.395       17.773      859.709
05/30/2013  11:01:00       83.884     -102.849       16.752       87.771      100.064       64.407     7703.765    10012.721     4148.267        1.988        1.093      132.719       80.125        0.364      342.483       17.923      859.692
05/30/2013  11:02:00       79.470      -55.799       15.492       83.593      140.664       50.012     6987.744    19786.374     2501.152        1.947        1.464       97.103       54.033        0.310      342.663       18.227      859.677
05/30/2013  11:03:00       90.333       77.908       62.966       79.129       68.138       45.276     6261.376     4642.771     2049.924        1.557        0.648      119.288       30.921        0.067      342.831       18.516      859.671
05/30/2013  11:04:00       63.371       66.426       57.693       67.713       55.415       53.030     4584.991     3070.838     2812.225        1.111        0.523       91.806       51.502        0.315      342.960       18.736      859.658
05/30/2013  11:05:00       92.816      -10.449       37.028       78.847       53.394       39.843     6216.829     2850.925     1587.447        1.037        0.533       93.403       41.828        0.201      342.490       17.938      859.637
05/30/2013  11:06:00       69.067       83.181       47.978       67.383       49.254       36.309     4540.479     2425.995     1318.358        1.114        0.414      108.117       21.224        0.039      342.367       17.727      859.621
05/30/2013  11:07:00       51.646      -49.706       -4.142       52.611       81.256       40.293     2767.962     6602.605     1623.546        0.807        0.550       71.680       45.135        0.396      342.298       17.611      859.611
05/30/2013  11:08:00      -47.188      -98.332      -15.024       71.389       55.012       35.323     5096.454     3026.356     1247.714        1.074        0.469      109.068       21.702        0.040      342.358       17.713      859.599
05/30/2013  11:09:00       -9.950      -90.174        4.926       55.783       89.885       46.852     3111.782     8079.304     2195.104        1.082        0.669       90.721       53.936        0.353      342.965       18.743      859.575
05/30/2013  11:10:00       -2.073      -81.594       19.765       62.944       70.336       44.036     3961.991     4947.114     1939.202        0.895        0.542       81.621       43.313        0.282      342.872       18.587      859.576
05/30/2013  11:11:00       10.384       29.225       32.432       27.330       35.370       25.416      746.946     1251.038      645.952        0.233        0.132       31.015       13.449        0.188      343.391       19.471      859.563
05/30/2013  11:12:00       91.095      116.337       93.456       72.056       61.087       64.987     5192.032     3731.625     4223.277        2.185        0.657      147.759       28.242        0.037      342.830       18.513      859.560
05/30/2013  11:13:00      124.102       71.141       70.900       96.499      114.809       59.841     9312.025    13181.188     3580.962        2.578        1.304      143.047       36.192        0.064      342.461       17.886      859.554
05/30/2013  11:14:00      176.811      122.746       88.648      117.273      111.882       78.176    13752.987    12517.609     6111.448        4.328        1.619      215.241       61.425        0.081      342.605       18.129      859.516
05/30/2013  11:15:00      114.468      178.060      183.227      112.780      103.732       64.846    12719.435    10760.288     4205.010        5.303        1.384      211.680       57.706        0.074      342.094       17.260      859.517
05/30/2013  11:16:00       82.423       50.223       70.474       81.981       82.220       64.108     6720.875     6760.167     4109.813        1.593        0.880       96.519       62.520        0.420      342.562       18.058      859.518
05/30/2013  11:17:00      173.055      140.071       94.463       78.117       52.260       64.177     6102.208     2731.135     4118.656        3.572        0.648      222.639       49.790        0.050      342.629       18.168      859.528
05/30/2013  11:18:00      193.992      138.484       68.405      100.085       70.615       67.349    10016.926     4986.492     4535.873        4.051        0.977      238.350       56.691        0.057      342.543       18.023      859.523
05/30/2013  11:19:00      152.266      108.095       17.888       58.870       46.598       46.936     3465.731     2171.365     2202.955        2.151        0.392      186.734       23.270        0.016      342.360       17.711      859.509
05/30/2013  11:20:00       97.215       78.445       29.777       71.564       43.294       40.810     5121.418     1874.412     1665.443        1.257        0.433      124.918       26.859        0.046      342.746       18.371      859.516
05/30/2013  11:21:00       38.965       76.277       82.997       50.844       87.347       67.365     2585.129     7629.460     4538.000        1.449        0.738       85.653       59.077        0.476      343.067       18.916      859.506
05/30/2013  11:22:00       14.616       10.417       49.996       44.306       53.353       39.665     1962.999     2846.577     1573.281        0.460        0.319       17.949       40.763        5.158      343.307       19.326      859.487
05/30/2013  11:23:00       97.014      -43.691       47.171       92.334      138.381       69.764     8525.622    19149.375     4866.971        2.304        1.627      106.399       88.118        0.686      342.823       18.500      859.492
05/30/2013  11:24:00       68.549      -42.142       30.483       63.075       93.996       62.433     3978.498     8835.205     3897.897        1.206        0.836       80.467       57.977        0.519      342.889       18.614      859.442
05/30/2013  11:25:00      111.888       64.531       31.294       78.708       95.009       65.790     6194.944     9026.795     4328.263        1.860        0.978      129.164       39.930        0.096      343.001       18.805      859.448
05/30/2013  11:26:00      109.733       94.592      103.279       97.146       99.814       72.608     9437.415     9962.910     5271.940        2.816        1.234      144.876       60.126        0.172      342.909       18.646      859.463
05/30/2013  11:27:00       58.340      -79.782       18.354       67.369       57.729       52.317     4538.571     3332.646     2737.057        1.036        0.530       98.836       43.465        0.193      342.800       18.464      859.460
05/30/2013  11:28:00      121.321       49.617       47.648      107.731       64.104       58.869    11605.884     4109.370     3465.520        1.931        0.959      131.075       46.467        0.126      343.163       19.080      859.446
05/30/2013  11:29:00       76.389       10.865       89.811      131.460      113.037       77.250    17281.782    12777.335     5967.635        2.502        1.801       77.158       90.942        1.389      343.018       18.834      859.442
05/30/2013  11:30:00       94.976      -29.698       61.378       90.857      100.559       69.318     8255.023    10112.175     4804.930        1.842        1.159       99.511       71.181        0.512      342.865       18.573      859.456
05/30/2013  11:31:00      118.121       -2.872       22.162       69.355       67.492       57.774     4810.074     4555.166     3337.890        1.358        0.635      118.156       35.635        0.091      342.689       18.275      859.447
05/30/2013  11:32:00      169.145       91.046       56.759      111.072       78.559       67.447    12336.953     6171.520     4549.062        3.159        1.153      192.092       45.416        0.056      343.065       18.913      859.441
05/30/2013  11:33:00       78.743       71.041       72.194      103.189       65.038       64.817    10647.881     4229.943     4201.278        1.777        0.954      106.053       44.263        0.174      342.738       18.356      859.443
05/30/2013  11:34:00       21.829      -11.354       19.037       29.458       49.061       25.616      867.766     2406.947      656.177        0.245        0.197       24.606       20.755        0.711      342.843       18.537      859.436
05/30/2013  11:35:00      117.000       63.901       26.788       68.501       45.725       42.490     4692.442     2090.766     1805.395        1.354        0.429      133.313       26.504        0.040      343.014       18.826      859.415
05/30/2013  11:36:00       68.308      -79.898       41.443       56.209      105.067       48.539     3159.411    11039.034     2356.049        1.466        0.828      105.118       47.576        0.205      343.030       18.855      859.400
05/30/2013  11:37:00       91.826     -108.564       -5.098       90.732       94.133       61.931     8232.283     8861.047     3835.439        2.058        1.046      142.191       57.272        0.162      343.251       19.231      859.406
05/30/2013  11:38:00       19.544       14.342       46.052       36.587       45.496       28.544     1338.596     2069.880      814.773        0.347        0.211       24.242       21.720        0.803      343.750       20.083      859.417
05/30/2013  11:39:00       41.278       25.812        8.166       33.849       33.595       34.377     1145.730     1128.602     1181.758        0.295        0.173       48.684       24.386        0.251      343.160       19.076      859.411
05/30/2013  11:40:00      111.465       36.533       28.898       70.698       63.494       43.554     4998.188     4031.439     1896.936        1.276        0.546      117.300       31.860        0.074      343.250       19.228      859.408
05/30/2013  11:41:00      175.266       89.411       18.112       97.157       61.291       46.404     9439.410     3756.585     2153.318        2.719        0.767      196.755       40.202        0.042      343.053       18.891      859.400
05/30/2013  11:42:00      117.374       77.662       15.232       83.761       54.620       44.648     7015.964     2983.344     1993.453        1.601        0.600      140.741       21.035        0.022      343.018       18.834      859.411
05/30/2013  11:43:00       51.967        3.035       -6.562      105.430       81.269       57.826    11115.443     6604.649     3343.803        1.190        1.053       52.055       58.691        1.271      343.095       18.965      859.413
05/30/2013  11:44:00       43.037       57.675       26.503       44.020       32.727       32.662     1937.802     1071.045     1066.808        0.498        0.204       71.963       25.196        0.123      343.458       19.584      859.399
05/30/2013  11:45:00      135.915       81.168        6.761       70.652       49.420       45.087     4991.761     2442.319     2032.861        1.729        0.473      158.307       30.343        0.037      343.555       19.748      859.403
05/30/2013  11:46:00      176.147      134.767       30.409       85.023       57.378       49.554     7228.880     3292.179     2455.563        3.154        0.649      221.788       31.626        0.020      343.110       18.989      859.397
05/30/2013  11:47:00       19.885      106.348        5.553       37.706       80.606       39.686     1421.758     6497.361     1575.010        1.061        0.475      108.191       45.781        0.179      343.361       19.417      859.395
05/30/2013  11:48:00       86.075       94.367       68.384       66.115       53.907       58.939     4371.151     2905.949     3473.757        1.587        0.538      127.726       42.071        0.108      343.433       19.540      859.393
05/30/2013  11:49:00       12.831        4.907       44.314       49.136       67.200       37.204     2414.346     4515.773     1384.107        0.523        0.416       13.737       28.946        4.440      343.265       19.255      859.382
05/30/2013  11:50:00       57.378       98.661      106.670      114.929      115.908      108.689    13208.722    13434.624    11813.245        3.142        1.923      114.133       99.015        0.753      343.251       19.230      859.352
05/30/2013  11:51:00      230.356      157.060       19.647       88.053       56.884       64.285     7753.415     3235.787     4132.563        4.662        0.756      278.804       35.594        0.016      342.879       18.594      859.392
05/30/2013  11:52:00      123.092       81.479       13.288       43.505       22.877       33.058     1892.694      523.368     1092.830        1.274        0.175      147.616       15.464        0.011      342.902       18.636      859.412
05/30/2013  11:53:00       96.452       35.484        6.807       46.947       38.629       35.082     2204.050     1492.208     1230.769        0.777        0.246      102.772       21.665        0.044      343.288       19.294      859.388
05/30/2013  11:54:00      128.324       72.933       46.365       68.552       42.577       51.878     4699.431     1812.789     2691.320        1.657        0.460      147.601       34.684        0.055      343.214       19.167      859.380
05/30/2013  11:55:00       93.328       92.038        9.631       69.557       45.609       35.174     4838.220     2080.194     1237.184        1.271        0.408      131.077       29.458        0.051      343.241       19.214      859.365
05/30/2013  11:56:00       30.250      142.524      -19.185       39.381       46.327       27.648     1550.839     2146.186      764.401        1.303        0.223      145.699       27.525        0.036      343.169       19.092      859.339
05/30/2013  11:57:00      128.020       79.115       14.466       96.209       52.600       43.709     9256.105     2766.809     1910.448        1.839        0.697      150.494       25.978        0.030      343.293       19.302      859.322
05/30/2013  11:58:00      193.997      117.910       17.259       78.152       67.933       53.461     6107.779     4614.839     2858.087        3.271        0.679      227.018       31.370        0.019      342.975       18.757      859.315
05/30/2013  11:59:00      135.438      119.399      -14.929       84.501       46.797       37.418     7140.468     2189.973     1400.106        2.177        0.537      180.554       22.082        0.015      343.000       18.800      859.299
05/30/2013  12:00:00       47.780       89.550        5.186       38.611       47.594       43.258     1490.775     2265.190     1871.263        0.798        0.281      101.499       32.629        0.103      343.384       19.457      859.269
05/30/2013  12:01:00      170.616      112.255       12.963      105.456       73.457       48.589    11120.967     5395.993     2360.888        3.038        0.944      204.232       31.125        0.023      343.301       19.314      859.246
05/30/2013  12:02:00      155.897       87.647       23.289       79.914       65.837       49.286     6386.306     4334.477     2429.097        2.284        0.657      178.846       44.231        0.061      343.566       19.766      859.228
05/30/2013  12:03:00      133.869      119.671        3.862       84.606       64.604       58.670     7158.124     4173.728     3442.147        2.351        0.739      179.561       35.911        0.040      343.515       19.678      859.230
05/30/2013  12:04:00      112.722       85.400       18.795       70.244       47.727       45.576     4934.275     2277.869     2077.146        1.482        0.464      141.419       28.387        0.040      343.650       19.911      859.220
05/30/2013  12:05:00      134.005       94.027       24.898       96.895       70.327       53.106     9388.561     4945.849     2820.222        2.228        0.858      163.702       38.938        0.057      343.773       20.120      859.200
05/30/2013  12:06:00      199.537      112.109       35.263       85.751       84.902       64.636     7353.265     7208.306     4177.859        3.618        0.937      228.874       49.860        0.047      343.523       19.690      859.204
05/30/2013  12:07:00      192.646      117.658       45.510      102.906       73.602       67.860    10589.663     5417.215     4604.952        3.682        1.031      225.734       39.635        0.031      343.237       19.204      859.212
05/30/2013  12:08:00       66.965      -50.297       38.193       84.274       99.450       60.251     7102.104     9890.207     3630.169        1.454        1.031       83.750       58.842        0.494      343.288       19.292      859.218
05/30/2013  12:09:00       95.408       53.130       31.925       55.481       59.780       51.369     3078.119     3573.615     2638.747        1.112        0.465      109.204       25.768        0.056      343.270       19.263      859.216
05/30/2013  12:10:00      132.676       24.647       31.252       88.872      120.674       61.955     7898.265    14562.108     3838.470        2.274        1.315      134.946       67.945        0.254      343.396       19.476      859.180
05/30/2013  12:11:00       59.653       16.334       77.344       87.478      119.846       79.170     7652.352    14363.064     6267.913        1.904        1.414       61.848       94.684        2.344      343.668       19.942      859.147
05/30/2013  12:12:00       31.542       63.074       74.283       42.683       69.142       34.264     1821.834     4780.587     1174.046        0.913        0.389       70.521       30.783        0.191      343.944       20.414      859.154
05/30/2013  12:13:00      101.939       60.284       38.816       84.241       73.231       47.163     7096.598     5362.824     2224.372        1.511        0.734      118.430       29.987        0.064      343.512       19.674      859.153
05/30/2013  12:14:00       -3.035       27.235      -17.158      127.779       76.246       44.285    16327.460     5813.458     1961.160        1.257        1.205       27.404       47.155        2.961      343.222       19.181      859.143
05/30/2013  12:15:00       54.534      -67.354        4.707       58.003       80.079       43.615     3364.325     6412.676     1902.288        0.960        0.584       86.663       50.478        0.339      343.826       20.211      859.148
05/30/2013  12:16:00       97.653      -73.579        8.011       84.638       98.721       63.383     7163.569     9745.899     4017.373        1.797        1.046      122.270       61.497        0.253      343.811       20.185      859.141
05/30/2013  12:17:00       92.298       87.216       42.300       81.931       60.636       48.234     6712.615     3676.708     2326.519        1.531        0.636      126.987       38.188        0.090      343.670       19.943      859.120
05/30/2013  12:18:00      174.224      121.769       12.912       51.202       48.660       50.155     2621.646     2367.818     2515.482        2.643        0.375      212.560       25.278        0.014      343.475       19.610      859.085
05/30/2013  12:19:00      104.075       89.663       25.735       36.914       32.981       35.939     1362.630     1087.777     1291.646        1.164        0.187      137.372        9.472        0.005      343.628       19.873      859.070
05/30/2013  12:20:00      101.220      -47.426        5.977       50.427       97.798       41.830     2542.856     9564.358     1749.779        1.319        0.693      111.779       34.879        0.097      343.768       20.113      859.061
05/30/2013  12:21:00       -5.207       15.242       63.881       46.717       53.369       36.001     2182.447     2848.205     1296.084        0.533        0.316       16.107       32.134        3.980      344.458       21.292      859.044
05/30/2013  12:22:00       -9.076       59.557       41.445       27.796       48.824       57.827      772.640     2383.750     3343.964        0.592        0.325       60.245       29.754        0.244      344.287       20.998      859.059
05/30/2013  12:23:00      -18.034       63.565        4.981       54.248       50.005       35.622     2942.838     2500.465     1268.898        0.555        0.336       66.073       26.331        0.159      344.274       20.977      859.035
05/30/2013  12:24:00       72.354       69.440       26.848       75.682       34.140       37.124     5727.695     1165.515     1378.166        0.952        0.414      100.285       21.990        0.048      343.934       20.397      859.005
05/30/2013  12:25:00       32.871       30.026       15.143       45.433       37.808       26.151     2064.180     1429.441      683.893        0.319        0.209       44.520       15.871        0.127      344.484       21.335      859.000
05/30/2013  12:26:00      115.689       41.636       22.653       58.603       43.948       45.234     3434.257     1931.460     2046.108        1.152        0.371      122.954       25.359        0.043      344.090       20.663      858.973
05/30/2013  12:27:00      203.675      159.527       33.570       78.547       69.175       62.434     6169.602     4785.203     3898.053        4.145        0.743      258.713       34.778        0.018      343.825       20.205      858.948
05/30/2013  12:28:00      204.386      116.338       44.799       97.148       73.059       55.084     9437.681     5337.679     3034.284        3.756        0.890      235.177       33.922        0.021      344.152       20.767      858.939
05/30/2013  12:29:00      111.220       72.530       24.290       86.754       74.767       35.526     7526.208     5590.078     1262.109        1.630        0.719      132.780       19.331        0.021      343.789       20.147      858.936
05/30/2013  12:30:00       37.648       19.256       40.790       58.493       47.769       38.696     3421.465     2281.848     1497.413        0.533        0.360       42.287       26.697        0.399      344.455       21.285      858.921
05/30/2013  12:31:00       47.256      -37.190       37.276       48.743       85.615       53.922     2375.868     7329.861     2907.592        0.881        0.631       60.135       52.727        0.769      343.900       20.339      858.916
05/30/2013  12:32:00       65.823      -73.398        9.896       47.715       57.737       30.762     2276.701     3333.546      946.286        0.819        0.328       98.589       31.428        0.102      344.091       20.664      858.927
05/30/2013  12:33:00      102.806      -34.979       36.442       49.361       39.537       35.781     2436.552     1563.207     1280.282        0.920        0.264      108.594       31.611        0.085      344.078       20.643      858.921
05/30/2013  12:34:00       69.916       16.391       78.515      126.530      151.079       74.039    16009.806    22824.906     5481.738        2.781        2.216       71.812       75.908        1.117      344.040       20.573      858.880
05/30/2013  12:35:00      -51.751      -33.527       15.064       80.729       63.422       49.199     6517.239     4022.353     2420.587        0.849        0.648       61.662       36.524        0.351      344.588       21.513      858.884
05/30/2013  12:36:00      -21.393     -119.643       21.627       72.518      123.315       41.707     5258.796    15206.557     1739.484        1.872        1.110      121.540       58.259        0.230      344.451       21.278      858.876
05/30/2013  12:37:00      -27.262     -178.897       11.925       46.853      126.914       34.347     2195.188    16107.152     1179.726        2.618        0.974      180.962       24.112        0.018      343.946       20.415      858.875
05/30/2013  12:38:00      -35.697      -65.261      -10.513       38.504       72.726       34.656     1482.525     5289.044     1201.045        0.681        0.399       74.386       37.418        0.253      344.499       21.362      858.849
05/30/2013  12:39:00      -32.908        4.321       68.182       36.086       87.316       50.313     1302.193     7624.098     2531.380        0.860        0.573       33.190       58.108        3.065      344.799       21.875      858.830
05/30/2013  12:40:00       42.045        4.095       58.676       72.874       96.884       66.340     5310.590     9386.462     4401.013        1.216        0.955       42.244       78.694        3.470      344.186       20.827      858.824
05/30/2013  12:41:00       70.709      -78.331        6.249       72.712       91.728       63.919     5287.027     8414.102     4085.588        1.448        0.889      105.524       69.804        0.438      344.343       21.093      858.817
05/30/2013  12:42:00       42.782      -50.813       15.307       83.974       95.625       63.168     7051.706     9144.061     3990.216        1.241        1.009       66.425       73.179        1.214      344.282       20.989      858.801
05/30/2013  12:43:00       16.837       37.063       63.919       46.165       38.631       43.128     2131.163     1492.364     1860.040        0.561        0.274       40.708        4.249        0.011      344.489       21.345      858.769
05/30/2013  12:44:00       13.651       34.372       80.918       50.235       47.303       35.242     2523.580     2237.615     1242.018        0.696        0.300       36.983       29.552        0.639      344.491       21.347      858.754
05/30/2013  12:45:00       28.572        1.837       58.932       39.709       64.853       45.577     1576.794     4205.912     2077.293        0.608        0.393       28.631       42.756        2.230      344.148       20.761      858.719
05/30/2013  12:46:00      121.222       79.042       45.211       90.042       68.118       50.672     8107.539     4640.082     2567.684        1.915        0.766      144.715       25.469        0.031      344.213       20.871      858.678
05/30/2013  12:47:00       -6.970      107.532        2.090       59.823       87.580       45.139     3578.795     7670.337     2037.557        1.245        0.664      107.758       42.946        0.159      344.599       21.532      858.667
05/30/2013  12:48:00       10.373      200.013       -9.873       80.363      112.502       62.722     6458.154    12656.796     3934.012        3.163        1.152      200.282       59.731        0.089      344.597       21.527      858.648
05/30/2013  12:49:00       57.111      220.824      -33.802       60.051       80.746       52.143     3606.129     6519.888     2718.939        3.300        0.642      228.090       51.978        0.052      344.050       20.590      858.681
05/30/2013  12:50:00       14.933      108.560        2.510       49.928       75.635       40.650     2492.824     5720.680     1652.427        1.094        0.493      109.583       37.997        0.120      344.407       21.203      858.700
05/30/2013  12:51:00       46.392       80.225        6.627       61.685       58.332       48.576     3805.070     3402.613     2359.670        0.910        0.478       92.673       35.964        0.151      344.237       20.912      858.723
05/30/2013  12:52:00       10.724      107.660       -6.171       49.823       81.400       51.989     2482.374     6625.939     2702.899        1.178        0.591      108.192       49.272        0.207      344.489       21.343      858.742
05/30/2013  12:53:00      -57.512       13.196      -40.172       43.750       41.954       33.991     1914.068     1760.163     1155.355        0.496        0.241       59.006       22.519        0.146      344.033       20.564      858.770
05/30/2013  12:54:00      -11.704       37.624        4.213       36.267       31.656       32.371     1315.312     1002.110     1047.895        0.247        0.168       39.403       28.068        0.507      344.280       20.988      858.777
05/30/2013  12:55:00       73.917       89.821       21.356       59.267       52.623       53.074     3512.602     2769.145     2816.876        1.154        0.455      116.325       41.609        0.128      344.330       21.072      858.823
05/30/2013  12:56:00      102.896       61.702       21.769      118.766       66.146       57.651    14105.342     4375.270     3323.659        1.833        1.090      119.979       31.978        0.071      344.761       21.810      858.837
05/30/2013  12:57:00       35.642      186.239        5.508      112.886      110.977       56.933    12743.200    12315.838     3241.314        3.214        1.415      189.619       55.164        0.085      344.439       21.257      858.846
05/30/2013  12:58:00        9.685      224.122      -28.185      137.609       89.337       36.664    18936.295     7981.029     1344.252        3.969        1.413      224.331       29.418        0.017      344.457       21.285      858.867
05/30/2013  12:59:00      -10.570       66.889       17.692       57.037       97.014       43.260     3253.203     9411.628     1871.453        0.972        0.727       67.719       43.531        0.413      344.599       21.533      858.859
05/30/2013  13:00:00     -162.273      162.803      -14.429      111.385      135.946       55.339    12406.672    18481.236     3062.425        4.349        1.698      229.863       50.718        0.049      344.313       21.039      858.824
05/30/2013  13:01:00     -296.683      -11.243      -32.979       88.729      117.922       53.393     7872.915    13905.639     2850.860        5.693        1.231      296.896       43.013        0.021      344.087       20.654      858.820
05/30/2013  13:02:00     -227.457      -41.172      -15.536       84.223       78.931       39.821     7093.579     6230.065     1585.715        3.429        0.745      231.154       17.413        0.006      344.042       20.575      858.831
05/30/2013  13:03:00     -270.772      -98.563      -27.851      115.907       89.618       52.496    13434.390     8031.357     2755.806        5.401        1.211      288.153       45.742        0.025      344.234       20.905      858.813
05/30/2013  13:04:00     -182.151      -76.180       -9.349       68.331       59.243       36.435     4669.164     3509.730     1327.529        2.429        0.475      197.439       31.351        0.025      344.130       20.729      858.833
05/30/2013  13:05:00      -78.496      -35.525       -4.762       78.901       22.050       21.050     6225.356      486.198      443.113        0.730        0.358       86.161       17.422        0.041      344.138       20.743      858.843
05/30/2013  13:06:00       97.330      -36.274       -1.590       37.174       42.035       29.807     1381.882     1766.967      888.469        0.741        0.202      103.870       22.508        0.047      343.810       20.184      858.817
05/30/2013  13:07:00       65.351      -40.826       27.400       36.524       76.339       45.325     1333.992     5827.657     2054.324        0.795        0.461       77.055       52.939        0.472      344.010       20.526      858.772
05/30/2013  13:08:00      179.439      104.450       12.533      103.615       68.029       61.532    10735.996     4627.942     3786.189        3.120        0.958      207.625       37.807        0.033      344.300       21.018      858.748
05/30/2013  13:09:00      117.080       97.631       50.941      137.722       79.989       69.916    18967.248     6398.180     4888.301        2.804        1.513      152.445       59.083        0.150      344.755       21.797      858.720
05/30/2013  13:10:00        6.479       91.663       14.585       84.803       78.537       47.006     7191.564     6167.999     2209.560        1.211        0.778       91.892       51.631        0.316      344.764       21.814      858.725
05/30/2013  13:11:00      -23.513       65.880        6.979       50.318       55.717       40.920     2531.941     3104.332     1674.471        0.612        0.366       69.950       27.145        0.151      345.169       22.508      858.724
05/30/2013  13:12:00      -93.412      158.087      -34.077       44.866       75.298       36.912     2012.980     5669.735     1362.477        2.196        0.452      183.623       36.477        0.039      344.448       21.271      858.725
05/30/2013  13:13:00      -43.973       40.607        0.846      104.544       60.866       36.023    10929.403     3704.635     1297.643        0.975        0.797       59.854       39.851        0.443      345.064       22.329      858.730
05/30/2013  13:14:00     -141.020      -22.482      -11.981       62.773       44.777       30.776     3940.429     2005.019      947.150        1.371        0.345      142.801       28.287        0.039      344.611       21.551      858.731
05/30/2013  13:15:00      -52.701        1.633       -6.093       44.310       27.945       31.123     1963.373      780.935      968.633        0.326        0.186       52.727       17.764        0.114      344.449       21.275      858.727
05/30/2013  13:16:00     -117.692       13.628        0.046       56.159       38.385       33.210     3153.846     1473.412     1102.876        0.988        0.287      118.479        9.659        0.007      344.229       20.899      858.734
05/30/2013  13:17:00      -29.983      -33.966       -4.432       50.586       29.837       32.530     2558.971      890.260     1058.179        0.329        0.225       45.306       33.327        0.541      344.564       21.474      858.729
05/30/2013  13:18:00       31.974      -25.977       -1.275       32.444       21.252       23.836     1052.611      451.634      568.159        0.189        0.104       41.196       15.409        0.140      344.480       21.329      858.734
05/30/2013  13:19:00       -4.657      -97.627        9.724       37.390      102.993       40.004     1398.022    10607.524     1600.296        1.162        0.680       97.738       46.357        0.225      345.013       22.240      858.731
05/30/2013  13:20:00      -78.145      117.824      -17.456       58.280       95.287       38.157     3396.590     9079.660     1455.919        1.711        0.697      141.383       46.511        0.108      344.972       22.168      858.739
05/30/2013  13:21:00       -0.135       61.173       28.582       32.773       64.091       33.463     1074.050     4107.706     1119.743        0.543        0.315       61.173       31.136        0.259      345.245       22.637      858.739
05/30/2013  13:22:00      -88.769      125.732      -21.610       58.577       85.861       48.166     3431.322     7372.167     2319.999        1.864        0.656      153.910       44.415        0.083      344.790       21.859      858.748
05/30/2013  13:23:00       37.617       68.493       31.988       39.799       42.516       36.306     1583.933     1807.649     1318.101        0.592        0.235       78.143       23.221        0.088      344.966       22.160      858.722
05/30/2013  13:24:00       17.871       93.800       11.372       73.393       65.818       55.126     5386.501     4331.994     3038.921        1.100        0.638       95.487       21.465        0.051      344.686       21.681      858.690
05/30/2013  13:25:00     -165.728       15.131      -14.013       85.395       91.339       55.924     7292.314     8342.861     3127.515        2.332        0.938      166.417       48.211        0.084      345.145       22.464      858.656
05/30/2013  13:26:00      -57.781      -13.972       12.459       83.181       65.862       54.533     6919.153     4337.807     2973.833        0.896        0.712       59.447       54.770        0.849      345.307       22.744      858.650
05/30/2013  13:27:00     -107.577      -73.642        5.899      143.684      106.001       70.612    20645.114    11236.240     4985.999        2.694        1.843      130.369       81.240        0.388      345.140       22.456      858.637
05/30/2013  13:28:00      -33.486      -25.656       35.721      130.608      103.694       63.635    17058.376    10752.512     4049.475        1.745        1.593       42.184       53.729        1.622      345.039       22.284      858.616
05/30/2013  13:29:00      -75.010      -28.295       -1.806       45.448       32.649       30.853     2065.559     1065.931      951.911        0.526        0.204       80.169       21.133        0.069      344.681       21.672      858.648
05/30/2013  13:30:00       -8.721      -76.920       -2.915       36.590       43.204       25.234     1338.858     1866.559      636.777        0.492        0.192       77.413        7.153        0.009      344.615       21.559      858.620
05/30/2013  13:31:00      -89.282      -87.367       -3.662       81.828       73.411       36.279     6695.888     5389.176     1316.166        1.451        0.670      124.917       36.874        0.087      344.790       21.857      858.594
05/30/2013  13:32:00       -7.545       42.222        6.085       51.220       58.272       44.580     2623.478     3395.679     1987.396        0.494        0.400       42.891       30.290        0.499      344.984       22.190      858.567
05/30/2013  13:33:00        7.512      139.282        4.175       59.450       54.209       38.607     3534.319     2938.592     1490.535        1.372        0.398      139.485       39.347        0.080      345.124       22.430      858.565
05/30/2013  13:34:00       12.611      128.860        2.354       57.026       80.867       36.694     3251.944     6539.525     1346.426        1.395        0.557      129.476       37.218        0.083      345.040       22.286      858.530
05/30/2013  13:35:00       32.307      134.967      -12.961       57.603       70.405       41.840     3318.123     4956.812     1750.582        1.472        0.501      138.780       38.314        0.076      345.408       22.918      858.517
05/30/2013  13:36:00      -10.358      100.592       -1.440       36.232       48.275       31.109     1312.725     2330.452      967.799        0.742        0.231      101.124       26.641        0.069      345.381       22.872      858.493
05/30/2013  13:37:00       91.942       56.528       17.106       74.663       56.909       40.458     5574.546     3238.655     1636.840        1.119        0.523      107.930       27.845        0.067      345.393       22.891      858.451
05/30/2013  13:38:00      166.553      111.472       -1.083       73.596       62.562       54.136     5416.321     3914.065     2930.724        2.621        0.613      200.414       28.418        0.020      345.008       22.229      858.435
05/30/2013  13:39:00        1.909      161.732      -13.769       42.444       79.954       36.541     1801.533     6392.596     1335.254        1.794        0.476      161.743       41.162        0.065      344.930       22.097      858.426
05/30/2013  13:40:00      154.851       94.711       11.527       86.792       54.177       49.422     7532.909     2935.108     2442.565        2.299        0.646      181.519       35.864        0.039      344.939       22.111      858.413
05/30/2013  13:41:00        7.703      107.810       -4.694       73.581       82.146       40.228     5414.162     6748.037     1618.274        1.274        0.689      108.084       41.884        0.150      345.350       22.817      858.392
05/30/2013  13:42:00        3.347      223.064      -20.471       68.187      143.142       51.490     4649.482    20489.683     2651.172        3.898        1.390      223.089       65.802        0.087      345.180       22.524      858.409
05/30/2013  13:43:00      -64.947      179.241       -4.877       52.787      101.189       44.030     2786.436    10239.168     1938.656        2.566        0.748      190.645       45.287        0.056      345.191       22.544      858.429
05/30/2013  13:44:00       19.574       43.318       21.359       85.830       37.152       34.774     7366.838     1380.243     1209.200        0.633        0.498       47.535       23.724        0.249      345.258       22.661      858.430
05/30/2013  13:45:00      154.788      122.098       27.021      107.806       99.127       79.354    11622.163     9826.256     6297.053        3.367        1.387      197.148       42.277        0.046      345.220       22.593      858.432
05/30/2013  13:46:00      -28.238       89.202       33.152      123.611       72.059       72.348    15279.733     5192.531     5234.254        1.778        1.285       93.565       33.665        0.129      345.429       22.952      858.432
05/30/2013  13:47:00       28.947      259.370       -1.114      109.206      196.558       90.900    11925.982    38635.043     8262.827        6.346        2.941      260.980       97.934        0.141      345.311       22.748      858.452
05/30/2013  13:48:00       41.157      213.680      -22.517       80.600      107.649       66.048     6496.382    11588.312     4362.322        3.515        1.122      217.607       66.362        0.093      345.250       22.645      858.476
05/30/2013  13:49:00      165.424      127.710        3.532      146.776       76.914       61.405    21543.324     5915.835     3770.530        3.745        1.561      208.985       50.313        0.058      345.037       22.279      858.463
05/30/2013  13:50:00      126.348       85.421       72.731      129.322       80.152       86.773    16724.271     6424.273     7529.506        2.961        1.534      152.514       95.588        0.393      344.851       21.961      858.431
05/30/2013  13:51:00       72.812       96.363       77.284       74.735       57.343       57.481     5585.367     3288.228     3304.017        1.637        0.609      120.778       41.656        0.119      344.637       21.597      858.443
05/30/2013  13:52:00      113.785       84.123       11.058       99.872       65.002       49.827     9974.371     4225.228     2482.720        1.841        0.834      141.505       37.373        0.070      344.870       21.995      858.475
05/30/2013  13:53:00      -14.365       91.114        6.408       36.373       72.781       29.134     1322.988     5297.065      848.790        0.801        0.373       92.239       16.873        0.033      345.431       22.958      858.460
05/30/2013  13:54:00     -144.330       86.081      -10.004      130.496       96.260       55.618    17029.202     9265.986     3093.312        2.886        1.469      168.050       63.158        0.141      345.411       22.920      858.462
05/30/2013  13:55:00      -66.297      212.247      -16.316       50.330       91.851       44.174     2533.070     8436.558     1951.358        3.131        0.646      222.361       42.538        0.037      345.039       22.284      858.480
05/30/2013  13:56:00      -67.580      179.622      -11.592       48.676       86.086       43.077     2369.354     7410.733     1855.625        2.430        0.582      191.915       46.592        0.059      345.297       22.726      858.470
05/30/2013  13:57:00      -12.512      139.972       -1.126       34.103       66.544       38.566     1163.020     4428.043     1487.327        1.341        0.354      140.530       36.156        0.066      345.177       22.521      858.473
05/30/2013  13:58:00      -24.265        0.548       -4.526       47.146       36.119       30.741     2222.704     1304.586      944.981        0.254        0.224       24.271       11.948        0.242      345.203       22.566      858.454
05/30/2013  13:59:00      -69.682       17.119      -11.838       55.998       86.659       26.681     3135.769     7509.785      711.879        0.832        0.568       71.754       20.281        0.080      344.998       22.215      858.420
05/30/2013  14:00:00       46.047       82.161        9.577      151.778       79.900       40.480    23036.471     6384.017     1638.594        2.001        1.553       94.185       41.415        0.193      345.306       22.742      858.375
05/30/2013  14:01:00      239.677      134.618       73.567      160.185       93.209       77.289    25659.155     8687.925     5973.586        6.064        2.016      274.895       75.670        0.076      345.135       22.447      858.321
05/30/2013  14:02:00      134.579       42.261       37.237       84.330       60.194       53.193     7111.610     3623.261     2829.523        1.742        0.678      141.059       21.996        0.024      345.375       22.859      858.338
05/30/2013  14:03:00       23.012       48.975       46.472       70.594       77.521       66.969     4983.549     6009.485     4484.902        1.028        0.774       54.112       39.376        0.530      345.716       23.446      858.344
05/30/2013  14:04:00        6.990       46.802       31.731       50.656       46.199       46.693     2565.993     2134.381     2180.274        0.506        0.344       47.321       28.908        0.373      345.612       23.267      858.342
05/30/2013  14:05:00       -3.057       46.532       14.946       34.733       35.320       29.538     1206.363     1247.531      872.475        0.286        0.166       46.632       19.018        0.166      345.673       23.371      858.345
05/30/2013  14:06:00       27.605     -102.130       -5.630      116.071       88.563       43.190    13472.453     7843.420     1865.348        1.720        1.159      105.795       34.491        0.106      345.318       22.761      858.328
05/30/2013  14:07:00       93.741     -160.979      -17.091       59.688       49.140       46.602     3562.631     2414.738     2171.770        2.157        0.407      186.284       15.356        0.007      344.945       22.124      858.317
05/30/2013  14:08:00       49.891     -145.455        5.521       47.120       91.589       37.534     2220.296     8388.603     1408.827        1.785        0.601      153.773       32.194        0.044      345.085       22.363      858.318
05/30/2013  14:09:00       57.009      -79.978       16.347       53.216       71.458       35.012     2831.897     5106.222     1225.827        0.954        0.458       98.217       46.191        0.221      345.269       22.679      858.303
05/30/2013  14:10:00       93.304     -149.501      -16.772       65.951       70.120       45.255     4349.504     4916.884     2048.001        2.132        0.566      176.228       46.115        0.068      345.545       23.149      858.276
05/30/2013  14:11:00       86.133     -146.263       -4.998       83.864       79.451       52.127     7033.112     6312.504     2717.267        2.245        0.803      169.740       52.258        0.095      345.682       23.385      858.270
05/30/2013  14:12:00      -51.291     -156.335       18.319       83.972      122.679       82.259     7051.216    15050.045     6766.542        2.813        1.443      164.534       75.993        0.213      345.680       23.381      858.270
05/30/2013  14:13:00      -15.310      -28.392        8.425       47.920       54.311       47.546     2296.349     2949.704     2260.577        0.431        0.375       32.257       39.484        1.498      345.648       23.329      858.292
05/30/2013  14:14:00      -74.790      -78.561       -4.538       52.360       52.779       34.412     2741.587     2785.634     1184.217        0.925        0.336      108.468       29.614        0.075      345.298       22.729      858.284
05/30/2013  14:15:00      -71.543      -69.563        5.902       86.209       51.988       30.951     7432.010     2702.786      957.953        1.054        0.555       99.787       28.380        0.081      345.540       23.141      858.272
05/30/2013  14:16:00       11.487     -115.834       -0.232       55.815       57.942       50.623     3115.340     3357.278     2562.686        1.129        0.452      116.403       30.128        0.067      345.756       23.515      858.257
05/30/2013  14:17:00       50.662     -128.144        4.141       60.962       63.539       55.834     3716.408     4037.165     3117.451        1.494        0.544      137.795       41.165        0.089      345.423       22.941      858.260
05/30/2013  14:18:00       36.207      -74.162        2.351       34.735       53.087       37.736     1206.549     2818.253     1424.031        0.613        0.272       82.528       35.251        0.182      345.316       22.760      858.255
05/30/2013  14:19:00       31.331      -32.022       20.701       45.461       55.884       37.459     2066.738     3123.017     1403.163        0.451        0.330       44.800       40.703        0.825      345.819       23.624      858.239
05/30/2013  14:20:00      -42.539      -41.260       -1.306       60.663       37.550       28.039     3680.007     1410.037      786.182        0.469        0.294       59.262       26.232        0.196      345.582       23.216      858.227
05/30/2013  14:21:00       17.119      -33.811       21.590       53.190       54.655       36.645     2829.129     2987.139     1342.847        0.453        0.358       37.897       35.441        0.875      346.209       24.292      858.199
05/30/2013  14:22:00      -47.703     -141.708        6.147       49.610       70.608       47.771     2461.104     4985.483     2282.089        1.606        0.486      149.522       46.254        0.096      345.547       23.154      858.204
05/30/2013  14:23:00      -17.536      -17.724       29.005       56.367       56.632       37.576     3177.232     3207.219     1411.985        0.463        0.390       24.933       39.602        2.523      345.671       23.369      858.196
05/30/2013  14:24:00       38.664       11.659       56.208       38.566       45.961       38.780     1487.370     2112.372     1503.862        0.495        0.255       40.383       26.509        0.431      345.559       23.176      858.173
05/30/2013  14:25:00       26.881      -27.578       68.353       60.966       82.072       25.620     3716.837     6735.850      656.377        0.863        0.555       38.511       25.918        0.453      345.999       23.931      858.155
05/30/2013  14:26:00      124.839       26.864       -1.867       44.450       48.631       38.224     1975.769     2364.972     1461.106        1.105        0.290      127.697       17.695        0.019      345.317       22.760      858.170
05/30/2013  14:27:00      149.526       83.202       98.941       73.453       77.882       65.071     5395.277     6065.601     4234.264        2.738        0.785      171.116       54.686        0.102      345.775       23.543      858.152
05/30/2013  14:28:00       95.694        8.026       52.734       83.712       82.494       66.515     7007.775     6805.201     4424.305        1.512        0.912       96.030       64.298        0.448      345.718       23.448      858.143
05/30/2013  14:29:00       55.910       64.723       94.327       95.607       71.117       62.186     9140.789     5057.568     3867.085        1.714        0.903       85.528       62.436        0.533      346.272       24.400      858.156
05/30/2013  14:30:00      120.180      -96.124       27.377       96.058      110.578       72.744     9227.189    12227.596     5291.670        2.559        1.337      153.893       84.668        0.303      345.837       23.650      858.190
05/30/2013  14:31:00       55.049        7.875       24.027       78.761       51.949       51.940     6203.284     2698.684     2697.723        0.763        0.580       55.609       37.387        0.452      346.114       24.128      858.202
05/30/2013  14:32:00        6.787       44.900       -7.563       83.463       68.132       48.301     6966.104     4641.978     2332.957        0.803        0.697       45.410       37.473        0.681      345.995       23.924      858.167
05/30/2013  14:33:00      -38.728       44.488       21.075      100.521       52.010       58.692    10104.466     2705.029     3444.739        1.009        0.813       58.983       56.382        0.914      346.359       24.550      858.166
05/30/2013  14:34:00     -106.625      -22.536        1.097       60.493       53.585       35.877     3659.404     2871.360     1287.134        0.985        0.391      108.981       34.238        0.099      346.270       24.397      858.188
05/30/2013  14:35:00     -118.156      -23.352       -6.454       83.446       65.364       31.870     6963.230     4272.453     1015.695        1.340        0.613      120.442       12.011        0.010      346.276       24.406      858.186
05/30/2013  14:36:00      -26.636       80.761       20.740      126.484      145.468       66.459    15998.084    21160.942     4416.802        2.461        2.079       85.040       62.538        0.541      346.125       24.146      858.178
05/30/2013  14:37:00       46.551       63.324       58.481       72.755       86.693       64.272     5293.331     7515.628     4130.913        1.327        0.847       78.593       36.736        0.218      346.367       24.564      858.208
05/30/2013  14:38:00     -104.478     -118.987       12.900      121.259       98.826       58.039    14703.660     9766.677     3368.526        2.653        1.392      158.346       45.534        0.083      346.053       24.021      858.223
05/30/2013  14:39:00     -246.454     -180.327        6.270      125.075       92.387       62.618    15643.775     8535.340     3921.041        6.069        1.405      305.381       70.039        0.053      345.791       23.571      858.233
05/30/2013  14:40:00     -272.334     -186.287       -4.292      131.797      109.702       57.024    17370.488    12034.582     3251.762        7.077        1.633      329.952       61.697        0.035      345.617       23.272      858.241
05/30/2013  14:41:00     -284.258     -248.348       -5.227      169.071      115.923       69.684    28585.098    13438.199     4855.827        9.469        2.344      377.464       65.750        0.030      345.565       23.182      858.230
05/30/2013  14:42:00     -344.651     -242.231        1.988      183.311      139.461       85.207    33602.908    19449.401     7260.275       11.888        3.016      421.260       89.884        0.046      345.592       23.229      858.244
05/30/2013  14:43:00     -167.812     -159.342       11.266      128.665       92.076       61.220    16554.808     8477.963     3747.875        4.122        1.439      231.410       70.395        0.093      345.597       23.237      858.243
05/30/2013  14:44:00     -111.342     -260.289        3.514      130.838      101.960       64.620    17118.541    10395.856     4175.803        5.592        1.585      283.103       75.686        0.071      345.611       23.262      858.237
05/30/2013  14:45:00     -152.394     -155.715        4.898      134.187       76.021       64.381    18006.268     5779.203     4144.873        3.771        1.397      217.879       51.510        0.056      345.794       23.577      858.222
05/30/2013  14:46:00     -119.588     -146.233        1.843       77.450       81.280       43.200     5998.438     6606.482     1866.244        2.508        0.724      188.906       44.907        0.057      345.669       23.361      858.209
05/30/2013  14:47:00      -83.527     -189.212        3.595      103.331       97.505       49.571    10677.247     9507.211     2457.281        3.271        1.132      206.828       37.205        0.032      345.633       23.300      858.183
05/30/2013  14:48:00      -56.018      -87.034       -4.344       79.527       50.858       47.977     6324.588     2586.508     2301.797        1.097        0.561      103.504       21.970        0.045      345.674       23.373      858.166
05/30/2013  14:49:00      -30.804      -79.599        2.535       68.796       77.284       36.192     4732.931     5972.805     1309.835        0.965        0.601       85.352       32.042        0.141      345.991       23.918      858.166
05/30/2013  14:50:00     -137.708      -59.175        5.953       75.422       76.738       45.705     5688.550     5888.772     2088.944        1.808        0.683      149.884       44.076        0.086      346.154       24.195      858.160
05/30/2013  14:51:00     -234.559      -42.729        7.380      115.382       79.533       53.262    13313.072     6325.491     2836.890        3.968        1.124      238.419       48.290        0.041      346.162       24.208      858.179
05/30/2013  14:52:00     -150.095        4.435        1.795       81.735       75.676       44.032     6680.548     5726.882     1938.857        1.845        0.717      150.160       40.008        0.071      346.200       24.276      858.176
05/30/2013  14:53:00     -217.590      -47.394      -10.912      183.190      109.353       65.850    33558.504    11958.010     4336.245        4.977        2.493      222.692       70.982        0.102      346.172       24.227      858.174
05/30/2013  14:54:00     -367.578      -57.750      -15.703      144.119      115.258       50.497    20770.292    13284.418     2549.948        8.764        1.830      372.087       55.470        0.022      345.733       23.471      858.219
05/30/2013  14:55:00     -150.054      -27.270        0.296      113.838       75.523       43.197    12959.138     5703.726     1865.982        2.189        1.026      152.512       53.834        0.125      346.090       24.086      858.200
05/30/2013  14:56:00     -124.313      -64.080       -4.360       97.038       72.860       42.408     9416.356     5308.646     1798.445        1.805        0.826      139.857       38.883        0.077      346.384       24.591      858.188
05/30/2013  14:57:00     -582.406       47.704      -44.743      247.781      146.618       77.311    61395.299    21496.915     5976.960       21.616        4.443      584.356       97.397        0.028      345.959       23.860      858.193
05/30/2013  14:58:00     -419.110      -55.904      -21.526      157.461      151.887       69.511    24793.832    23069.593     4831.837       11.596        2.635      422.822       77.011        0.033      345.734       23.471      858.206
05/30/2013  14:59:00     -336.953       61.739      -30.765       93.014       65.224       40.991     8651.676     4254.180     1680.290        6.644        0.729      342.562       29.209        0.007      345.619       23.276      858.209
05/30/2013  15:00:00     -159.749       28.019      -17.418       84.077       70.063       46.638     7068.972     4908.827     2175.118        2.038        0.708      162.188       43.448        0.072      345.608       23.259      858.158
05/30/2013  15:01:00     -205.185       45.624      -13.565      120.480      102.221       46.333    14515.397    10449.065     2146.753        3.573        1.356      210.196       36.541        0.030      346.037       23.992      858.117
05/30/2013  15:02:00     -105.941       -4.808       14.068       79.689       95.118       41.161     6350.269     9047.462     1694.208        1.427        0.855      106.050       42.747        0.162      346.378       24.581      858.074
05/30/2013  15:03:00     -180.581     -101.580       -2.591      138.330      126.330       64.657    19135.315    15959.393     4180.463        4.110        1.964      207.191       66.548        0.103      346.293       24.435      858.048
05/30/2013  15:04:00     -245.370     -185.137        7.565      132.197      134.637       72.352    17476.171    18127.175     5234.758        6.768        2.042      307.379       73.908        0.058      346.125       24.145      858.103
05/30/2013  15:05:00     -282.701     -184.732       -2.424      150.391      120.339       70.047    22617.528    14481.394     4906.641        7.802        2.100      337.707       73.228        0.047      346.164       24.211      858.138
05/30/2013  15:06:00     -276.961     -136.108      -15.726      158.997      146.039       71.662    25279.996    21327.436     5135.459        7.360        2.587      308.598       74.052        0.058      345.997       23.924      858.174
05/30/2013  15:07:00     -321.492     -109.012       -8.489      202.554      128.788       72.435    41028.030    16586.371     5246.844        8.908        3.143      339.472       85.156        0.063      346.165       24.214      858.163
05/30/2013  15:08:00     -264.658      -14.168      -12.154      153.559      135.173       73.799    23580.291    18271.849     5446.366        5.884        2.365      265.037       74.577        0.079      346.058       24.029      858.139
05/30/2013  15:09:00     -130.531        1.635      -23.835       90.110      118.886       47.317     8119.741    14133.979     2238.857        2.105        1.225      130.541       47.385        0.132      345.762       23.523      858.088
05/30/2013  15:10:00     -159.161      -66.392        1.410      181.950       81.556       47.167    33105.715     6651.357     2224.699        3.585        2.099      172.453       72.790        0.178      345.969       23.878      858.092
05/30/2013  15:11:00     -340.998     -245.195      -11.788      236.088      128.456       97.285    55737.762    16500.837     9464.407       12.911        4.085      420.001       76.693        0.033      345.814       23.608      858.137
05/30/2013  15:12:00     -420.006     -123.445      -28.334      176.230      150.150       89.595    31056.865    22545.163     8027.332       12.703        3.081      437.771       83.320        0.036      345.930       23.810      858.128
05/30/2013  15:13:00     -383.479      -42.206      -14.961      251.052      183.365       86.778    63026.896    33622.860     7530.474       12.660        5.209      385.795      106.356        0.076      346.056       24.024      858.124
05/30/2013  15:14:00     -356.906      -86.078      -23.581      187.471      168.478       82.650    35145.539    28384.771     6831.066       10.284        3.518      367.139       68.524        0.035      345.915       23.784      858.133
05/30/2013  15:15:00     -270.929     -261.896      -23.547      175.844      115.611       81.126    30921.147    13365.988     6581.473        9.670        2.543      376.819       89.232        0.056      345.603       23.249      858.132
05/30/2013  15:16:00     -292.636     -227.149      -14.811      174.551      111.082       84.564    30468.029    12339.141     7151.014        9.370        2.498      370.449       93.283        0.063      345.818       23.617      858.103
05/30/2013  15:17:00     -688.309     -170.753      -22.482      202.701      172.478       79.948    41087.778    29748.598     6391.744       29.032        3.861      709.173       70.645        0.010      345.542       23.144      858.102
05/30/2013  15:18:00     -500.435     -150.930      -17.149      169.875      139.483       75.055    28857.537    19455.389     5633.282       16.372        2.697      522.700       77.602        0.022      345.606       23.254      858.104
05/30/2013  15:19:00     -354.274      -89.228      -12.290      173.482      105.648       62.702    30096.058    11161.533     3931.488        8.940        2.259      365.338       84.591        0.054      345.895       23.749      858.114
05/30/2013  15:20:00     -279.130     -102.310      -15.808      105.349      132.289       48.972    11098.372    17500.418     2398.230        5.981        1.550      297.290       38.480        0.017      345.819       23.618      858.125
05/30/2013  15:21:00     -143.198      -12.636        3.145       94.754       92.252       47.032     8978.396     8510.447     2212.011        2.018        0.985      143.755       42.476        0.087      346.044       24.006      858.106
05/30/2013  15:22:00     -183.458      -40.765       -3.550      165.509       94.956       63.373    27393.269     9016.595     4016.169        3.787        2.021      187.932       63.957        0.116      346.154       24.196      858.114
05/30/2013  15:23:00     -326.841      -12.094      -16.443      167.432      119.803       79.387    28033.326    14352.741     6302.339        7.796        2.434      327.065       88.559        0.073      346.200       24.273      858.130
05/30/2013  15:24:00     -112.202     -184.580        5.677       94.444      102.069       61.572     8919.626    10418.100     3791.110        3.491        1.156      216.007       42.931        0.040      346.008       23.944      858.170
05/30/2013  15:25:00     -130.743     -228.103       10.916       84.192      114.066       54.797     7088.214    13010.966     3002.664        4.617        1.155      262.916       55.725        0.045      345.754       23.507      858.176
05/30/2013  15:26:00       48.095     -246.428      -13.485      104.202      154.423       67.049    10858.114    23846.444     4495.590        5.120        1.960      251.077       72.289        0.083      345.921       23.794      858.112
05/30/2013  15:27:00     -276.487     -253.379       -3.564      249.184      138.634       86.238    62092.599    19219.322     7437.068       11.469        4.437      375.028       96.219        0.066      345.981       23.897      858.090
05/30/2013  15:28:00     -394.198     -330.878        2.987      307.732      212.609      126.357    94699.232    45202.592    15966.071       21.035        7.793      514.657      150.139        0.085      345.837       23.650      858.070
05/30/2013  15:29:00     -470.016     -379.571       -1.747      294.122      226.857      121.925    86507.975    51463.909    14865.823       25.889        7.642      604.143      145.223        0.058      345.821       23.622      858.078
05/30/2013  15:30:00     -451.196     -295.138      -17.840      256.094      229.885      106.507    65583.914    52847.032    11343.803       21.037        6.489      539.152      132.567        0.060      345.823       23.625      858.115
05/30/2013  15:31:00     -486.217     -258.108      -21.467      246.432      222.558      104.475    60728.770    49532.219    10914.945       21.231        6.059      550.478      113.849        0.043      345.742       23.487      858.137
05/30/2013  15:32:00     -354.854     -247.990        0.622      220.789      150.771      112.599    48747.687    22731.975    12678.572       13.578        4.208      432.921      110.707        0.065      345.701       23.417      858.174
05/30/2013  15:33:00     -482.208     -296.743      -19.990      177.237      182.994      106.604    31413.003    33486.836    11364.326       19.861        3.813      566.199      108.371        0.037      345.579       23.208      858.163
05/30/2013  15:34:00     -260.773     -181.282      -11.558      144.321      105.094       68.816    20828.450    11044.746     4735.576        6.880        1.830      317.593       68.284        0.046      345.694       23.404      858.179
05/30/2013  15:35:00     -311.355     -174.074      -13.069      189.005      112.443       75.609    35722.712    12643.425     5716.746        9.074        2.704      356.713       73.929        0.043      345.881       23.725      858.175
05/30/2013  15:36:00     -291.113     -224.913        0.685      163.062      124.605       76.417    26589.063    15526.302     5839.624        9.164        2.398      367.876       72.621        0.039      345.868       23.704      858.178
05/30/2013  15:37:00     -407.303     -327.939      -13.275      200.997      166.916       90.795    40399.669    27860.788     8243.817       17.505        3.825      522.915       96.729        0.034      345.832       23.641      858.158
05/30/2013  15:38:00     -357.779     -253.052       -4.925      213.040      128.276       92.439    45385.903    16454.626     8545.046       13.121        3.519      438.225      114.913        0.069      345.672       23.366      858.168
05/30/2013  15:39:00     -244.647     -128.701       10.868      167.990      145.845       71.043    28220.690    21270.816     5047.164        6.553        2.727      276.435       83.271        0.091      345.759       23.516      858.157
05/30/2013  15:40:00     -462.214      -79.026      -33.028      165.395      142.390       72.116    27355.416    20274.971     5200.672       13.690        2.642      468.921       70.238        0.022      345.832       23.641      858.194
05/30/2013  15:41:00     -257.775      -55.998       -4.947      149.108       94.075       63.076    22233.266     8850.189     3978.555        5.233        1.753      263.788       71.685        0.074      345.674       23.370      858.165
05/30/2013  15:42:00     -184.701       57.436      -30.085      110.830       80.722       56.147    12283.342     6516.033     3152.537        3.013        1.098      193.426       50.726        0.069      345.747       23.496      858.113
05/30/2013  15:43:00     -213.630      -35.541      -23.596      161.475       98.277       59.982    26074.307     9658.452     3597.852        4.339        1.967      216.567       37.441        0.030      346.192       24.259      858.125
05/30/2013  15:44:00     -391.408      -49.273      -19.394      133.539      108.359       66.067    17832.700    11741.584     4364.808        9.497        1.697      394.497       71.174        0.033      346.028       23.978      858.151
05/30/2013  15:45:00     -264.955       -5.374      -19.284      138.027      121.010       65.429    19051.453    14643.372     4280.903        5.428        1.899      265.010       61.181        0.053      346.159       24.203      858.143
05/30/2013  15:46:00     -201.418      -62.554       13.384      179.330      167.393       81.824    32159.346    28020.416     6695.218        5.576        3.344      210.908       84.427        0.160      346.085       24.075      858.137
05/30/2013  15:47:00     -335.470     -178.235        8.353      158.347      132.487       72.916    25073.896    17552.691     5316.774        9.615        2.397      379.879       81.132        0.046      345.809       23.603      858.173
05/30/2013  15:48:00     -183.762      -98.177       -6.822      160.741      112.794       72.784    25837.688    12722.592     5297.455        4.365        2.193      208.344       88.611        0.181      346.279       24.410      858.177
05/30/2013  15:49:00     -366.627     -111.772      -17.443      250.365      144.212       88.734    62682.683    20797.027     7873.709       11.927        4.568      383.286      108.141        0.080      346.205       24.281      858.178
05/30/2013  15:50:00     -431.268      -16.452      -27.699      188.063      164.101       90.114    35367.669    26929.138     8120.487       12.871        3.521      431.582       79.009        0.034      346.170       24.221      858.192
05/30/2013  15:51:00     -506.914     -130.640      -10.132      177.145      165.938       88.754    31380.189    27535.371     7877.341       17.045        3.340      523.477       87.240        0.028      345.757       23.513      858.211
05/30/2013  15:52:00     -312.818      -63.741       -9.084      137.512      127.977       70.025    18909.638    16378.218     4903.502        7.109        2.010      319.246       71.085        0.050      345.961       23.862      858.213
05/30/2013  15:53:00     -296.374      -30.382      -16.146      148.152      123.484       62.007    21948.967    15248.350     3844.870        6.502        2.052      297.927       75.078        0.064      346.121       24.138      858.239
05/30/2013  15:54:00     -330.288       -2.022      -13.226      190.476      130.883       74.774    36280.933    17130.393     5591.127        8.413        2.950      330.294       87.807        0.071      345.955       23.853      858.203
05/30/2013  15:55:00     -303.646     -164.145       -8.311      149.356      117.952       68.443    22307.305    13912.649     4684.441        8.005        2.045      345.173       75.188        0.047      345.936       23.820      858.195
05/30/2013  15:56:00     -217.590     -191.993        2.701      153.152      147.953       75.676    23455.416    21890.044     5726.929        6.763        2.554      290.184       72.351        0.062      346.099       24.100      858.208
05/30/2013  15:57:00     -256.687      -52.937      -10.730      131.223      104.059       73.675    17219.583    10828.261     5427.989        5.114        1.674      262.089       74.475        0.081      346.046       24.011      858.179
05/30/2013  15:58:00     -170.185     -128.432        3.879      144.914      131.776       77.429    21000.188    17365.030     5995.268        4.491        2.218      213.208       76.936        0.130      346.256       24.369      858.205
05/30/2013  15:59:00     -514.076     -314.656      -16.124      233.802      204.613       92.896    54663.355    41866.652     8629.649       23.433        5.258      602.729      107.887        0.032      345.810       23.603      858.222
05/30/2013  16:00:00     -365.722     -265.142      -21.257      210.556      157.873       94.171    44333.992    24923.905     8868.224       14.130        3.906      451.722       99.637        0.049      345.601       23.244      858.250
05/30/2013  16:01:00     -458.413     -285.833       -4.569      213.179      152.697       90.460    45445.288    23316.315     8183.091       18.439        3.847      540.225       92.652        0.029      345.473       23.026      858.269
05/30/2013  16:02:00     -368.003     -253.617      -13.230      160.332       85.722       69.069    25706.195     7348.216     4770.500       11.887        1.891      446.931       69.796        0.024      345.507       23.082      858.261
05/30/2013  16:03:00     -159.918     -164.687        9.052      127.665      123.081       64.695    16298.360    15148.858     4185.389        4.420        1.782      229.555       69.959        0.093      345.699       23.414      858.239
05/30/2013  16:04:00     -425.310     -264.457      -10.982      152.046      155.673       83.636    23118.032    24234.084     6994.963       15.264        2.717      500.825       73.016        0.021      345.624       23.284      858.192
05/30/2013  16:05:00     -464.500     -345.059        5.530      241.823      189.635      110.337    58478.324    35961.252    12174.313       22.072        5.331      578.641      122.560        0.045      345.594       23.232      858.177
05/30/2013  16:06:00     -444.685     -141.336       -5.281      224.203      165.646       86.642    50267.192    27438.597     7506.920       15.147        4.261      466.605       99.835        0.046      345.698       23.411      858.167
05/30/2013  16:07:00     -218.115     -196.072       14.485      125.483      140.779       75.058    15745.893    19818.728     5633.733        6.371        2.060      293.289       74.961        0.065      345.870       23.706      858.173
05/30/2013  16:08:00     -337.427     -181.554       -5.572      252.450      178.987       84.320    63731.045    32036.452     7109.918       12.485        5.144      383.169      108.423        0.080      345.970       23.877      858.141
05/30/2013  16:09:00     -457.767     -275.138       -9.516      238.568      217.617      123.242    56914.653    47357.051    15188.579       20.238        5.973      534.089      126.461        0.056      345.760       23.518      858.174
05/30/2013  16:10:00     -392.392     -310.666       -0.806      214.925      224.737      111.290    46192.634    50506.902    12385.521       17.977        5.454      500.485      118.399        0.056      345.782       23.555      858.188
05/30/2013  16:11:00     -377.984     -288.557       -8.199      167.458      142.615       85.576    28042.057    20338.965     7323.331       14.094        2.785      475.538       87.803        0.034      345.770       23.534      858.246
05/30/2013  16:12:00     -436.501     -278.347      -10.745      182.684      173.429       87.213    33373.564    30077.726     7606.057       16.958        3.553      517.697       80.430        0.024      345.637       23.306      858.233
05/30/2013  16:13:00     -415.236     -164.657      -13.182      153.636      171.393       81.811    23604.040    29375.405     6692.998       12.968        2.984      446.691       75.550        0.029      345.774       23.542      858.192
05/30/2013  16:14:00     -272.112     -118.250        3.705      132.546      179.247       69.088    17568.498    32129.644     4773.177        7.125        2.724      296.695       65.489        0.049      346.008       23.943      858.182
05/30/2013  16:15:00     -222.780     -327.688       -1.409      144.707      213.651       76.026    20940.005    45646.900     5779.996       11.468        3.618      396.245       81.337        0.042      345.933       23.814      858.212
05/30/2013  16:16:00     -382.154     -152.377       -5.826      165.783      143.910       79.256    27484.153    20710.090     6281.545       11.188        2.724      411.413       82.337        0.040      345.952       23.848      858.203
05/30/2013  16:17:00     -396.953     -184.591      -10.616      205.900      173.148       95.289    42394.991    29980.313     9080.085       13.659        4.073      437.773      108.579        0.062      345.868       23.703      858.200
05/30/2013  16:18:00     -328.254     -310.080       18.198      223.188      198.437      107.238    49812.691    39377.069    11500.000       15.244        5.034      451.553      116.802        0.067      345.943       23.831      858.198
05/30/2013  16:19:00     -344.989     -165.535      -12.110      135.256      111.280       72.298    18294.153    12383.243     5227.050        9.123        1.795      382.648       69.722        0.033      345.750       23.501      858.201
05/30/2013  16:20:00     -281.289     -108.201        4.010      222.800      123.118       77.701    49639.832    15158.000     6037.393        8.083        3.542      301.382       93.346        0.096      345.845       23.663      858.177
05/30/2013  16:21:00     -265.554     -100.483      -19.593      188.781      107.886       80.969    35638.091    11639.475     6556.034        6.741        2.692      283.929       89.865        0.100      345.943       23.833      858.170
05/30/2013  16:22:00     -205.090     -172.260       12.738      175.043      167.105       89.092    30639.976    27924.008     7937.309        6.919        3.325      267.835      118.629        0.196      345.925       23.801      858.155
05/30/2013  16:23:00     -250.889     -137.945        1.177      169.359      157.031       76.897    28682.547    24658.592     5913.217        7.061        2.963      286.312       87.495        0.093      345.936       23.821      858.126
05/30/2013  16:24:00     -297.513       -6.652      -15.858      137.370      114.238       55.796    18870.557    13050.377     3113.163        6.192        1.752      297.588       49.583        0.028      346.033       23.986      858.142
05/30/2013  16:25:00     -315.346     -121.474      -24.393      152.759      117.657       61.393    23335.444    13843.065     3769.085        7.786        2.047      337.934       61.226        0.033      345.934       23.818      858.111
05/30/2013  16:26:00     -336.710     -225.282        1.598      244.337      189.872      102.972    59700.770    36051.210    10603.198       13.522        5.318      405.124      129.092        0.102      345.868       23.703      858.151
05/30/2013  16:27:00     -258.863     -264.047        0.154      202.405      197.501      111.745    40967.853    39006.543    12487.000       11.458        4.623      369.772      126.302        0.117      345.802       23.589      858.168
05/30/2013  16:28:00     -191.410     -226.416        1.290      172.207      149.393       74.478    29655.293    22318.320     5546.899        7.270        2.876      296.483       81.845        0.076      345.635       23.303      858.190
05/30/2013  16:29:00     -153.676     -190.562       27.839      149.590      131.047       84.642    22377.160    17173.281     7164.323        5.370        2.336      244.806       87.717        0.128      345.692       23.402      858.159
05/30/2013  16:30:00     -270.221     -173.968       -5.720      155.990      159.417       65.899    24332.813    25413.819     4342.617        7.869        2.704      321.378       73.050        0.052      345.679       23.378      858.173
05/30/2013  16:31:00     -325.714     -262.289      -17.052      197.492      151.104       77.934    39003.057    22832.345     6073.775       12.153        3.395      418.192       79.867        0.036      345.758       23.515      858.193
05/30/2013  16:32:00     -254.238     -121.697       -9.950      176.519      104.064       68.625    31158.944    10829.387     4709.340        6.311        2.335      281.864       84.955        0.091      345.944       23.834      858.243
05/30/2013  16:33:00     -269.270      -38.840      -14.587      120.139      112.187       70.063    14433.494    12585.976     4908.782        5.307        1.596      272.057       76.033        0.078      345.938       23.822      858.243
05/30/2013  16:34:00      -68.149     -111.308       41.622      167.669      113.185       75.121    28112.838    12810.865     5643.171        3.266        2.328      130.513       83.581        0.410      346.058       24.031      858.230
05/30/2013  16:35:00     -156.220     -111.600       23.844      186.066      100.300       73.576    34620.624    10060.154     5413.413        4.375        2.505      191.987       86.445        0.203      346.096       24.095      858.208
05/30/2013  16:36:00     -282.792     -210.180       15.411      177.683      140.525       88.022    31571.166    19747.321     7747.931        9.172        2.953      352.345      100.663        0.082      345.846       23.665      858.198
05/30/2013  16:37:00     -421.157     -131.664        3.715      232.434      176.564       86.402    54025.361    31174.953     7465.385       14.368        4.633      441.258       87.116        0.039      345.864       23.697      858.167
05/30/2013  16:38:00     -270.409     -182.873        6.890      197.749      195.939       87.241    39104.667    38392.210     7611.013        9.585        4.255      326.441       94.904        0.085      346.010       23.947      858.192
05/30/2013  16:39:00     -344.658     -222.810        7.251      244.582      179.246      101.926    59820.389    32128.994    10388.814       13.539        5.117      410.406      127.783        0.097      345.825       23.631      858.187
05/30/2013  16:40:00     -318.105     -301.958       17.868      253.517      232.368      108.221    64270.870    53994.737    11711.719       16.131        6.499      438.599      125.884        0.082      345.777       23.546      858.204
05/30/2013  16:41:00     -341.246     -353.849        1.322      206.308      207.936      104.611    42563.033    43237.483    10943.419       16.919        4.837      491.587      109.752        0.050      345.622       23.282      858.181
05/30/2013  16:42:00     -349.889     -263.320       -6.692      126.005      137.468       83.638    15877.188    18897.510     6995.253       11.678        2.088      437.904       71.938        0.027      345.622       23.281      858.146
05/30/2013  16:43:00     -466.058     -344.147       -9.328      198.127      169.194      105.838    39254.218    28626.655    11201.676       20.740        3.954      579.351      116.010        0.040      345.798       23.583      858.162
05/30/2013  16:44:00     -487.362     -318.098      -30.599      227.584      205.818      115.474    51794.624    42360.892    13334.285       22.355        5.374      581.986      120.538        0.043      345.679       23.378      858.192
05/30/2013  16:45:00     -339.657     -149.966       -3.779      203.096      146.817       77.854    41247.877    21555.283     6061.238       10.336        3.443      371.290       83.347        0.050      345.845       23.665      858.199
05/30/2013  16:46:00     -445.887     -304.177      -22.086      162.658      147.925       79.179    26457.742    21881.699     6269.354       17.321        2.730      539.758       80.330        0.022      345.695       23.408      858.200
05/30/2013  16:47:00     -394.692     -123.363      -22.871      174.874      127.555       75.282    30580.894    16270.219     5667.338       11.201        2.626      413.521       86.672        0.044      345.676       23.373      858.213
05/30/2013  16:48:00     -162.982      -66.816       -4.126      189.861      126.028       84.593    36047.346    15883.171     7155.918        4.506        2.954      176.146      106.118        0.363      345.815       23.613      858.169
05/30/2013  16:49:00     -322.406     -181.633       -9.883      140.344      117.032       68.043    19696.376    13696.572     4629.852        8.752        1.901      370.049       63.500        0.029      345.905       23.766      858.194
05/30/2013  16:50:00     -218.601     -195.294        6.193      199.713      134.449       83.177    39885.471    18076.578     6918.440        7.541        3.244      293.132       97.881        0.111      345.854       23.678      858.154
05/30/2013  16:51:00     -313.244     -251.350        8.581      178.790      111.237       86.859    31965.751    12373.624     7544.478       10.662        2.594      401.620       91.981        0.052      345.648       23.325      858.145
05/30/2013  16:52:00     -345.926     -288.920      -23.776      118.985      149.516       64.503    14157.465    22355.038     4160.620       12.218        2.034      450.710       50.762        0.013      345.569       23.189      858.151
05/30/2013  16:53:00     -273.344     -143.361       -4.610      106.379      128.935       62.591    11316.586    16624.227     3917.625        6.357        1.593      308.657       61.575        0.040      345.745       23.491      858.184
05/30/2013  16:54:00     -350.124     -109.092      -16.615      199.919      156.616       85.894    39967.598    24528.649     7377.724       10.331        3.594      366.726       96.899        0.070      345.923       23.798      858.183
05/30/2013  16:55:00     -403.380     -144.744      -23.581      136.834      142.881       76.199    18723.607    20415.104     5806.298       11.458        2.247      428.563       53.401        0.016      345.930       23.809      858.201
05/30/2013  16:56:00     -349.394     -150.855       -5.555      220.863      257.984      107.641    48780.394    66555.676    11586.550       13.587        6.346      380.570      121.920        0.103      346.053       24.021      858.195
05/30/2013  16:57:00     -383.662     -264.693       10.117      279.417      253.108      121.413    78074.036    64063.731    14741.219       18.709        7.844      466.111      142.234        0.093      345.714       23.439      858.202
05/30/2013  16:58:00     -531.521     -221.224      -10.335      208.707      168.613       91.121    43558.683    28430.489     8302.967       20.591        4.015      575.721      101.976        0.031      345.672       23.366      858.211
05/30/2013  16:59:00     -476.390     -103.080       -7.314      255.151      151.637       91.785    65101.908    22993.650     8424.490       16.706        4.826      487.415      102.183        0.044      345.571       23.193      858.215
05/30/2013  17:00:00     -283.070      -76.186        2.901      137.075      116.238       64.005    18789.525    13511.216     4096.615        6.116        1.820      293.143       65.303        0.050      345.714       23.439      858.234
05/30/2013  17:01:00     -423.983     -103.813      -22.004      175.785      141.511       69.696    30900.372    20025.498     4857.526       12.339        2.789      436.507       83.959        0.037      345.755       23.509      858.212
05/30/2013  17:02:00     -357.891     -121.133       -2.750      184.450      146.318       78.132    34021.931    21408.849     6104.541       10.214        3.077      377.835       97.626        0.067      345.633       23.301      858.195
05/30/2013  17:03:00     -235.429     -217.056       22.614      225.476      187.681       90.615    50839.500    35224.088     8211.123        9.865        4.714      320.219      109.216        0.116      345.792       23.575      858.226
05/30/2013  17:04:00     -269.102     -152.387        5.451      205.795      152.391       92.824    42351.477    23222.907     8616.234        8.492        3.710      309.253      105.609        0.117      345.902       23.760      858.249
05/30/2013  17:05:00     -313.825     -196.224       12.458      174.536      135.020       72.970    30462.698    18230.421     5324.663        9.557        2.701      370.122       81.531        0.049      345.576       23.202      858.280
05/30/2013  17:06:00     -415.442     -157.883       -6.852      229.325      138.338       86.170    52589.899    19137.326     7425.311       13.835        3.958      444.431      103.459        0.054      345.621       23.279      858.202
05/30/2013  17:07:00     -353.620     -144.675       -7.074      185.139      139.170       76.001    34276.473    19368.282     5776.180       10.271        2.971      382.071       87.074        0.052      345.746       23.494      858.208
05/30/2013  17:08:00     -215.945      -82.040        7.373      163.698      170.088       84.537    26796.954    28929.972     7146.519        5.813        3.144      231.004       90.903        0.155      345.911       23.776      858.213
05/30/2013  17:09:00     -331.797     -225.817       -7.342      141.008      157.901       77.217    19883.254    24932.816     5962.463       10.595        2.539      401.351       74.967        0.035      345.838       23.650      858.205
05/30/2013  17:10:00     -372.608     -140.601       -2.584      193.715      126.865       74.294    37525.576    16094.838     5519.590       10.887        2.957      398.253       87.033        0.048      345.779       23.550      858.217
05/30/2013  17:11:00     -229.747     -107.351       10.282      159.799      132.283       66.702    25535.590    17498.921     4449.122        5.594        2.374      253.590       77.534        0.093      345.842       23.660      858.199
05/30/2013  17:12:00     -318.052     -174.458       -8.010      136.065      127.865       64.377    18513.623    16349.454     4144.384        8.533        1.950      362.757       77.318        0.045      345.878       23.721      858.197
05/30/2013  17:13:00     -337.811     -249.437       17.944      208.449      192.600       95.006    43451.188    37094.940     9026.194       13.310        4.479      419.923      111.905        0.071      345.831       23.638      858.217
05/30/2013  17:14:00     -326.512     -141.668       12.367      227.368      142.461       91.280    51696.418    20295.145     8332.030       10.356        4.016      355.921      107.976        0.092      345.670       23.363      858.226
05/30/2013  17:15:00     -281.197     -289.421       -5.453      178.326      140.441       81.380    31800.337    19723.715     6622.753       11.050        2.907      403.529       92.031        0.052      345.603       23.248      858.214
05/30/2013  17:16:00     -331.998     -203.086       -1.640      148.988      125.953       74.351    22197.315    15864.131     5528.023        9.752        2.179      389.187       68.604        0.031      345.755       23.509      858.211
05/30/2013  17:17:00     -427.555     -293.273       -5.396      208.689      160.787      104.431    43551.147    25852.468    10905.911       17.456        4.015      518.471      115.019        0.049      345.664       23.353      858.213
05/30/2013  17:18:00     -385.001     -226.678      -11.905      182.294      131.373       76.719    33231.118    17258.867     5885.872       12.805        2.819      446.776       84.110        0.035      345.747       23.496      858.196
05/30/2013  17:19:00     -412.711     -115.054      -28.337      192.637      141.959       84.494    37109.024    20152.339     7139.173       12.437        3.220      428.448      102.494        0.057      345.886       23.734      858.221
05/30/2013  17:20:00     -359.161     -249.274       -3.829      210.466      199.016       83.096    44296.093    39607.253     6904.939       14.096        4.540      437.189       93.258        0.046      345.728       23.462      858.225
05/30/2013  17:21:00     -482.068     -320.552      -26.481      199.880      166.988       94.985    39952.052    27884.841     9022.188       20.634        3.843      578.915       94.666        0.027      345.558       23.169      858.193
05/30/2013  17:22:00     -333.337     -187.952        5.690      198.254      130.191       76.630    39304.690    16949.591     5872.176       10.429        3.106      382.674       78.905        0.043      345.656       23.339      858.206
05/30/2013  17:23:00     -485.675     -265.122      -14.633      269.329      172.600       95.525    72537.921    29790.813     9125.065       20.890        5.573      553.326      117.236        0.045      345.540       23.138      858.221
05/30/2013  17:24:00     -612.790     -301.889      -35.114      183.005      184.585      105.378    33490.803    34071.774    11104.566       27.326        3.933      683.117      112.912        0.027      345.553       23.163      858.222
05/30/2013  17:25:00     -396.975     -224.082       -8.095      245.997      168.534       99.557    60514.288    28403.816     9911.627       15.333        4.941      455.853      119.665        0.069      345.749       23.498      858.254
05/30/2013  17:26:00     -348.768      -12.728      -16.920      202.836      127.891       67.276    41142.387    16356.184     4526.105        9.205        3.101      349.000       86.579        0.062      345.946       23.836      858.322
05/30/2013  17:27:00     -449.324      -44.065      -31.704      146.933      144.409       67.298    21589.329    20853.868     4529.054       12.590        2.349      451.479       78.199        0.030      345.688       23.394      858.313
05/30/2013  17:28:00     -479.789      -43.582      -30.895      165.993      154.856       81.490    27553.562    23980.380     6640.637       14.560        2.909      481.764       70.439        0.021      345.747       23.494      858.330
05/30/2013  17:29:00     -277.342      -47.551      -18.692      121.917       94.407       63.443    14863.838     8912.636     4025.069        5.366        1.390      281.389       62.969        0.050      345.703       23.419      858.329
05/30/2013  17:30:00     -277.029     -135.431      -12.805      170.917      111.004       65.521    29212.642    12321.993     4293.047        7.053        2.291      308.361       75.028        0.059      345.739       23.482      858.351
05/30/2013  17:31:00     -279.775      -93.617       -0.068      119.538       85.231       54.570    14289.397     7264.279     2977.930        5.578        1.227      295.023       58.055        0.039      345.758       23.515      858.361
05/30/2013  17:32:00     -288.720      -50.407        2.604      168.106      116.654       74.320    28259.486    13608.149     5523.477        6.664        2.370      293.088       89.046        0.092      345.917       23.787      858.347
05/30/2013  17:33:00     -369.367     -127.626      -28.107      236.472      201.906       86.374    55919.161    40765.984     7460.483       12.881        5.207      390.795      115.536        0.087      345.707       23.426      858.355
05/30/2013  17:34:00     -144.055     -157.991       10.583      158.146      117.073       80.979    25010.288    13706.045     6557.670        4.554        2.264      213.806       75.577        0.125      345.838       23.651      858.356
05/30/2013  17:35:00     -146.116     -133.056       -0.205      142.949      105.172       65.197    20434.393    11061.169     4250.618        3.739        1.787      197.620       68.427        0.120      345.779       23.550      858.371
05/30/2013  17:36:00     -295.388     -199.632       12.387      205.209      157.971       79.011    42110.605    24954.974     6242.676       10.027        3.665      356.520       89.289        0.063      345.845       23.664      858.370
05/30/2013  17:37:00     -428.639     -242.508       -2.830      229.310      172.218      105.358    52582.998    29658.874    11100.277       16.793        4.667      492.485      115.050        0.055      345.468       23.017      858.342
05/30/2013  17:38:00     -313.086     -153.904        2.715      218.600      184.650      111.696    47786.021    34095.805    12476.036       10.802        4.718      348.868      118.414        0.115      345.549       23.156      858.317
05/30/2013  17:39:00     -430.248      -69.566      -22.562      163.225      155.440       84.011    26642.239    24161.634     7057.857       12.415        2.893      435.835       73.322        0.028      345.663       23.351      858.326
05/30/2013  17:40:00     -278.629     -181.331        1.231      169.231      122.209       66.982    28639.205    14935.023     4486.561        7.928        2.403      332.438       78.102        0.055      345.645       23.320      858.359
05/30/2013  17:41:00     -302.449     -109.229      -12.678      153.268      185.210       66.995    23491.212    34302.735     4488.344        8.291        3.114      321.569       60.916        0.036      345.693       23.402      858.369
05/30/2013  17:42:00     -323.197      -50.572      -17.855      116.997      109.011       62.946    13688.188    11883.384     3962.255        6.843        1.477      327.130       54.502        0.028      345.743       23.487      858.384
05/30/2013  17:43:00     -259.044      -95.700       -2.584      137.287      128.790       57.236    18847.761    16586.812     3275.970        5.748        1.936      276.156       54.021        0.038      345.806       23.598      858.374
05/30/2013  17:44:00     -197.834      -26.220        8.056      104.020       89.458       50.728    10820.226     8002.692     2573.332        3.064        1.070      199.564       53.799        0.073      345.898       23.755      858.381
05/30/2013  17:45:00     -247.739      -67.726       -7.222      111.676      108.104       52.954    12471.586    11686.414     2804.102        4.648        1.348      256.830       39.980        0.024      345.994       23.918      858.371
05/30/2013  17:46:00     -143.420       29.886       11.051      124.122       98.437       51.531    15406.374     9689.902     2655.399        2.466        1.388      146.500       44.952        0.094      346.108       24.116      858.376
05/30/2013  17:47:00     -129.629       31.753       -4.587       97.537      118.137       45.006     9513.493    13956.401     2025.578        2.166        1.275      133.462       46.071        0.119      345.975       23.889      858.368
05/30/2013  17:48:00     -213.983      -71.294       15.746      170.812      106.163       58.515    29176.781    11270.556     3423.972        4.749        2.194      225.547       70.808        0.099      345.834       23.646      858.331
05/30/2013  17:49:00      -64.322       63.003       -0.338       99.334       59.067       51.058     9867.328     3488.875     2606.953        1.203        0.798       90.037       49.609        0.304      345.996       23.926      858.349
05/30/2013  17:50:00     -314.026       49.156      -34.266      133.447      119.338       56.609    17808.100    14241.666     3204.546        6.872        1.763      317.850       64.470        0.041      345.825       23.628      858.351
05/30/2013  17:51:00     -290.070      -40.653      -13.251      166.854      157.753       69.684    27840.272    24886.003     4855.886        7.177        2.879      292.905       79.139        0.073      345.776       23.546      858.337
05/30/2013  17:52:00     -509.598      -75.045      -47.936      140.493      113.488       57.774    19738.164    12879.471     3337.812       15.178        1.798      515.094       51.018        0.010      345.575       23.201      858.379
05/30/2013  17:53:00     -485.620     -108.142      -17.781      244.013      145.430       71.906    59542.152    21149.760     5170.480       16.684        4.293      497.515       54.719        0.012      345.712       23.434      858.368
05/30/2013  17:54:00     -498.942     -148.742      -42.025      233.124      149.204       86.547    54346.960    22261.941     7490.367       17.845        4.205      520.641       87.503        0.028      345.646       23.320      858.394
05/30/2013  17:55:00     -179.036      -46.621       12.083      171.716      146.789       84.534    29486.311    21546.887     7146.047        4.627        2.909      185.007       90.085        0.237      345.715       23.441      858.439
05/30/2013  17:56:00     -368.070       56.561      -32.798      172.785      107.577       59.080    29854.758    11572.757     3490.398        9.233        2.246      372.390       67.018        0.032      345.800       23.587      858.465
05/30/2013  17:57:00     -398.219     -146.805      -21.621      151.752      109.141       56.504    23028.754    11911.701     3192.655       10.936        1.907      424.417       60.131        0.020      345.633       23.299      858.471
05/30/2013  17:58:00     -272.968     -129.570       -4.268      123.165      101.043       59.155    15169.676    10209.705     3499.360        6.009        1.444      302.158       60.297        0.040      345.763       23.523      858.500
05/30/2013  17:59:00     -270.975     -125.977      -14.970      145.965      108.242       64.754    21305.872    11716.365     4193.081        6.336        1.861      298.827       73.708        0.061      345.626       23.287      858.527
05/30/2013  18:00:00     -283.825     -156.232      -13.124      143.254      108.407       73.191    20521.637    11752.060     5356.942        7.138        1.882      323.983       71.168        0.048      345.755       23.508      858.504
05/30/2013  18:01:00     -270.609       15.156        8.256      209.855      135.715       84.178    44039.068    18418.658     7085.883        7.152        3.477      271.033      105.231        0.151      345.824       23.629      858.520
05/30/2013  18:02:00     -148.560      -95.899       13.701      181.671      114.964       74.057    33004.317    13216.812     5484.429        4.157        2.585      176.824       90.034        0.259      345.747       23.496      858.525
05/30/2013  18:03:00     -391.530     -230.180      -23.144      136.362      124.600       59.139    18594.597    15525.181     3497.417       12.221        1.881      454.179       55.276        0.015      345.526       23.117      858.532
05/30/2013  18:04:00     -491.593     -102.542        2.153      163.769      195.761       78.630    26820.281    38322.441     6182.644       16.174        3.566      502.174       85.566        0.029      345.605       23.252      858.538
05/30/2013  18:05:00     -417.900      -85.586      -40.378      163.888      112.659       76.796    26859.385    12692.086     5897.586       11.451        2.272      426.574       78.685        0.034      345.540       23.139      858.569
05/30/2013  18:06:00     -423.728     -313.756        2.227      228.180      159.777      103.520    52066.052    25528.729    10716.292       18.314        4.416      527.246      114.213        0.047      345.262       22.664      858.574
05/30/2013  18:07:00     -285.675     -125.047        3.758      181.493       99.438       87.088    32939.562     9887.904     7584.366        7.383        2.521      311.845       84.841        0.074      345.505       23.080      858.588
05/30/2013  18:08:00     -347.476      -82.424        2.024      200.825      138.271       78.706    40330.686    19118.841     6194.586        9.658        3.282      357.118       87.236        0.060      345.491       23.054      858.623
05/30/2013  18:09:00     -244.046     -175.306       -4.346      196.633      145.034       67.791    38664.631    21034.970     4595.624        7.729        3.215      300.484       91.077        0.092      345.606       23.254      858.638
05/30/2013  18:10:00     -258.090      -41.042       -6.417      175.876      130.695       77.544    30932.257    17081.130     6013.035        6.117        2.701      261.333       75.686        0.084      345.570       23.193      858.649
05/30/2013  18:11:00     -315.508     -126.529       -5.944      201.501      170.724       91.613    40602.838    29146.794     8392.988        9.685        3.907      339.934       90.510        0.071      345.611       23.262      858.674
05/30/2013  18:12:00     -316.839     -149.008       -2.749      202.309      158.084       84.329    40929.033    24990.686     7111.318        9.780        3.652      350.129       93.045        0.071      345.466       23.013      858.680
05/30/2013  18:13:00     -334.934      -88.303        5.169      157.559      149.243       78.863    24824.744    22273.448     6219.417        8.665        2.666      346.379       77.490        0.050      345.455       22.994      858.705
05/30/2013  18:14:00     -346.310      -79.572      -29.461      159.311      136.420       70.067    25380.060    18610.460     4909.327        8.801        2.445      355.334       46.551        0.017      345.406       22.910      858.695
05/30/2013  18:15:00     -352.634     -157.626      -14.793      186.989      145.515       76.401    34964.867    21174.701     5837.160       10.569        3.099      386.260       90.206        0.055      345.408       22.914      858.676
05/30/2013  18:16:00     -123.221      -27.565       19.961      147.325       96.102       75.920    21704.747     9235.588     5763.910        2.652        1.835      126.266       87.947        0.485      345.573       23.198      858.686
05/30/2013  18:17:00     -220.643      -52.962       11.824      202.012      144.147       88.823    40808.865    20778.301     7889.476        6.054        3.474      226.911      106.591        0.221      345.508       23.085      858.660
05/30/2013  18:18:00     -502.424      -19.430      -32.448      180.141      123.295       85.671    32450.676    15201.600     7339.589       15.442        2.750      502.800       86.860        0.030      345.345       22.805      858.669
05/30/2013  18:19:00     -412.207      -33.825       -9.786      171.822      168.474       77.554    29522.894    28383.366     6014.644       11.753        3.196      413.592       88.080        0.045      345.365       22.838      858.680
05/30/2013  18:20:00     -288.537      -86.017       -3.704      184.318      140.566       73.045    33973.131    19758.909     5335.581        7.486        2.953      301.086       85.208        0.080      345.421       22.936      858.677
05/30/2013  18:21:00     -215.790      -79.353       -4.270      125.380      118.826       52.976    15720.161    14119.610     2806.433        4.276        1.632      229.918       51.019        0.049      345.485       23.046      858.665
05/30/2013  18:22:00     -265.515      -46.179        6.141      156.476      190.344       72.360    24484.813    36230.861     5235.906        6.930        3.298      269.501       67.745        0.063      345.563       23.181      858.688
05/30/2013  18:23:00     -403.145     -141.983      -22.412      137.978      105.961       66.876    19037.929    11227.760     4472.335       10.896        1.737      427.417       61.259        0.021      345.424       22.941      858.677
05/30/2013  18:24:00     -391.697     -186.065      -17.455      200.475      183.792       75.635    40190.202    33779.530     5720.641       13.401        3.985      433.644       92.327        0.045      345.392       22.885      858.695
05/30/2013  18:25:00     -200.155      -86.827       33.066      161.900      127.320       83.965    26211.765    16210.289     7050.042        4.907        2.474      218.176       82.495        0.143      345.459       23.002      858.719
05/30/2013  18:26:00     -394.157      -30.925      -33.702      182.596      137.291       73.071    33341.298    18848.916     5339.347       10.748        2.876      395.368       83.221        0.044      345.531       23.123      858.742
05/30/2013  18:27:00     -488.059      -87.868      -31.219      192.780      163.493       68.412    37164.229    26730.092     4680.242       15.772        3.429      495.905       80.765        0.027      345.257       22.655      858.744
05/30/2013  18:28:00     -341.158     -117.451       -3.409      208.671      146.197       81.495    43543.454    21373.684     6641.357       10.086        3.578      360.810       93.423        0.067      345.380       22.866      858.734
05/30/2013  18:29:00     -183.739      -41.969        7.596      177.253      142.146       66.607    31418.723    20205.558     4436.500        4.581        2.803      188.471       77.025        0.167      345.471       23.021      858.764
05/30/2013  18:30:00     -173.598      -89.620      -18.633      145.079      107.944       59.298    21047.941    11651.815     3516.283        3.736        1.811      195.366       42.440        0.047      345.465       23.010      858.785
05/30/2013  18:31:00     -337.710     -104.108      -42.409      148.986      120.024       59.868    22196.695    14405.815     3584.123        8.343        2.009      353.393       68.047        0.037      345.397       22.894      858.818
05/30/2013  18:32:00     -524.585      -24.440      -36.291      224.976      170.395       92.135    50614.111    29034.551     8488.939       18.261        4.407      525.154      106.630        0.041      345.267       22.671      858.844
05/30/2013  18:33:00     -434.947      -67.899      -15.902      177.212      139.107       74.807    31404.007    19350.695     5596.109       12.519        2.818      440.215       77.946        0.031      345.202       22.560      858.836
05/30/2013  18:34:00     -555.944      -72.421      -45.204      180.721      170.144       88.293    32660.032    28949.032     7795.636       19.287        3.470      560.641       92.553        0.027      345.199       22.555      858.815
05/30/2013  18:35:00     -360.965      -70.368      -26.873      171.307      121.849       84.667    29345.983    14847.218     7168.568        9.366        2.568      367.760       85.709        0.054      345.294       22.717      858.816
05/30/2013  18:36:00     -451.891     -166.034       -5.556      225.877      149.772       85.533    51020.307    22431.533     7315.925       15.627        4.038      481.428       81.903        0.029      345.182       22.527      858.829
05/30/2013  18:37:00     -489.595     -170.213      -33.890      160.429      142.672       88.562    25737.424    20355.255     7843.261       16.187        2.697      518.339       89.938        0.030      345.150       22.471      858.846
05/30/2013  18:38:00     -255.697      -43.398       -1.120      121.131      118.489       64.431    14672.599    14039.760     4151.293        5.006        1.643      259.354       32.345        0.016      345.330       22.780      858.888
05/30/2013  18:39:00     -395.362        1.283      -30.104      220.983      111.153       70.783    48833.312    12355.015     5010.253       11.170        3.310      395.364       77.516        0.038      345.254       22.648      858.887
05/30/2013  18:40:00     -312.733     -141.991       -5.681      112.716       85.211       66.115    12704.874     7260.925     4371.183        7.116        1.217      343.458       61.155        0.032      345.251       22.643      858.919
05/30/2013  18:41:00     -227.523      -65.330       -3.234      176.758      114.289       72.094    31243.554    13062.033     5197.607        5.277        2.475      236.717       86.667        0.134      345.247       22.638      858.916
05/30/2013  18:42:00     -187.753      -19.876      -19.406      102.094      135.469       52.535    10423.083    18351.970     2759.950        3.377        1.577      188.803       36.958        0.038      345.367       22.844      858.953
05/30/2013  18:43:00     -365.448       26.197      -41.120      195.503      110.608       59.156    38221.277    12234.030     3499.386        9.493        2.698      366.386       68.238        0.035      345.266       22.669      858.964
05/30/2013  18:44:00     -473.884     -131.321       -9.727      132.312       97.908       66.408    17506.436     9585.895     4410.010       13.670        1.575      491.743       61.885        0.016      345.148       22.467      858.970
05/30/2013  18:45:00     -444.596       48.691      -37.412      149.092      154.044       63.506    22228.433    23729.708     4032.996       12.571        2.500      447.254       67.958        0.023      345.166       22.498      858.987
05/30/2013  18:46:00     -359.091     -111.208      -24.490      161.668      139.707       60.290    26136.554    19518.184     3634.943        9.559        2.464      375.916       55.872        0.022      345.247       22.637      859.008
05/30/2013  18:47:00     -332.359      -46.535       -9.564      219.155      143.923       76.223    48029.112    20713.770     5810.014        9.362        3.728      335.601       81.498        0.059      345.198       22.554      859.028
05/30/2013  18:48:00     -285.999     -132.698      -10.596      170.101      114.444       63.774    28934.187    13097.400     4067.141        7.280        2.305      315.284       64.981        0.042      345.145       22.462      859.031
05/30/2013  18:49:00     -319.285      -44.965      -22.487      181.406      136.277       76.242    32908.016    18571.303     5812.906        8.087        2.865      322.436       83.860        0.068      345.204       22.563      859.052
05/30/2013  18:50:00     -202.441      -50.725       -8.977      138.894       85.089       70.722    19291.451     7240.077     5001.604        3.758        1.577      208.700       69.769        0.112      345.227       22.605      859.069
05/30/2013  18:51:00     -246.484      -95.054       -6.263      147.860      120.663       83.865    21862.512    14559.455     7033.261        5.663        2.173      264.177       78.563        0.088      345.131       22.440      859.074
05/30/2013  18:52:00     -234.529      -53.417      -10.174       88.798       89.762       53.849     7885.105     8057.171     2899.754        3.840        0.942      240.536       39.878        0.027      345.148       22.469      859.087
05/30/2013  18:53:00     -428.842      -73.466      -20.450      144.083      140.880       72.417    20759.983    19847.067     5244.198       11.778        2.293      435.089       65.197        0.022      345.053       22.305      859.085
05/30/2013  18:54:00     -297.845      -48.694      -13.888      100.468       94.065       52.107    10093.919     8848.250     2715.183        5.646        1.083      301.799       36.993        0.015      345.064       22.326      859.093
05/30/2013  18:55:00     -447.728       -9.976      -37.813      205.182      142.789       81.494    42099.784    20388.655     6641.212       13.555        3.456      447.839       87.957        0.039      345.030       22.265      859.116
05/30/2013  18:56:00     -299.331     -102.287      -24.074      142.757      118.474       71.444    20379.427    14036.148     5104.253        7.007        1.976      316.326       67.060        0.045      345.014       22.239      859.114
05/30/2013  18:57:00     -364.900     -110.489      -18.495      138.717      150.454       67.173    19242.466    22636.534     4512.224        9.604        2.320      381.261       53.947        0.020      344.951       22.132      859.121
05/30/2013  18:58:00     -287.704      -65.956      -35.076      136.244       89.000       63.114    18562.309     7920.924     3983.432        5.941        1.523      295.167       67.417        0.052      344.934       22.102      859.123
05/30/2013  18:59:00     -184.252       -8.267       -6.692      121.453       81.384       49.403    14750.749     6623.364     2440.679        2.893        1.191      184.438       44.474        0.058      345.055       22.311      859.122
05/30/2013  19:00:00     -303.785      -95.045      -18.154      133.374      106.334       68.066    17788.521    11306.842     4633.048        6.768        1.686      318.306       65.393        0.042      344.987       22.191      859.132
05/30/2013  19:01:00     -457.073      -67.645      -23.767      161.057      116.182       67.687    25939.277    13498.151     4581.476       12.903        2.201      462.052       81.395        0.031      344.881       22.012      859.133
05/30/2013  19:02:00     -306.457      -71.503      -27.158      154.818      114.712       59.695    23968.673    13158.762     3563.450        7.022        2.035      314.689       63.151        0.040      344.950       22.130      859.145
05/30/2013  19:03:00     -440.087       -9.953      -25.157      156.410      149.977       74.538    24464.091    22492.991     5555.841       12.345        2.626      440.199       73.789        0.028      344.861       21.976      859.161
05/30/2013  19:04:00     -374.242      -97.376      -40.967      110.308      118.351       68.235    12167.772    14006.991     4656.004        9.102        1.542      386.703       65.220        0.028      344.921       22.079      859.177
05/30/2013  19:05:00     -353.708      -94.560      -22.233      147.581      124.862       70.313    21780.202    15590.556     4943.960        8.842        2.116      366.130       78.684        0.046      344.864       21.983      859.185
05/30/2013  19:06:00     -352.701      -66.978      -37.563      159.207      168.601       65.877    25346.950    28426.384     4339.732        9.419        2.906      359.004       69.344        0.037      344.907       22.055      859.199
05/30/2013  19:07:00     -318.679     -116.708      -16.423      195.842      122.143       78.693    38354.092    14918.894     6192.597        8.745        2.973      339.377       79.941        0.055      344.846       21.951      859.212
05/30/2013  19:08:00     -385.134     -114.592      -32.559      162.912      112.774       68.580    26540.361    12717.888     4703.261       10.323        2.198      401.820       56.740        0.020      344.859       21.973      859.224
05/30/2013  19:09:00     -440.458      -44.580      -32.990      116.441      142.950       65.647    13558.449    20434.694     4309.529       11.768        1.915      442.709       64.311        0.021      344.793       21.860      859.231
05/30/2013  19:10:00     -358.776      -93.856      -15.882      130.631      108.346       62.467    17064.372    11738.936     3902.111        8.524        1.635      370.849       58.976        0.025      344.837       21.935      859.238
05/30/2013  19:11:00     -280.697      -72.559        0.006      149.668      108.061       57.347    22400.390    11677.211     3288.682        6.070        1.868      289.923       63.258        0.048      344.804       21.878      859.248
05/30/2013  19:12:00     -329.204      -42.505      -10.024      127.008       94.275       62.691    16130.933     8887.747     3930.191        6.961        1.447      331.937       69.041        0.043      344.834       21.931      859.265
05/30/2013  19:13:00     -267.558      -46.839       -7.742      136.956       89.792       66.182    18756.997     8062.520     4380.070        5.252        1.560      271.627       77.768        0.082      344.821       21.909      859.270
05/30/2013  19:14:00     -353.984      -38.448      -11.144      227.198      111.881       75.313    51619.087    12517.467     5671.976        9.835        3.490      356.066      101.428        0.081      344.800       21.872      859.264
05/30/2013  19:15:00     -349.184     -184.113       -9.555      180.309      156.461       76.312    32511.439    24479.952     5823.481       10.936        3.141      394.750       76.405        0.037      344.764       21.810      859.278
05/30/2013  19:16:00     -314.678     -144.413      -27.162      142.093      141.285       73.973    20190.558    19961.372     5472.056        8.311        2.281      346.233       73.773        0.045      344.754       21.793      859.279
05/30/2013  19:17:00     -256.005     -200.011        3.151      187.506      176.311       92.364    35158.549    31085.556     8531.170        9.015        3.739      324.873       97.118        0.089      344.700       21.702      859.261
05/30/2013  19:18:00     -196.632      -99.793       -6.656      154.229      110.819       59.637    23786.446    12280.879     3556.534        4.414        1.981      220.506       63.475        0.083      344.772       21.823      859.317
05/30/2013  19:19:00     -148.069      -21.860        5.812      121.494       83.330       46.710    14760.807     6943.869     2181.867        2.316        1.194      149.674       55.237        0.136      344.793       21.861      859.350
05/30/2013  19:20:00     -265.950       17.923      -14.376      115.505      117.885       56.944    13341.320    13896.903     3242.605        5.086        1.524      266.553       43.582        0.027      344.731       21.754      859.379
05/30/2013  19:21:00     -347.656      -28.371      -31.586      103.048      104.993       52.249    10618.872    11023.493     2729.931        7.352        1.219      348.811       44.160        0.016      344.756       21.797      859.372
05/30/2013  19:22:00     -301.066      -59.744      -10.276      118.917       90.222       60.968    14141.198     8139.987     3717.062        6.015        1.300      306.936       59.319        0.037      344.723       21.740      859.395
05/30/2013  19:23:00     -176.615      -46.884       12.225      148.563      111.188       73.129    22070.860    12362.832     5347.884        3.665        1.989      182.732       87.330        0.228      344.673       21.655      859.429
05/30/2013  19:24:00     -190.787     -104.638       15.259      170.216      140.571       92.581    28973.587    19760.316     8571.274        5.243        2.865      217.597       94.187        0.187      344.620       21.566      859.431
05/30/2013  19:25:00     -281.285      -90.910        1.048      157.691      141.189       62.485    24866.565    19934.240     3904.414        6.804        2.435      295.611       74.430        0.063      344.632       21.585      859.452
05/30/2013  19:26:00     -224.489        1.479        5.176      187.961      128.677       67.022    35329.488    16557.805     4491.959        5.339        2.819      224.494       80.063        0.127      344.613       21.553      859.463
05/30/2013  19:27:00     -210.076      -62.303       -9.622      130.040      112.684       56.753    16910.435    12697.739     3220.936        4.046        1.641      219.120       53.831        0.060      344.583       21.502      859.456
05/30/2013  19:28:00     -280.430      -73.099        5.575      139.421      123.251       66.134    19438.159    15190.900     4373.739        6.150        1.950      289.801       69.559        0.058      344.572       21.483      859.455
05/30/2013  19:29:00     -278.268      -86.129      -10.130      178.460       96.232       66.359    31847.986     9260.556     4403.464        6.523        2.276      291.292       70.668        0.059      344.593       21.519      859.482
05/30/2013  19:30:00     -294.107     -132.025       -7.621      146.012       88.385       66.076    21319.410     7811.900     4365.976        6.874        1.675      322.381       64.137        0.040      344.532       21.415      859.504
05/30/2013  19:31:00      -98.503      -14.645       18.919      107.107       81.711       50.614    11472.014     6676.691     2561.799        1.549        1.036       99.585       54.072        0.295      344.382       21.162      859.515
05/30/2013  19:32:00     -172.934      -91.136       -7.268       88.563       82.222       54.205     7843.413     6760.395     2938.135        2.790        0.877      195.479       46.165        0.056      344.549       21.446      859.530
05/30/2013  19:33:00     -218.713     -113.370        4.862      129.430      124.209       68.314    16752.187    15427.847     4666.828        4.877        1.842      246.349       60.842        0.061      344.576       21.490      859.557
05/30/2013  19:34:00     -170.217      -78.683       -5.174       79.718       62.720       44.922     6354.906     3933.804     2017.942        2.375        0.615      187.523       38.137        0.041      344.578       21.493      859.558
05/30/2013  19:35:00     -252.835        0.228      -22.875      123.347       70.587       46.944    15214.532     4982.549     2203.740        4.342        1.120      252.835       49.676        0.039      344.591       21.516      859.581
05/30/2013  19:36:00     -242.202      -47.222       -6.052      151.501       96.612       74.957    22952.627     9333.887     5618.538        4.941        1.895      246.763       86.448        0.123      344.454       21.282      859.602
05/30/2013  19:37:00     -413.686      -36.234      -21.099      154.642      108.465       70.794    23914.037    11764.608     5011.802       10.679        2.035      415.270       80.843        0.038      344.387       21.167      859.636
05/30/2013  19:38:00     -263.835      -67.517      -10.927      118.417      118.411       57.399    14022.542    14021.184     3294.691        5.281        1.567      272.337       27.934        0.011      344.462       21.295      859.646
05/30/2013  19:39:00     -388.665      -49.428       -7.745      153.079      138.292       60.590    23433.207    19124.706     3671.130        9.989        2.311      391.795       59.829        0.023      344.358       21.117      859.663
05/30/2013  19:40:00     -295.065       27.213      -28.868      120.944       93.353       50.602    14627.388     8714.791     2560.545        5.727        1.295      296.317       50.584        0.029      344.387       21.165      859.672
05/30/2013  19:41:00     -282.795      -54.735      -21.541      112.086      109.687       56.162    12563.348    12031.277     3154.142        5.559        1.387      288.043       59.963        0.043      344.409       21.203      859.689
05/30/2013  19:42:00     -214.091      -62.396      -17.888      147.381       64.041       48.032    21721.156     4101.237     2307.032        3.908        1.406      222.999       64.841        0.085      344.343       21.093      859.734
05/30/2013  19:43:00      -61.828      -12.819       17.168       94.451       50.059       42.250     8920.960     2505.935     1785.083        0.874        0.661       63.142       49.436        0.613      344.248       20.932      859.768
05/30/2013  19:44:00     -282.366      -31.787      -23.155      117.953       75.791       54.621    13912.959     5744.261     2983.457        5.196        1.132      284.150       64.811        0.052      344.326       21.061      859.802
05/30/2013  19:45:00     -140.247      -26.215       -5.973       78.630       45.083       38.637     6182.610     2032.514     1492.789        1.505        0.485      142.676       40.857        0.082      344.305       21.027      859.819
05/30/2013  19:46:00     -110.442      -54.248        3.210       59.345       58.704       25.512     3521.882     3446.157      650.882        1.138        0.381      123.046       27.134        0.049      344.286       20.996      859.832
05/30/2013  19:47:00     -105.054      -80.368       11.013       84.962       83.734       41.802     7218.504     7011.410     1747.432        1.679        0.799      132.270       53.582        0.164      344.290       21.003      859.842
05/30/2013  19:48:00     -268.857     -128.364      -16.676      112.231       74.074       45.679    12595.753     5487.029     2086.586        5.460        1.008      297.929       36.516        0.015      344.228       20.894      859.840
05/30/2013  19:49:00     -162.807      -38.505        3.740       87.442       56.875       36.998     7646.126     3234.820     1368.880        2.012        0.612      167.298       43.950        0.069      344.171       20.799      859.871
05/30/2013  19:50:00     -191.573        0.273      -16.459      111.436       55.061       41.071    12418.016     3031.738     1686.841        2.705        0.857      191.573       51.852        0.073      344.183       20.819      859.893
05/30/2013  19:51:00     -283.084      -70.839      -34.331       86.690       54.111       36.261     7515.164     2928.004     1314.877        4.904        0.588      291.813       37.507        0.017      344.147       20.758      859.916
05/30/2013  19:52:00     -141.555      -99.241       10.137       88.444       77.715       49.343     7822.426     6039.651     2434.736        2.314        0.815      172.877       49.227        0.081      344.143       20.751      859.950
05/30/2013  19:53:00     -220.640     -141.719       -6.566      133.904      103.879       65.865    17930.189    10790.896     4338.159        5.093        1.653      262.233       70.230        0.072      344.070       20.626      859.966
05/30/2013  19:54:00     -199.444     -105.833       -6.346       93.297       70.010       40.479     8704.329     4901.428     1638.541        3.313        0.762      225.785       42.703        0.036      344.072       20.628      859.995
05/30/2013  19:55:00     -185.319      -47.780      -14.674       68.315       44.834       33.948     4666.986     2010.078     1152.441        2.233        0.391      191.380       34.388        0.032      344.072       20.630      860.033
05/30/2013  19:56:00     -160.834     -101.572        3.620       99.248       99.329       40.994     9850.189     9866.237     1680.494        2.879        1.070      190.222       43.731        0.053      344.052       20.595      860.059
05/30/2013  19:57:00     -162.627      -62.333       -8.417       51.575       55.219       34.563     2659.964     3049.181     1194.624        1.865        0.345      174.164       26.933        0.024      344.041       20.578      860.075
05/30/2013  19:58:00     -277.788      -35.541       -7.752      109.985       86.071       60.474    12096.700     7408.199     3657.107        5.082        1.158      280.052       55.700        0.040      344.005       20.513      860.098
05/30/2013  19:59:00     -212.645      -87.405      -16.512       60.796       71.945       39.703     3696.195     5176.133     1576.332        3.179        0.522      229.908       27.346        0.014      343.997       20.499      860.124
05/30/2013  20:00:00     -183.872     -171.121       -4.806       94.490      102.438       50.737     8928.296    10493.573     2574.247        4.255        1.100      251.180       38.736        0.024      343.975       20.463      860.132
05/30/2013  20:01:00     -226.268     -172.941      -18.336      109.527      102.341       53.765    11996.067    10473.706     2890.661        5.340        1.268      284.791       44.771        0.025      343.952       20.422      860.127
05/30/2013  20:02:00     -113.875      -89.020       15.787      138.198       93.211       55.450    19098.615     8688.297     3074.660        2.600        1.543      144.541       73.193        0.256      343.896       20.329      860.153
05/30/2013  20:03:00     -219.231      -18.479       -6.883      100.262       65.735       40.369    10052.404     4321.048     1629.633        3.222        0.800      220.008       34.208        0.024      343.901       20.336      860.158
05/30/2013  20:04:00     -163.950     -127.183        7.116      132.862       90.386       60.546    17652.411     8169.627     3665.781        3.629        1.474      207.497       69.726        0.113      343.858       20.262      860.171
05/30/2013  20:05:00     -194.230      -35.811      -15.361       64.127       81.176       33.744     4112.318     6589.476     1138.629        2.554        0.592      197.504       32.561        0.027      343.875       20.292      860.187
05/30/2013  20:06:00     -149.360      -35.230       -1.491       67.194       83.498       40.053     4515.100     6971.884     1604.265        1.832        0.655      153.459       39.945        0.068      343.792       20.151      860.191
05/30/2013  20:07:00     -190.107      -22.538      -19.780       56.830       59.439       26.400     3229.635     3533.011      696.983        2.225        0.373      191.438       23.040        0.014      343.864       20.275      860.214
05/30/2013  20:08:00     -212.810      -13.357      -10.596       77.913       84.917       39.919     6070.372     7210.961     1593.522        3.022        0.744      213.229       32.795        0.024      343.823       20.204      860.214
05/30/2013  20:09:00     -197.323      -63.714       -0.956      104.987       81.155       42.568    11022.209     6586.215     1812.005        3.121        0.971      207.354       51.032        0.061      343.773       20.119      860.217
05/30/2013  20:10:00     -333.996      -56.363      -13.131       91.911       82.496       50.322     8447.671     6805.510     2532.318        6.634        0.889      338.718       54.703        0.026      343.778       20.127      860.217
05/30/2013  20:11:00     -260.627      -46.687      -10.147      128.448      108.466       56.511    16498.782    11764.799     3193.488        5.083        1.573      264.776       58.110        0.048      343.742       20.065      860.215
05/30/2013  20:12:00     -275.177      -75.461       -0.828      102.179      103.561       49.841    10440.615    10724.799     2484.135        5.253        1.182      285.336       45.410        0.025      343.730       20.042      860.211
05/30/2013  20:13:00     -411.007     -103.942       -6.066      188.487      116.128       65.910    35527.212    13485.669     4344.186       11.655        2.668      423.947       70.019        0.027      343.711       20.012      860.209
05/30/2013  20:14:00     -207.801      -61.560       -7.067      117.507       93.285       43.547    13807.933     8702.161     1896.369        3.571        1.220      216.728       44.544        0.042      343.712       20.013      860.199
05/30/2013  20:15:00     -336.842     -112.017      -15.523      136.553      118.249       60.675    18646.752    13982.814     3681.443        8.128        1.816      354.980       63.219        0.032      343.681       19.960      860.192
05/30/2013  20:16:00     -322.492     -130.912        5.798      171.724      141.321       77.523    29489.069    19971.551     6009.765        8.831        2.774      348.050       84.187        0.059      343.642       19.893      860.178
05/30/2013  20:17:00     -256.164      -48.337        8.893      164.604      129.342       72.272    27094.511    16729.306     5223.269        5.853        2.452      260.684       81.060        0.097      343.617       19.851      860.171
05/30/2013  20:18:00     -243.917     -116.099        9.325      145.668      125.477       67.575    21219.066    15744.402     4566.379        5.729        2.076      270.137       77.780        0.083      343.586       19.800      860.156
05/30/2013  20:19:00     -296.874      -41.699      -12.733       93.870       99.705       55.245     8811.668     9941.128     3052.035        5.592        1.090      299.789       56.461        0.035      343.606       19.832      860.157
05/30/2013  20:20:00     -396.835     -100.647       -9.192      200.448      125.160       70.695    40179.313    15664.976     4997.754       11.426        3.042      409.400       92.509        0.051      343.579       19.786      860.150
05/30/2013  20:21:00     -407.834      -35.474      -10.372      175.304      133.240       78.414    30731.475    17752.813     6148.778       11.115        2.732      409.374       90.177        0.049      343.564       19.761      860.135
05/30/2013  20:22:00     -431.409     -158.821      -14.076      142.762      125.882       63.485    20380.889    15846.169     4030.373       12.589        2.013      459.715       62.435        0.018      343.573       19.776      860.119
05/30/2013  20:23:00     -381.947     -151.895      -18.460      147.659      129.541       64.857    21803.036    16780.899     4206.470       10.604        2.140      411.042       63.694        0.024      343.556       19.747      860.118
05/30/2013  20:24:00     -320.697      -71.920       -2.784      147.331      160.869       73.477    21706.407    25878.793     5398.801        8.050        2.649      328.663       72.214        0.048      343.540       19.720      860.120
05/30/2013  20:25:00     -365.433      -85.194       -5.816      130.105      109.464       66.304    16927.332    11982.281     4396.249        8.706        1.665      375.233       66.304        0.031      343.525       19.695      860.094
05/30/2013  20:26:00     -283.424      -51.529       -0.628      137.632      112.385       71.131    18942.653    12630.450     5059.628        5.980        1.832      288.070       70.101        0.059      343.489       19.635      860.076
05/30/2013  20:27:00     -379.860      -52.680      -21.054      171.522      120.158       57.760    29419.844    14437.931     3336.227        9.734        2.360      383.495       66.227        0.030      343.493       19.639      860.068
05/30/2013  20:28:00     -432.056     -119.383       -9.754      193.004      134.417       77.701    37250.460    18068.059     6037.514       13.118        3.068      448.246       87.643        0.038      343.480       19.618      860.048
05/30/2013  20:29:00     -373.749      -27.954      -18.760      209.702      118.392       76.264    43974.964    14016.712     5816.150       10.230        3.190      374.793      100.332        0.072      343.480       19.618      860.045
05/30/2013  20:30:00     -271.950      -80.075       14.365      204.735      123.050       79.731    41916.421    15141.243     6357.104        7.198        3.171      283.494       90.704        0.102      343.426       19.527      860.067
05/30/2013  20:31:00     -446.288      -52.185      -16.745      206.922      135.235       78.932    42816.656    18288.454     6230.300       13.474        3.367      449.329       91.231        0.041      343.442       19.554      860.072
05/30/2013  20:32:00     -257.245     -114.540        9.281      215.372      198.799       97.324    46385.232    39520.846     9472.039        8.736        4.769      281.592      104.542        0.138      343.426       19.527      860.069
05/30/2013  20:33:00     -292.321      -73.041        1.591      159.511      109.643       83.914    25443.716    12021.519     7041.572        6.764        2.225      301.308       81.951        0.074      343.409       19.497      860.103
05/30/2013  20:34:00     -267.089      -90.668       -0.229      147.826      136.940       76.107    21852.443    18752.559     5792.209        6.297        2.320      282.059       74.556        0.070      343.410       19.499      860.150
05/30/2013  20:35:00     -232.947      -65.176       -7.582      119.901      112.434       63.063    14376.350    12641.456     3976.936        4.478        1.550      241.893       66.781        0.076      343.384       19.454      860.171
05/30/2013  20:36:00     -274.337       23.152       -0.001      215.573      115.642       84.570    46471.865    13373.098     7152.091        7.139        3.350      275.312      101.040        0.135      343.342       19.385      860.188
05/30/2013  20:37:00     -235.780      -88.284        2.432      160.224      118.166       71.176    25671.721    13963.225     5066.035        5.404        2.235      251.766       80.543        0.102      343.319       19.344      860.217
05/30/2013  20:38:00     -163.064      -92.377       39.178      199.847      183.205       91.253    39938.767    33564.223     8327.163        5.923        4.092      187.412      117.226        0.391      343.280       19.278      860.251
05/30/2013  20:39:00     -209.159     -120.106        6.302      178.848      137.955       87.262    31986.595    19031.466     7614.669        5.841        2.932      241.191       97.733        0.164      343.317       19.341      860.294
05/30/2013  20:40:00     -234.278     -121.623        6.326      167.832      123.707       71.876    28167.717    15303.319     5166.168        5.917        2.432      263.966       78.478        0.088      343.301       19.314      860.350
05/30/2013  20:41:00     -188.297      -31.955        2.217      128.961      105.180       71.270    16630.926    11062.821     5079.386        3.462        1.639      190.989       71.539        0.140      343.286       19.287      860.394
05/30/2013  20:42:00     -225.907       -8.701        0.722      153.539      125.074       64.708    23574.291    15643.532     4187.158        4.725        2.170      226.074       62.519        0.076      343.270       19.259      860.442
05/30/2013  20:43:00     -167.865     -121.834       -3.809      124.675      152.930       77.384    15543.906    23387.487     5988.275        4.397        2.246      207.418       80.078        0.149      343.271       19.261      860.485
05/30/2013  20:44:00     -261.540     -198.898      -14.419      106.420       92.212       62.392    11325.320     8503.066     3892.737        6.594        1.186      328.578       51.153        0.024      343.294       19.302      860.520
05/30/2013  20:45:00     -256.021     -139.279      -11.619      126.645      132.361       61.900    16038.987    17519.376     3831.617        6.123        1.869      291.454       60.894        0.044      343.236       19.202      860.551
05/30/2013  20:46:00     -167.373      -87.720        4.084      109.719      118.879       57.399    12038.161    14132.193     3294.644        3.259        1.473      188.967       62.159        0.108      343.228       19.188      860.588
05/30/2013  20:47:00     -123.434      -93.307       -9.971       94.477       80.406       52.850     8925.917     6465.078     2793.081        2.111        0.909      154.733       52.188        0.114      343.229       19.191      860.633
05/30/2013  20:48:00     -150.663      -77.194        2.755       97.384      102.962       56.325     9483.640    10601.238     3172.495        2.596        1.163      169.287       54.270        0.103      343.226       19.187      860.650
05/30/2013  20:49:00     -260.508      -55.828      -16.506      146.418      101.026       67.281    21438.360    10206.281     4526.767        5.371        1.809      266.423       62.522        0.055      343.203       19.145      860.679
05/30/2013  20:50:00     -192.281     -102.014       -2.557      115.041      102.166       59.100    13234.377    10437.828     3492.824        3.727        1.358      217.667       58.926        0.073      343.163       19.078      860.721
05/30/2013  20:51:00     -140.002     -114.266        5.785      142.915      108.129       64.736    20424.739    11691.873     4190.742        3.449        1.815      180.713       67.053        0.138      343.148       19.054      860.731
05/30/2013  20:52:00     -215.443     -108.561       -1.425      213.224      100.693       64.715    45464.526    10139.176     4187.988        5.899        2.990      241.249       84.035        0.121      343.120       19.005      860.748
05/30/2013  20:53:00     -334.694      -49.650      -15.446      157.566      122.560       74.775    24827.016    15020.958     5591.244        8.007        2.272      338.356       76.830        0.052      343.134       19.028      860.758
05/30/2013  20:54:00     -274.481      -43.414       10.522      203.381      118.180       61.427    41363.746    13966.444     3773.287        6.821        2.955      277.893       68.546        0.061      343.111       18.990      860.749
05/30/2013  20:55:00     -192.581      -52.116      -13.851      123.080      128.743       64.548    15148.696    16574.728     4166.494        3.794        1.794      199.508       55.102        0.076      343.149       19.053      860.764
05/30/2013  20:56:00     -301.383     -138.059       -8.084      142.504      150.544       66.059    20307.281    22663.512     4363.754        7.864        2.367      331.500       76.077        0.053      343.118       19.000      860.778
05/30/2013  20:57:00     -189.278     -115.939       -6.574      110.562      114.534       61.321    12223.884    13118.073     3760.261        3.920        1.455      221.964       55.870        0.063      343.129       19.020      860.789
05/30/2013  20:58:00     -241.537      -62.110       -2.988      161.343      113.940       53.432    26031.657    12982.249     2854.932        5.203        2.093      249.395       60.497        0.059      343.118       19.000      860.795
05/30/2013  20:59:00     -234.139     -118.508        0.806      135.266      117.252       57.052    18296.886    13748.148     3254.959        5.208        1.765      262.422       56.853        0.047      343.095       18.963      860.809
05/30/2013  21:00:00     -265.822     -130.387        2.776      154.690      130.837       70.509    23929.047    17118.204     4971.525        6.684        2.301      296.077       82.997        0.079      343.085       18.944      860.819
05/30/2013  21:01:00     -267.208     -110.154      -18.441      113.881      115.469       62.201    12968.900    13333.008     3869.023        5.702        1.509      289.023       57.389        0.039      343.113       18.992      860.821
05/30/2013  21:02:00     -281.620      -33.982      -21.146      155.828      106.319       63.816    24282.278    11303.642     4072.515        6.028        1.983      283.663       52.418        0.034      343.097       18.966      860.825
05/30/2013  21:03:00     -371.970      -84.913      -12.452      148.230       83.269       68.465    21972.081     6933.709     4687.465        8.965        1.680      381.539       80.828        0.045      343.004       18.807      860.834
05/30/2013  21:04:00     -313.450      -93.630      -26.180      145.594      107.314       65.173    21197.711    11516.230     4247.564        7.233        1.848      327.135       71.089        0.047      342.993       18.789      860.850
05/30/2013  21:05:00     -200.785      -26.747      -21.077      142.573       93.495       53.588    20327.083     8741.293     2871.676        3.670        1.597      202.558       51.279        0.064      342.987       18.779      860.845
05/30/2013  21:06:00     -203.601      -82.694        4.234      126.703       90.104       44.926    16053.705     8118.742     2018.328        3.725        1.310      219.754       52.170        0.056      342.915       18.656      860.867
05/30/2013  21:07:00     -154.232      -49.425        7.735      111.949      139.560       78.998    12532.502    19476.974     6240.632        3.226        1.913      161.958       63.256        0.153      342.921       18.667      860.864
05/30/2013  21:08:00     -362.058      -94.894      -34.857      169.321      145.916       76.641    28669.768    21291.407     5873.864        9.856        2.792      374.288       80.196        0.046      342.905       18.638      860.863
05/30/2013  21:09:00     -320.682      -82.215      -10.004      163.276      130.776       75.051    26659.019    17102.467     5632.614        7.954        2.470      331.053       76.313        0.053      342.879       18.595      860.874
05/30/2013  21:10:00     -287.369     -135.218        0.024      226.989      166.810       88.696    51524.222    27825.610     7866.979        9.403        4.361      317.593      103.921        0.107      342.879       18.596      860.879
05/30/2013  21:11:00     -273.576      -39.048       -3.787      162.295      114.489       73.694    26339.517    13107.645     5430.801        6.062        2.244      276.349       82.826        0.090      342.874       18.586      860.898
05/30/2013  21:12:00     -241.227      -81.278       -5.211      119.283      109.578       63.960    14228.413    12007.317     4090.872        4.757        1.516      254.551       58.069        0.052      342.868       18.575      860.892
05/30/2013  21:13:00     -247.306      -48.709        5.358      163.972      105.100       72.001    26886.952    11046.095     5184.160        5.333        2.156      252.057       85.919        0.116      342.814       18.484      860.885
05/30/2013  21:14:00     -304.247     -111.734        9.757      178.446      128.510       72.015    31842.842    16514.858     5186.184        7.934        2.677      324.115       79.570        0.060      342.792       18.447      860.885
05/30/2013  21:15:00     -378.782     -118.400      -20.577      145.572      159.254       85.610    21191.300    25361.705     7329.029       10.589        2.694      396.856       77.846        0.038      342.795       18.451      860.899
05/30/2013  21:16:00     -332.494     -122.695        2.100      214.944      148.221      101.173    46200.922    21969.610    10235.930       10.200        3.920      354.410      105.549        0.089      342.772       18.413      860.928
05/30/2013  21:17:00     -331.654     -113.550       -5.956      162.972      168.777       83.487    26559.771    28485.558     6970.004        9.246        3.101      350.554       71.676        0.042      342.768       18.406      860.968
05/30/2013  21:18:00     -342.949      -50.867      -33.367      187.090      106.395       72.307    35002.525    11319.898     5228.269        8.642        2.578      346.701       66.954        0.037      342.781       18.427      860.984
05/30/2013  21:19:00     -247.265      -43.872        0.797      143.488      101.256       63.485    20588.782    10252.823     4030.359        4.896        1.744      251.127       67.222        0.072      342.735       18.349      860.974
05/30/2013  21:20:00     -297.232      -47.716      -24.524      120.264      132.896       61.332    14463.333    17661.232     3761.615        6.355        1.794      301.038       63.518        0.045      342.703       18.294      860.965
05/30/2013  21:21:00     -348.103      -81.173        0.717      138.589      118.932       69.488    19206.898    14144.900     4828.637        8.297        1.909      357.442       62.041        0.030      342.675       18.247      860.957
05/30/2013  21:22:00     -336.048     -106.385      -14.342      152.275      104.431       55.408    23187.625    10905.794     3069.998        8.080        1.858      352.485       63.238        0.032      342.682       18.259      860.986
05/30/2013  21:23:00     -254.696      -97.593       -4.387      140.532      108.882       64.697    19749.312    11855.361     4185.755        5.510        1.790      272.753       71.438        0.069      342.654       18.212      861.016
05/30/2013  21:24:00     -224.522       -9.319        2.808      150.817      112.907       71.353    22745.715    12748.021     5091.316        4.554        2.029      224.715       52.523        0.055      342.646       18.198      861.040
05/30/2013  21:25:00     -255.668      -52.946      -13.916       98.625       90.835       58.048     9726.907     8251.045     3369.562        4.485        1.067      261.093       47.564        0.033      342.645       18.196      861.066
05/30/2013  21:26:00     -481.429      -29.107      -36.968      146.840      127.968       67.674    21562.015    16375.738     4579.833       13.825        2.126      482.308       64.331        0.018      342.648       18.203      861.083
05/30/2013  21:27:00     -293.704     -105.392      -17.220      147.019      106.888       55.587    21614.684    11425.037     3089.896        6.689        1.806      312.041       57.534        0.034      342.633       18.177      861.106
05/30/2013  21:28:00     -276.785      -52.427       -7.761      156.305      111.696       71.181    24431.235    12476.066     5066.709        6.069        2.099      281.707       76.323        0.073      342.599       18.119      861.113
05/30/2013  21:29:00     -254.456       37.816       -7.225       97.472      114.486       67.217     9500.772    13107.121     4518.110        4.667        1.356      257.251       51.004        0.039      342.628       18.167      861.144
05/30/2013  21:30:00     -202.776     -116.975        2.194      147.713      126.452       63.392    21819.257    15990.012     4018.574        4.831        2.091      234.096       76.438        0.107      342.622       18.158      861.184
05/30/2013  21:31:00     -276.839      -38.193      -18.346      139.728       87.427       48.333    19523.892     7643.431     2336.054        5.396        1.475      279.461       46.874        0.028      342.618       18.151      861.245
05/30/2013  21:32:00     -294.023      -95.061      -10.774      148.261       89.215       56.616    21981.423     7959.382     3205.389        6.437        1.657      309.009       64.127        0.043      342.619       18.154      861.267
05/30/2013  21:33:00     -151.382      -92.044       10.362      156.006       92.601       64.308    24337.994     8574.989     4135.575        3.427        1.852      177.168       81.182        0.210      342.580       18.086      861.275
05/30/2013  21:34:00     -146.000      -74.837        4.589      120.327      120.182       58.533    14478.612    14443.703     3426.170        2.964        1.617      164.063       57.271        0.122      342.584       18.095      861.289
05/30/2013  21:35:00     -300.650     -132.901       -9.154      160.536      143.392       70.206    25771.673    20561.156     4928.898        7.969        2.563      328.715       79.585        0.059      342.579       18.084      861.337
05/30/2013  21:36:00     -286.895     -181.036      -14.786      132.339      109.971       71.408    17513.571    12093.583     5099.093        7.500        1.735      339.239       58.449        0.030      342.572       18.074      861.356
05/30/2013  21:37:00     -289.850     -205.461       -7.476      162.324      128.201       77.432    26349.094    16435.381     5995.705        8.752        2.439      355.284       79.594        0.050      342.558       18.048      861.368
05/30/2013  21:38:00     -187.185     -150.391        8.976      182.412      150.385       84.169    33274.214    22615.694     7084.406        6.034        3.149      240.116       94.854        0.156      342.517       17.979      861.388
05/30/2013  21:39:00     -183.644     -125.640        4.091      119.537       87.513       69.893    14289.200     7658.476     4884.966        3.818        1.342      222.510       74.725        0.113      342.550       18.034      861.413
05/30/2013  21:40:00     -229.459     -122.875       -2.088      126.842      106.987       58.679    16088.928    11446.287     3443.179        4.936        1.549      260.288       60.844        0.055      342.529       17.999      861.430
05/30/2013  21:41:00     -216.591      -99.216      -12.044       88.988       64.899       40.375     7918.844     4211.860     1630.181        3.533        0.688      238.234       40.880        0.029      342.499       17.948      861.446
05/30/2013  21:42:00     -206.501      -81.524      -10.734       88.630      113.915       52.494     7855.254    12976.545     2755.583        3.649        1.179      222.011       51.292        0.053      342.482       17.920      861.466
05/30/2013  21:43:00     -208.887       10.965       -8.063       73.583       56.811       31.856     5414.457     3227.466     1014.791        2.674        0.483      209.174       30.369        0.021      342.449       17.863      861.477
05/30/2013  21:44:00     -157.353      -83.917        5.520      108.998       74.753       38.005    11880.456     5588.011     1444.412        2.537        0.946      178.331       43.586        0.060      342.429       17.829      861.479
05/30/2013  21:45:00     -232.352     -119.519       -7.576      145.363       94.318       52.804    21130.472     8895.857     2788.300        5.057        1.641      261.290       52.762        0.041      342.404       17.788      861.481
05/30/2013  21:46:00     -312.155      -24.863      -11.978      140.897      115.077       55.689    19852.026    13242.658     3101.267        6.719        1.810      313.144       51.711        0.027      342.417       17.809      861.487
05/30/2013  21:47:00     -283.759     -184.116       -8.773      142.386      107.179       61.976    20273.744    11487.414     3841.027        7.504        1.780      338.257       57.294        0.029      342.419       17.812      861.508
05/30/2013  21:48:00     -268.102     -123.849       -3.896      145.196      101.149       55.909    21081.767    10231.040     3125.865        6.083        1.722      295.326       54.849        0.034      342.390       17.764      861.544
05/30/2013  21:49:00     -274.819      -39.313      -10.234      128.791      114.040       63.801    16587.110    13005.125     4070.541        5.541        1.683      277.617       65.811        0.056      342.353       17.701      861.554
05/30/2013  21:50:00     -306.671     -120.602       -3.517      130.427       98.312       52.620    17011.081     9665.287     2768.882        6.902        1.472      329.533       39.165        0.014      342.385       17.753      861.565
05/30/2013  21:51:00     -317.477      -36.029      -18.177       95.403      100.761       56.563     9101.823    10152.789     3199.379        6.243        1.123      319.514       50.429        0.025      342.375       17.737      861.553
05/30/2013  21:52:00     -343.119       -4.626      -20.481      133.020      117.049       72.087    17694.344    13700.433     5196.596        7.738        1.830      343.150       71.224        0.043      342.331       17.663      861.550
05/30/2013  21:53:00     -406.027     -108.209       -5.949      175.351      126.568       72.416    30748.132    16019.411     5244.106       11.430        2.601      420.199       75.086        0.032      342.320       17.644      861.565
05/30/2013  21:54:00     -416.163      -36.183      -16.513      158.297      133.037       83.976    25057.931    17698.848     7051.982       11.228        2.490      417.733       84.591        0.041      342.322       17.648      861.577
05/30/2013  21:55:00     -444.914     -108.979      -10.953      197.730      156.802       79.812    39097.236    24586.868     6370.011       13.999        3.503      458.066       95.185        0.043      342.314       17.634      861.590
05/30/2013  21:56:00     -312.825     -110.060      -10.490      190.078      141.477       72.836    36129.514    20015.759     5305.128        8.576        3.073      331.622       84.393        0.065      342.319       17.644      861.619
05/30/2013  21:57:00     -304.443       -2.956      -23.765      158.069       91.762       67.930    24985.679     8420.240     4614.497        6.563        1.901      304.458       75.107        0.061      342.343       17.683      861.640
05/30/2013  21:58:00     -479.083       36.830      -49.386      121.277      117.954       70.841    14708.052    13913.255     5018.382       13.347        1.682      480.497       51.180        0.011      342.357       17.706      861.642
05/30/2013  21:59:00     -303.569     -120.436      -18.854      132.841      100.334       64.979    17646.797    10066.929     4222.266        6.947        1.597      326.587       64.815        0.039      342.315       17.636      861.607
05/30/2013  22:00:00     -397.438      -77.487      -14.440      161.730      112.484       72.726    26156.585    12652.703     5289.110       10.413        2.205      404.921       80.324        0.039      342.267       17.555      861.604
05/30/2013  22:01:00     -275.932      -90.701      -15.484      128.812      109.298       64.918    16592.645    11945.980     4214.362        5.867        1.638      290.456       62.314        0.046      342.242       17.511      861.587
05/30/2013  22:02:00     -402.375      -55.313      -12.444      161.615      115.082       76.468    26119.301    13243.866     5847.429       10.516        2.261      406.159       81.523        0.040      342.202       17.444      861.583
05/30/2013  22:03:00     -267.943      -75.712        2.522      139.762      127.835       65.230    19533.421    16341.869     4254.982        5.882        2.007      278.434       69.205        0.062      342.166       17.381      861.582
05/30/2013  22:04:00     -352.590     -116.536        1.816      148.264      132.497       76.539    21982.110    17555.344     5858.275        9.164        2.270      371.349       84.247        0.051      342.163       17.376      861.593
05/30/2013  22:05:00     -267.717     -110.423      -12.482      145.662      133.364       62.248    21217.482    17785.828     3874.752        6.344        2.144      289.596       58.239        0.040      342.210       17.456      861.621
05/30/2013  22:06:00     -294.395      -32.652       -5.879      159.132      133.225       66.648    25323.120    17748.995     4441.896        6.763        2.376      296.200       69.307        0.055      342.190       17.423      861.632
05/30/2013  22:07:00     -436.763      -91.658      -11.742      142.777      105.102       78.060    20385.144    11046.440     6093.395       11.841        1.876      446.277       78.215        0.031      342.210       17.457      861.635
05/30/2013  22:08:00     -365.175      -95.181       -2.759      159.232      136.099       68.282    25354.933    18522.846     4662.428        9.547        2.427      377.376       72.345        0.037      342.197       17.435      861.648
05/30/2013  22:09:00     -383.254      -53.935      -22.946      180.933      120.205       78.278    32736.755    14449.179     6127.414       10.181        2.666      387.030       85.759        0.049      342.203       17.444      861.665
05/30/2013  22:10:00     -391.360     -158.755      -14.159      145.865      112.404       70.438    21276.636    12634.763     4961.463       10.871        1.944      422.333       68.620        0.026      342.174       17.397      861.683
05/30/2013  22:11:00     -377.902     -164.999      -13.318      156.823      162.500       87.270    24593.422    26406.173     7616.023       11.440        2.931      412.353       82.217        0.040      342.165       17.381      861.697
05/30/2013  22:12:00     -390.676     -105.674      -13.798      195.570      113.097       68.915    38247.683    12790.893     4749.233       10.988        2.789      404.716       86.492        0.046      342.154       17.363      861.703
05/30/2013  22:13:00     -416.069      -78.194      -20.224      150.992      108.739       65.067    22798.728    11824.275     4233.735       10.924        1.943      423.352       60.262        0.020      342.158       17.369      861.716
05/30/2013  22:14:00     -340.542      -54.324      -15.176      114.631      104.448       58.658    13140.209    10909.336     3440.752        7.332        1.375      344.848       60.839        0.031      342.131       17.322      861.729
05/30/2013  22:15:00     -263.383      -60.707        0.893      178.389       99.259       69.487    31822.519     9852.424     4828.497        5.977        2.325      270.289       72.498        0.072      342.112       17.291      861.726
05/30/2013  22:16:00     -271.126      -66.373        0.309      163.450       98.848       60.345    26716.010     9770.948     3641.502        5.901        2.006      279.132       75.403        0.073      342.112       17.290      861.742
05/30/2013  22:17:00     -236.847      -60.718       -2.586      103.727      108.386       47.843    10759.278    11747.630     2288.918        4.229        1.240      244.506       33.495        0.019      342.098       17.266      861.778
05/30/2013  22:18:00     -392.334      -29.888      -18.125      154.052      110.215       72.594    23732.103    12147.442     5269.939        9.814        2.057      393.471       79.853        0.041      342.102       17.273      861.794
05/30/2013  22:19:00     -338.334     -101.544      -23.550      113.731      136.686       63.702    12934.696    18683.007     4057.992        8.050        1.784      353.244       67.124        0.036      342.110       17.288      861.806
05/30/2013  22:20:00     -213.095      -15.686       -6.375      128.906       89.530       59.802    16616.690     8015.625     3576.322        3.695        1.410      213.671       64.082        0.090      342.058       17.200      861.820
05/30/2013  22:21:00     -244.188      -50.186       -3.726      152.319       94.554       60.141    23201.007     8940.382     3616.918        4.895        1.788      249.291       58.279        0.055      342.076       17.231      861.817
05/30/2013  22:22:00     -290.418        1.300       -9.793      140.694       90.960       59.286    19794.909     8273.789     3514.855        5.801        1.579      290.421       61.634        0.045      342.047       17.181      861.821
05/30/2013  22:23:00     -250.642      -18.336        0.750      128.546       84.963       55.366    16524.048     7218.735     3065.406        4.498        1.340      251.312       59.077        0.055      342.030       17.153      861.809
05/30/2013  22:24:00     -325.542      -90.165      -15.960      130.834      103.798       64.929    17117.533    10773.970     4215.790        7.323        1.605      337.798       65.733        0.038      342.029       17.149      861.801
05/30/2013  22:25:00     -305.113      -68.109        1.651      132.101      103.978       64.521    17450.554    10811.504     4162.941        6.507        1.621      312.623       65.145        0.043      342.014       17.124      861.796
05/30/2013  22:26:00     -267.957      -79.519       -2.905      181.524      115.981       68.662    32950.852    13451.479     4714.518        6.462        2.556      279.507       80.423        0.083      341.970       17.051      861.771
05/30/2013  22:27:00     -277.907     -103.406       -6.418      183.489      104.800       69.683    33668.310    10983.136     4855.693        6.873        2.475      296.522       88.045        0.088      341.988       17.080      861.770
05/30/2013  22:28:00     -349.681      -61.022      -13.287      143.105      101.977       58.484    20479.096    10399.317     3420.343        8.023        1.715      354.965       47.199        0.018      342.002       17.103      861.773
05/30/2013  22:29:00     -343.979      -64.908      -24.551      132.302      124.330       54.178    17503.783    15457.891     2935.292        7.951        1.795      350.049       46.705        0.018      341.975       17.059      861.761
05/30/2013  22:30:00     -415.648     -103.363      -22.644      146.853      115.196       69.357    21565.882    13270.044     4810.384       11.180        1.982      428.308       73.006        0.029      341.984       17.073      861.768
05/30/2013  22:31:00     -293.351      -65.683      -19.890      128.871      103.731       59.425    16607.809    10760.035     3531.334        6.083        1.545      300.614       56.205        0.035      341.992       17.086      861.753
05/30/2013  22:32:00     -385.500      -38.918      -38.083      123.052      111.880       57.332    15141.888    12517.039     3286.956        9.126        1.547      387.459       58.090        0.022      341.971       17.051      861.746
05/30/2013  22:33:00     -398.710     -103.756      -19.440      133.980      100.941       54.135    17950.512    10189.020     2930.567       10.059        1.554      411.989       49.491        0.014      341.966       17.042      861.742
05/30/2013  22:34:00     -298.134      -53.623      -11.510      115.395      116.751       61.643    13315.903    13630.861     3799.800        6.131        1.537      302.918       39.314        0.017      341.931       16.983      861.751
05/30/2013  22:35:00     -327.741      -80.847      -14.215      148.367       91.323       52.249    22012.779     8339.888     2729.916        7.361        1.654      337.565       59.122        0.031      341.930       16.981      861.794
05/30/2013  22:36:00     -279.056      -48.199       -2.332      136.325      107.067       56.115    18584.591    11463.432     3148.923        5.669        1.660      283.188       55.750        0.039      341.910       16.948      861.803
05/30/2013  22:37:00     -298.539      -96.710      -13.245      140.318       95.939       52.539    19689.228     9204.264     2760.321        6.515        1.583      313.812       52.157        0.028      341.920       16.963      861.795
05/30/2013  22:38:00     -291.874      -59.374       -2.859       93.375      111.447       59.751     8718.962    12420.428     3570.215        5.671        1.235      297.852       54.345        0.033      341.913       16.952      861.822
05/30/2013  22:39:00     -253.661      -70.710       -0.956      133.874       95.717       66.353    17922.217     9161.777     4402.688        5.041        1.574      263.332       73.317        0.078      341.944       17.003      861.826
05/30/2013  22:40:00     -312.849      -50.313      -26.666      112.718       86.741       48.266    12705.303     7523.970     2329.643        6.183        1.128      316.869       44.644        0.020      341.922       16.969      861.812
05/30/2013  22:41:00     -371.251      -96.582      -18.143      109.126       87.857       62.435    11908.513     7718.890     3898.163        8.550        1.176      383.609       58.558        0.023      341.918       16.961      861.822
05/30/2013  22:42:00     -297.221      -96.109      -15.986      121.420       89.860       58.517    14742.899     8074.842     3424.258        6.203        1.312      312.374       63.149        0.041      341.923       16.969      861.801
05/30/2013  22:43:00     -290.098      -57.699       -8.608      118.664       78.624       55.608    14081.122     6181.713     3092.253        5.545        1.168      295.780       53.715        0.033      341.910       16.947      861.799
05/30/2013  22:44:00     -365.068      -41.796      -29.584      155.630      102.094       53.244    24220.760    10423.226     2834.897        8.668        1.874      367.453       68.990        0.035      341.923       16.969      861.798
05/30/2013  22:45:00     -226.271      -63.894      -11.161      101.447      115.638       50.944    10291.553    13372.180     2595.258        4.083        1.313      235.119       45.152        0.037      341.904       16.937      861.814
05/30/2013  22:46:00     -270.684      -11.775       -7.129      133.777      109.713       64.701    17896.336    12036.979     4186.263        5.378        1.706      270.940       75.059        0.077      341.930       16.981      861.833
05/30/2013  22:47:00     -328.622      -60.305      -31.035      130.628      101.216       58.101    17063.689    10244.597     3375.730        7.163        1.534      334.109       69.175        0.043      341.953       17.020      861.829
05/30/2013  22:48:00     -235.552      -45.978      -18.930      108.969       73.055       45.841    11874.166     5337.052     2101.393        3.863        0.966      239.997       48.946        0.042      341.933       16.986      861.851
05/30/2013  22:49:00     -192.222      -31.832      -28.779       93.592       78.358       39.884     8759.503     6139.970     1590.744        2.764        0.825      194.840       28.832        0.022      341.974       17.057      861.858
05/30/2013  22:50:00     -190.048      -51.018       -7.181       73.841       77.362       42.535     5452.494     5984.805     1809.221        2.601        0.662      196.776       37.091        0.036      341.917       16.961      861.884
05/30/2013  22:51:00     -174.716      -31.500       -3.885      108.510      103.908       53.113    11774.422    10796.775     2821.044        2.846        1.270      177.533       44.795        0.064      341.928       16.979      861.910
05/30/2013  22:52:00     -311.194      -73.916      -24.079      106.657      111.573       49.649    11375.628    12448.494     2464.988        6.458        1.314      319.852       51.101        0.026      342.004       17.107      861.924
05/30/2013  22:53:00     -226.906      -66.044       -1.166       99.580       69.737       47.098     9916.083     4863.287     2218.245        3.642        0.850      236.322       45.790        0.038      341.981       17.068      861.939
05/30/2013  22:54:00     -200.634      -60.153       -5.160      119.364       66.411       49.571    14247.659     4410.410     2457.299        3.250        1.056      209.458       48.250        0.053      341.978       17.063      861.950
05/30/2013  22:55:00     -269.891      -18.756      -15.057      108.772       83.005       56.071    11831.252     6889.867     3143.976        4.764        1.093      270.542       59.340        0.048      341.929       16.979      861.994
05/30/2013  22:56:00     -133.877      -63.078        8.889       77.603       79.890       40.326     6022.282     6382.349     1626.216        1.800        0.702      147.993       39.254        0.070      341.919       16.964      862.021
05/30/2013  22:57:00     -123.020      -53.455       -0.770      113.977       87.751       46.663    12990.671     7700.162     2177.471        2.043        1.143      134.132       51.121        0.145      341.959       17.032      862.026
05/30/2013  22:58:00     -216.415        6.688      -20.479       92.301       84.754       47.086     8519.499     7183.218     2217.123        3.261        0.896      216.518       52.030        0.058      341.997       17.095      862.049
05/30/2013  22:59:00      -50.522      -37.926       26.314       77.800       88.285       42.369     6052.914     7794.204     1795.151        1.016        0.782       63.173       39.275        0.387      341.861       16.868      862.094
05/30/2013  23:00:00      -68.470       -2.348       13.634       54.189       65.153       26.968     2936.444     4244.919      727.299        0.639        0.395       68.510       24.146        0.124      341.934       16.992      862.119
05/30/2013  23:01:00      -48.496       26.902        5.027       44.945       28.415       28.831     2020.031      807.405      831.233        0.338        0.183       55.458       12.613        0.052      341.898       16.931      862.165
05/30/2013  23:02:00      -36.899       73.357        0.446       69.549       36.362       32.737     4837.042     1322.213     1071.687        0.699        0.362       82.114       38.537        0.220      341.924       16.975      862.204
05/30/2013  23:03:00      -33.679      150.633      -14.359       52.932       65.777       29.327     2801.751     4326.613      860.049        1.601        0.399      154.353       31.947        0.043      341.900       16.932      862.217
05/30/2013  23:04:00      -55.849      150.059      -29.208       65.535       73.693       29.870     4294.890     5430.713      892.199        1.855        0.531      160.115       26.342        0.027      341.828       16.810      862.240
05/30/2013  23:05:00      -49.090       67.229      -17.499       37.045       51.259       19.656     1372.364     2627.448      386.345        0.581        0.219       83.244       25.678        0.095      341.867       16.876      862.256
05/30/2013  23:06:00      -74.701      105.813      -13.047       54.884       76.539       27.931     3012.284     5858.272      780.136        1.330        0.483      129.524       37.038        0.082      341.951       17.020      862.253
05/30/2013  23:07:00      -14.278      195.493      -28.073       36.671       48.587       29.393     1344.769     2360.660      863.939        2.189        0.228      196.014       21.919        0.013      341.928       16.979      862.268
05/30/2013  23:08:00      -29.142      266.525      -33.298       41.737       74.669       33.327     1741.984     5575.470     1110.677        4.071        0.421      268.114       32.421        0.015      341.833       16.815      862.272
05/30/2013  23:09:00       33.420      219.853      -26.846       54.646       82.607       47.012     2986.194     6823.961     2210.133        3.109        0.601      222.379       47.610        0.046      341.700       16.590      862.290
05/30/2013  23:10:00       14.030      223.526      -25.620       40.591       51.016       32.061     1647.661     2602.588     1027.905        2.805        0.264      223.966       26.146        0.014      341.649       16.505      862.296
05/30/2013  23:11:00        6.021      208.018      -20.994       31.699       36.975       23.921     1004.802     1367.163      572.233        2.335        0.147      208.105       22.285        0.011      341.639       16.489      862.303
05/30/2013  23:12:00        4.451      178.746      -24.636       35.525       37.293       20.919     1262.014     1390.786      437.619        1.783        0.155      178.801       20.075        0.013      341.625       16.466      862.310
05/30/2013  23:13:00       14.330      183.848      -22.487       27.577       50.050       20.980      760.494     2505.048      440.154        1.911        0.185      184.406       23.916        0.017      341.621       16.460      862.311
05/30/2013  23:14:00       38.697      243.381      -32.540       37.419       49.849       29.791     1400.158     2484.966      887.487        3.328        0.239      246.439       27.938        0.013      341.644       16.496      862.315
05/30/2013  23:15:00       12.860      134.397       -4.769       33.087       61.860       37.271     1094.764     3826.659     1389.129        1.228        0.316      135.010       37.611        0.078      341.501       16.258      862.331
05/30/2013  23:16:00       26.215       99.571      -10.075       30.290       51.117       30.261      917.459     2612.995      915.702        0.757        0.222      102.964       33.571        0.106      341.469       16.204      862.356
05/30/2013  23:17:00       49.934       83.301      -13.186       20.726       30.428       15.481      429.580      925.847      239.650        0.560        0.080       97.121        9.712        0.010      341.448       16.167      862.370
05/30/2013  23:18:00       82.467       93.895       -5.642       37.116       39.487       34.564     1377.601     1559.238     1194.698        0.989        0.207      124.968       32.072        0.066      341.483       16.227      862.374
05/30/2013  23:19:00       58.319       69.449       -3.816       44.287       46.561       32.523     1961.295     2167.886     1057.714        0.671        0.259       90.688       19.896        0.048      341.483       16.227      862.393
05/30/2013  23:20:00       37.547       68.445       -0.858       37.275       47.725       28.342     1389.418     2277.702      803.267        0.528        0.224       78.068       25.962        0.111      341.375       16.043      862.400
05/30/2013  23:21:00       30.709      120.109      -14.081       35.305       60.751       35.162     1246.413     3690.662     1236.353        1.087        0.309      123.973       35.325        0.081      341.392       16.071      862.421
05/30/2013  23:22:00       29.466       92.818      -18.667       38.314       38.789       23.217     1467.998     1504.578      539.035        0.667        0.176       97.383       17.764        0.033      341.372       16.038      862.453
05/30/2013  23:23:00       37.078      106.583       -2.877       33.886       61.439       41.576     1148.286     3774.764     1728.581        0.970        0.333      112.848       41.904        0.138      341.382       16.055      862.476
05/30/2013  23:24:00       17.792       81.128       -3.423       37.428       51.847       34.121     1400.859     2688.139     1164.210        0.608        0.263       83.057       33.159        0.159      341.327       15.964      862.481
05/30/2013  23:25:00       32.054       74.415       -5.067       32.658       43.144       26.477     1066.573     1861.371      701.014        0.511        0.181       81.025       16.969        0.044      341.339       15.983      862.480
05/30/2013  23:26:00       32.945      129.530       -8.863       34.583       81.647       40.678     1195.971     6666.268     1654.662        1.373        0.476      133.654       50.032        0.140      341.385       16.059      862.480
05/30/2013  23:27:00        7.652      135.176      -16.792       35.361       63.206       31.097     1250.394     3995.022      967.047        1.241        0.311      135.392       35.244        0.068      341.427       16.130      862.486
05/30/2013  23:28:00        3.924      130.722      -18.578       37.942       34.576       19.782     1439.562     1195.494      391.309        1.024        0.151      130.781       13.851        0.011      341.392       16.072      862.516
05/30/2013  23:29:00      -29.744      136.876      -17.153       37.639       46.946       19.284     1416.727     2203.909      371.867        1.195        0.200      140.070       22.071        0.025      341.414       16.110      862.545
05/30/2013  23:30:00      -72.034       52.754      -10.678       21.482       58.929       19.915      461.469     3472.600      396.598        0.621        0.217       89.285       16.552        0.034      341.465       16.195      862.554
05/30/2013  23:31:00      -71.682        5.253      -16.473       32.126       52.824       27.714     1032.062     2790.403      768.038        0.501        0.230       71.874       26.422        0.135      341.448       16.168      862.552
05/30/2013  23:32:00      -91.071       54.885      -18.194       48.554       50.222       19.593     2357.537     2522.296      383.880        0.845        0.263      106.331       16.466        0.024      341.384       16.058      862.561
05/30/2013  23:33:00     -204.327      -61.712       -2.319       76.395       57.847       38.293     5836.250     3346.246     1466.332        2.810        0.532      213.443       37.419        0.031      341.125       15.617      862.554
05/30/2013  23:34:00     -189.887      -46.339       -1.363       66.957       64.663       35.721     4483.220     4181.308     1276.007        2.407        0.497      195.460       34.461        0.031      340.973       15.360      862.559
05/30/2013  23:35:00     -148.841      -14.497       -8.765       54.354       47.526       35.412     2954.335     2258.736     1254.023        1.445        0.323      149.545       31.625        0.045      340.964       15.347      862.568
05/30/2013  23:36:00     -135.047      -18.973       -8.236       41.761       43.899       25.198     1744.002     1927.088      634.929        1.149        0.215      136.373       15.179        0.012      340.964       15.348      862.570
05/30/2013  23:37:00     -139.893      -19.021       -0.261       61.233       54.839       26.751     3749.539     3007.269      715.635        1.370        0.374      141.180       25.447        0.032      340.967       15.353      862.557
05/30/2013  23:38:00     -128.642       98.571      -22.710       69.998       55.999       30.497     4899.719     3135.843      930.087        1.787        0.448      162.065       37.792        0.054      340.867       15.182      862.564
05/30/2013  23:39:00     -190.421      158.672      -40.332       69.837       76.858       41.917     4877.175     5907.159     1757.074        3.780        0.627      247.865       35.889        0.021      341.054       15.495      862.559
05/30/2013  23:40:00     -137.284      101.713       -9.204       63.655       48.933       46.749     4052.012     2394.468     2185.433        1.895        0.432      170.857       26.155        0.023      341.054       15.500      862.560
05/30/2013  23:41:00     -139.418      190.458      -37.331       57.653       79.047       39.032     3323.846     6248.457     1523.490        3.410        0.555      236.033       36.337        0.024      341.205       15.753      862.574
05/30/2013  23:42:00     -143.298      173.971      -27.550       79.254       64.096       42.024     6281.119     4108.247     1765.976        3.186        0.608      225.389       43.960        0.038      341.227       15.791      862.580
05/30/2013  23:43:00     -178.149      146.272      -30.372       63.276       92.953       43.963     4003.805     8640.276     1932.749        3.431        0.729      230.505       45.416        0.039      341.237       15.807      862.595
05/30/2013  23:44:00     -189.067      -15.568      -18.246       89.200       89.866       46.360     7956.635     8075.847     2149.273        2.725        0.909      189.707       45.385        0.057      341.208       15.759      862.602
05/30/2013  23:45:00     -218.060       58.850      -36.184       54.802       85.139       35.876     3003.286     7248.593     1287.084        3.193        0.577      225.862       33.445        0.022      341.170       15.694      862.629
05/30/2013  23:46:00     -100.167       16.210       -7.572       44.696       57.927       34.569     1997.732     3355.498     1195.035        0.845        0.327      101.470       18.323        0.033      341.127       15.624      862.650
05/30/2013  23:47:00     -161.310        8.051      -27.557       69.390       76.415       38.268     4815.031     5839.199     1464.470        1.948        0.606      161.511       25.411        0.025      341.094       15.568      862.661
05/30/2013  23:48:00     -111.807       21.926      -20.025       45.666       53.836       27.468     2085.394     2898.292      754.507        0.956        0.287      113.936       15.849        0.019      341.048       15.491      862.672
05/30/2013  23:49:00     -136.362      -48.708       -0.854       66.271       72.437       37.549     4391.865     5247.122     1409.949        1.601        0.552      144.800       30.753        0.045      340.951       15.324      862.686
05/30/2013  23:50:00     -138.797        1.043      -14.581       45.258       46.662       32.506     2048.310     2177.322     1056.656        1.238        0.264      138.801       15.125        0.012      340.963       15.346      862.702
05/30/2013  23:51:00      -95.220       55.798      -12.777       47.354       43.630       28.168     2242.390     1903.597      793.445        0.864        0.247      110.364       22.259        0.041      340.938       15.305      862.716
05/30/2013  23:52:00      -94.674       69.036      -27.130       41.293       56.530       27.902     1705.102     3195.660      778.505        1.007        0.284      117.172       28.281        0.058      340.949       15.324      862.730
05/30/2013  23:53:00     -108.709       13.046      -25.469       57.269       40.714       27.626     3279.687     1657.646      763.192        0.917        0.285      109.489       22.618        0.043      340.962       15.345      862.733
05/30/2013  23:54:00     -109.601      -28.634       -8.907       33.613       44.093       23.001     1129.810     1944.166      529.054        0.826        0.180      113.280       16.076        0.020      340.963       15.346      862.742
05/30/2013  23:55:00      -75.569        5.503      -20.255       50.991       44.905       24.826     2600.116     2016.426      616.320        0.569        0.262       75.769       20.994        0.077      340.902       15.243      862.763
05/30/2013  23:56:00     -126.014      101.079      -28.249       45.170       74.042       34.668     2040.302     5482.150     1201.840        1.781        0.436      161.545       40.486        0.063      340.898       15.235      862.791
05/30/2013  23:57:00     -119.168      101.401      -21.019       61.715       48.333       35.955     3808.778     2336.096     1292.744        1.618        0.372      156.470       32.529        0.043      340.857       15.167      862.811
05/30/2013  23:58:00     -183.100      194.878      -33.042       98.615       84.101       50.639     9724.956     7072.964     2564.306        4.598        0.968      267.401       50.467        0.036      340.886       15.213      862.819
05/30/2013  23:59:00     -136.773      140.539      -33.670       57.036       56.572       30.757     3253.139     3200.393      945.978        2.349        0.370      196.108       33.669        0.029      340.854       15.161      862.828
